[[{"header":{"parameterUnit":"m.s-1","parameterCategory":1,"la1":30.6,"la2":28.766,"lo1":-90.7593,"lo2":-88.6598,"dy":0.0162,"dx":0.0183,"nx":116,"ny":114,"refTime":"2024-06-25T06:00:00:Z","depth":0,"parameterNumber":2,"parameterNumberName":"U-component_of_WINDS"},"data":[0.0,0.0,0.0,0.0,0.0,0.0,0.0,0.0,0.0,0.0,0.0,0.0,0.0,0.0,0.0,0.0,0.0,0.0,0.0,0.0,0.0,0.0,0.0,0.0,0.0,0.0,0.0,0.0,0.0,0.0,0.0,0.0,0.0,0.0,0.0,0.0,0.0,0.0,0.0,0.0,0.0,0.0,0.0,0.0,0.0,0.0,0.0,0.0,0.0,0.0,0.0,0.0,0.0,0.0,0.0,0.0,0.0,0.0,0.0,0.0,0.0,0.0,0.0,0.0,0.0,0.0,0.0,0.0,0.0,0.0,0.0,0.0,0.0,0.0,0.0,0.0,0.0,0.0,0.0,0.0,0.0,0.0,0.0,0.0,0.0,0.0,0.0,0.0,0.0,0.0,0.0,0.0,0.0,0.0,0.0,0.0,0.0,0.0,0.0,0.0,0.0,0.0,0.0,0.0,0.0,0.0,0.0,0.0,0.0,0.0,0.0,0.0,0.0,0.0,0.0,0.0,0.0,0.0,0.0,0.0,0.0,0.0,0.0,0.0,0.0,0.0,0.0,0.0,0.0,0.0,0.0,0.0,0.0,0.0,0.0,0.0,0.0,0.0,0.0,0.0,0.0,0.0,0.0,0.0,0.0,0.0,0.0,0.0,0.0,0.0,0.0,0.0,0.0,0.0,0.0,0.0,0.0,0.0,0.0,0.0,0.0,0.0,0.0,0.0,0.0,0.0,0.0,0.0,0.0,0.0,0.0,0.0,0.0,0.0,0.0,0.0,0.0,0.0,0.0,0.0,0.0,0.0,0.0,0.0,0.0,0.0,0.0,0.0,0.0,0.0,0.0,0.0,0.0,0.0,0.0,0.0,0.0,0.0,0.0,0.0,0.0,0.0,0.0,0.0,0.0,0.0,0.0,0.0,0.0,0.0,0.0,0.0,0.0,0.0,0.0,0.0,0.0,0.0,0.0,0.0,0.0,0.0,0.0,0.0,0.0,0.0,0.0,0.0,0.0,0.0,0.0,0.0,0.0,0.0,0.0,0.0,0.0,0.0,0.0,0.0,0.0,0.0,0.0,0.0,0.0,0.0,0.0,0.0,0.0,0.0,0.0,0.0,0.0,0.0,0.0,0.0,0.0,0.0,0.0,0.0,0.0,0.0,0.0,0.0,0.0,0.0,0.0,0.0,0.0,0.0,0.0,0.0,0.0,0.0,0.0,0.0,0.0,0.0,0.0,0.0,0.0,0.0,0.0,0.0,0.0,0.0,0.0,0.0,0.0,0.0,0.0,0.0,0.0,0.0,0.0,0.0,0.0,0.0,0.0,0.0,0.0,0.0,0.0,0.0,0.0,0.0,0.0,0.0,0.0,0.0,0.0,0.0,0.0,0.0,0.0,0.0,0.0,0.0,0.0,0.0,0.0,0.0,0.0,0.0,0.0,0.0,0.0,0.0,0.0,0.0,0.0,0.0,0.0,0.0,0.0,0.0,0.0,0.0,0.0,0.0,0.0,0.0,0.0,0.0,0.0,0.0,0.0,0.0,0.0,0.0,0.0,0.0,0.0,0.0,0.0,0.0,0.0,0.0,0.0,0.0,0.0,0.0,0.0,0.0,0.0,0.0,0.0,0.0,0.0,0.0,0.0,0.0,0.0,0.0,0.0,0.0,0.0,0.0,0.0,0.0,0.0,0.0,0.0,0.0,0.0,0.0,0.0,0.0,0.0,0.0,0.0,0.0,0.0,0.0,0.0,0.0,0.0,0.0,0.0,0.0,0.0,0.0,0.0,0.0,0.0,0.0,0.0,0.0,0.0,0.0,0.0,0.0,0.0,0.0,0.0,0.0,0.0,0.0,0.0,0.0,0.0,0.0,0.0,0.0,0.0,0.0,0.0,0.0,0.0,0.0,0.0,0.0,0.0,0.0,0.0,0.0,0.0,0.0,0.0,0.0,0.0,0.0,0.0,0.0,0.0,0.0,0.0,0.0,0.0,0.0,0.0,0.0,0.0,0.0,0.0,0.0,0.0,0.0,0.0,0.0,0.0,0.0,0.0,0.0,0.0,0.0,0.0,0.0,0.0,0.0,0.0,0.0,0.0,0.0,0.0,0.0,0.0,0.0,0.0,0.0,0.0,0.0,0.0,0.0,0.0,0.0,0.0,0.0,0.0,0.0,0.0,0.0,0.0,0.0,0.0,0.0,0.0,0.0,0.0,0.0,0.0,0.0,0.0,0.0,0.0,0.0,0.0,0.0,0.0,0.0,0.0,0.0,0.0,0.0,0.0,0.0,0.0,0.0,0.0,0.0,0.0,0.0,0.0,0.0,0.0,0.0,0.0,0.0,0.0,0.0,0.0,0.0,0.0,0.0,0.0,0.0,0.0,0.0,0.0,0.0,0.0,0.0,0.0,0.0,0.0,0.0,0.0,0.0,0.0,0.0,0.0,0.0,0.0,0.0,0.0,0.0,0.0,0.0,0.0,0.0,0.0,0.0,0.0,0.0,0.0,0.0,0.0,0.0,0.0,0.0,0.0,0.0,0.0,0.0,0.0,0.0,0.0,0.0,0.0,0.0,0.0,0.0,0.0,0.0,0.0,0.0,0.0,0.0,0.0,0.0,0.0,0.0,0.0,0.0,0.0,0.0,0.0,0.0,0.0,0.0,0.0,0.0,0.0,0.0,0.0,0.0,0.0,0.0,0.0,0.0,0.0,0.0,0.0,0.0,0.0,0.0,0.0,0.0,0.0,0.0,0.0,0.0,0.0,0.0,0.0,0.0,0.0,0.0,0.0,0.0,0.0,0.0,0.0,0.0,0.0,0.0,0.0,0.0,0.0,0.0,0.0,0.0,0.0,0.0,0.0,0.0,0.0,0.0,0.0,0.0,0.0,0.0,0.0,0.0,0.0,0.0,0.0,0.0,0.0,0.0,0.0,0.0,0.0,0.0,0.0,0.0,0.0,0.0,0.0,0.0,0.0,0.0,0.0,0.0,0.0,0.0,0.0,0.0,0.0,0.0,0.0,0.0,0.0,0.0,0.0,0.0,0.0,0.0,0.0,0.0,0.0,0.0,0.0,0.0,0.0,0.0,0.0,0.0,0.0,0.0,0.0,0.0,0.0,0.0,0.0,0.0,0.0,0.0,0.0,0.0,0.0,0.0,0.0,0.0,0.0,0.0,0.0,0.0,0.0,0.0,0.0,0.0,0.0,0.0,0.0,0.0,0.0,0.0,0.0,0.0,0.0,0.0,0.0,0.0,0.0,0.0,0.0,0.0,0.0,0.0,0.0,0.0,0.0,0.0,0.0,0.0,0.0,0.0,0.0,0.0,0.0,0.0,0.0,0.0,0.0,0.0,0.0,0.0,0.0,0.0,0.0,0.0,0.0,0.0,0.0,0.0,0.0,0.0,0.0,0.0,0.0,0.0,0.0,0.0,0.0,0.0,0.0,0.0,0.0,0.0,0.0,0.0,0.0,0.0,0.0,0.0,0.0,0.0,0.0,0.0,0.0,0.0,0.0,0.0,0.0,0.0,0.0,0.0,0.0,0.0,0.0,0.0,0.0,0.0,0.0,0.0,0.0,0.0,0.0,0.0,0.0,0.0,0.0,0.0,0.0,0.0,0.0,0.0,0.0,0.0,0.0,0.0,0.0,0.0,0.0,0.0,0.0,0.0,0.0,0.0,0.0,0.0,0.0,0.0,0.0,0.0,0.0,0.0,0.0,0.0,0.0,0.0,0.0,0.0,0.0,0.0,0.0,0.0,0.0,0.0,0.0,0.0,0.0,0.0,0.0,0.0,0.0,0.0,0.0,0.0,0.0,0.0,0.0,0.0,0.0,0.0,0.0,0.0,0.0,0.0,0.0,0.0,0.0,0.0,0.0,0.0,0.0,0.0,0.0,0.0,0.0,0.0,0.0,0.0,0.0,0.0,0.0,0.0,0.0,0.0,0.0,0.0,0.0,0.0,0.0,0.0,0.0,0.0,0.0,0.0,0.0,0.0,0.0,0.0,0.0,0.0,0.0,0.0,0.0,0.0,0.0,0.0,0.0,0.0,0.0,0.0,0.0,0.0,0.0,0.0,0.0,0.0,0.0,0.0,0.0,0.0,0.0,0.0,0.0,0.0,0.0,0.0,0.0,0.0,0.0,0.0,0.0,0.0,0.0,0.0,0.0,0.0,0.0,0.0,0.0,0.0,0.0,0.0,0.0,0.0,0.0,0.0,0.0,0.0,0.0,0.0,0.0,0.0,0.0,0.0,0.0,0.0,0.0,0.0,0.0,0.0,0.0,0.0,0.0,0.0,0.0,0.0,0.0,0.0,0.0,0.0,0.0,0.0,0.0,0.0,0.0,0.0,0.0,0.0,0.0,0.0,0.0,0.0,0.0,0.0,0.0,0.0,0.0,0.0,0.0,0.0,0.0,0.0,0.0,0.0,0.0,0.0,0.0,0.0,0.0,0.0,0.0,0.0,0.0,0.0,0.0,0.0,0.0,0.0,0.0,0.0,0.0,0.0,0.0,0.0,0.0,0.0,0.0,0.0,0.0,0.0,0.0,0.0,0.0,0.0,0.0,0.0,0.0,0.0,0.0,0.0,0.0,0.0,0.0,0.0,0.0,0.0,0.0,0.0,0.0,0.0,0.0,0.0,0.0,0.0,0.0,0.0,0.0,0.0,0.0,0.0,0.0,0.0,0.0,0.0,0.0,0.0,0.0,0.0,0.0,0.0,0.0,0.0,0.0,0.0,0.0,0.0,0.0,0.0,0.0,0.0,0.0,0.0,0.0,0.0,0.0,0.0,0.0,0.0,0.0,0.0,0.0,0.0,0.0,0.0,0.0,0.0,0.0,0.0,0.0,0.0,0.0,0.0,0.0,0.0,0.0,0.0,0.0,0.0,0.0,0.0,0.0,0.0,0.0,0.0,0.0,0.0,0.0,0.0,0.0,0.0,0.0,0.0,0.0,0.0,0.0,0.0,0.0,0.0,0.0,0.0,0.0,0.0,0.0,0.0,0.0,0.0,0.0,0.0,0.0,0.0,0.0,0.0,0.0,0.0,0.0,0.0,0.0,0.0,0.0,0.0,0.0,0.0,0.0,0.0,0.0,0.0,0.0,0.0,0.0,0.0,0.0,0.0,0.0,0.0,0.0,0.0,0.0,0.0,0.0,0.0,0.0,0.0,0.0,0.0,0.0,0.0,0.0,0.0,0.0,0.0,0.0,0.0,0.0,0.0,0.0,0.0,0.0,0.0,0.0,0.0,0.0,0.0,0.0,0.0,0.0,0.0,0.0,0.0,0.0,0.0,0.0,0.0,0.0,0.0,0.0,0.0,0.0,0.0,0.0,0.0,0.0,0.0,0.0,0.0,0.0,0.0,0.0,0.0,0.0,0.0,0.0,0.0,0.0,0.0,0.0,0.0,0.0,0.0,0.0,0.0,0.0,0.0,0.0,0.0,0.0,0.0,0.0,0.0,0.0,0.0,0.0,0.0,0.0,0.0,0.0,0.0,0.0,0.0,0.0,0.0,0.0,0.0,0.0,0.0,0.0,0.0,0.0,0.0,0.0,0.0,0.0,0.0,0.0,0.0,0.0,0.0,0.0,0.0,0.0,0.0,0.0,0.0,0.0,0.0,0.0,0.0,0.0,0.0,0.0,0.0,0.0,0.0,0.0,0.0,0.0,0.0,0.0,0.0,0.0,0.0,0.0,0.0,0.0,0.0,0.0,0.0,0.0,0.0,0.0,0.0,0.0,0.0,0.0,0.0,0.0,0.0,0.0,0.0,0.0,0.0,0.0,0.0,0.0,0.0,0.0,0.0,0.0,0.0,0.0,0.0,0.0,0.0,0.0,0.0,0.0,0.0,0.0,0.0,0.0,0.0,0.0,0.0,0.0,0.0,0.0,0.0,0.0,0.0,0.0,0.0,0.0,0.0,0.0,0.0,0.0,0.0,0.0,0.0,0.0,0.0,0.0,0.0,0.0,0.0,0.0,0.0,0.0,0.0,0.0,0.0,0.0,0.0,0.0,0.0,0.0,0.0,0.0,0.0,0.0,0.0,0.0,0.0,0.0,0.0,0.0,0.0,0.0,0.0,0.0,0.0,0.0,0.0,0.0,0.0,-1.3318,0.0,0.0,0.0,0.0,0.0,0.0,0.0,0.0,0.0,0.0,0.0,0.0,0.0,0.0,0.0,0.0,0.0,0.0,0.0,0.0,0.0,0.0,0.0,0.0,-1.0174,-1.0409,-1.0376,-1.0376,-1.0381,-1.0372,0.0,0.0,0.0,0.0,0.0,-0.9212,-0.9551,-0.9767,-0.9867,-1.0434,-1.0865,-1.1175,-1.1144,-1.0696,-0.989,0.0,0.0,0.0,0.0,0.0,0.0,0.0,0.0,0.0,0.0,0.0,0.0,0.0,0.0,0.0,0.0,0.0,0.0,0.0,0.0,0.0,0.0,0.0,0.0,0.0,0.0,0.0,0.0,0.0,0.0,0.0,0.0,0.0,0.0,0.0,0.0,0.0,0.0,0.0,0.0,0.0,0.0,0.0,0.0,0.0,0.0,0.0,0.0,0.0,0.0,0.0,0.0,0.0,0.0,0.0,0.0,0.0,0.0,0.0,0.0,0.0,0.0,0.0,0.0,0.0,0.0,0.0,0.0,0.0,0.0,0.0,-1.45,0.0,0.0,0.0,0.0,0.0,0.0,0.0,0.0,0.0,0.0,0.0,0.0,0.0,0.0,0.0,0.0,0.0,0.0,0.0,0.0,0.0,-0.9806,-0.985,-1.0509,-1.1047,-1.1292,-1.1185,-1.1154,-1.1291,0.0,0.0,0.0,0.0,-0.9301,-0.9363,-0.9955,-1.0557,-1.1126,-1.1899,-1.2836,-1.3949,-1.4433,0.0,0.0,-1.2023,0.0,0.0,0.0,0.0,0.0,0.0,0.0,0.0,0.0,0.0,0.0,0.0,0.0,0.0,0.0,0.0,0.0,0.0,0.0,0.0,0.0,0.0,0.0,0.0,0.0,0.0,0.0,0.0,0.0,0.0,0.0,0.0,0.0,0.0,0.0,0.0,0.0,0.0,0.0,0.0,0.0,0.0,0.0,0.0,0.0,0.0,0.0,0.0,0.0,0.0,0.0,0.0,0.0,0.0,0.0,0.0,0.0,0.0,0.0,0.0,0.0,0.0,0.0,-1.8485,-1.9326,-1.9981,-2.0007,-2.0073,-2.0091,-1.7735,-1.6798,-1.6839,-1.5661,0.0,0.0,0.0,0.0,0.0,0.0,0.0,0.0,0.0,0.0,0.0,0.0,0.0,0.0,0.0,0.0,0.0,0.0,0.0,-0.9905,-1.0426,-1.0647,-1.1234,-1.2465,-1.1925,-1.1789,-1.2431,0.0,0.0,0.0,-0.954,-0.9447,-0.9972,-1.0086,-1.0757,-1.2023,-1.3454,-1.5081,-1.6837,0.0,0.0,0.0,-1.5084,-1.401,0.0,0.0,0.0,0.0,0.0,0.0,0.0,0.0,0.0,0.0,0.0,0.0,0.0,0.0,0.0,0.0,0.0,0.0,0.0,0.0,0.0,0.0,0.0,0.0,0.0,0.0,0.0,0.0,0.0,0.0,0.0,0.0,0.0,0.0,0.0,0.0,0.0,0.0,0.0,0.0,0.0,0.0,-1.0932,-1.1693,0.0,0.0,0.0,0.0,0.0,0.0,0.0,0.0,0.0,0.0,0.0,0.0,0.0,-1.8495,-1.956,-2.0508,-2.0937,-2.0785,-2.1734,-2.2234,-2.2286,-2.2379,-2.2233,-2.1859,-2.1615,0.0,-1.8594,-1.7478,0.0,0.0,0.0,0.0,0.0,0.0,0.0,0.0,0.0,0.0,0.0,0.0,0.0,0.0,0.0,0.0,0.0,0.0,0.0,0.0,0.0,-1.2478,-1.3604,-1.4111,-1.4752,-1.469,0.0,0.0,0.0,-1.0923,-1.0561,-1.05,-1.0781,-1.1586,-1.304,-1.5171,-1.695,-1.8242,0.0,0.0,0.0,0.0,0.0,0.0,0.0,0.0,0.0,0.0,0.0,0.0,0.0,0.0,0.0,0.0,0.0,0.0,0.0,0.0,0.0,0.0,0.0,0.0,0.0,0.0,0.0,0.0,0.0,0.0,0.0,0.0,0.0,0.0,0.0,0.0,0.0,0.0,0.0,0.0,0.0,0.0,0.0,0.0,0.0,0.0,0.0,-1.0741,-1.2252,-1.3067,-1.3216,-1.3042,0.0,0.0,0.0,0.0,0.0,0.0,0.0,0.0,0.0,-2.0037,-2.0444,-2.1108,-2.214,-2.2947,-2.3306,-2.3192,-2.392,-2.4282,-2.4328,-2.44,-2.437,-2.4253,-2.4105,-2.3055,-2.1355,-1.9862,-1.8568,-1.7488,0.0,0.0,0.0,0.0,-1.612,-1.6606,0.0,0.0,0.0,0.0,0.0,0.0,0.0,0.0,0.0,0.0,0.0,0.0,-1.2211,-1.4104,-1.5541,-1.6182,0.0,0.0,0.0,0.0,0.0,-1.1968,-1.1493,-1.1445,-1.1821,-1.3666,-1.5728,0.0,0.0,0.0,0.0,0.0,0.0,0.0,0.0,0.0,0.0,0.0,0.0,0.0,0.0,0.0,0.0,0.0,0.0,0.0,0.0,0.0,0.0,0.0,0.0,0.0,0.0,0.0,0.0,0.0,0.0,0.0,0.0,0.0,0.0,0.0,0.0,0.0,0.0,0.0,0.0,0.0,0.0,0.0,0.0,0.0,0.0,0.0,0.0,0.0,0.0,-1.2061,-1.3504,-1.4206,-1.4541,-1.4587,0.0,0.0,0.0,0.0,0.0,0.0,-1.8819,-1.9423,-2.0616,-2.2564,-2.292,-2.3472,-2.4323,-2.4889,-2.5158,-2.5171,-2.5638,-2.5959,-2.6144,-2.6237,-2.6298,-2.6356,-2.6065,-2.5319,-2.4123,-2.1982,-2.0412,-1.9308,-1.8807,-1.8367,-1.8053,-1.8455,-1.8706,-1.9007,0.0,0.0,0.0,0.0,0.0,0.0,0.0,0.0,0.0,0.0,0.0,-1.148,0.0,0.0,0.0,0.0,0.0,0.0,0.0,0.0,0.0,-1.3301,-1.1953,-1.1868,-1.3251,-1.6163,0.0,0.0,0.0,0.0,0.0,0.0,0.0,0.0,0.0,0.0,0.0,0.0,0.0,0.0,0.0,0.0,0.0,0.0,0.0,0.0,0.0,0.0,0.0,0.0,0.0,0.0,0.0,0.0,0.0,0.0,0.0,0.0,0.0,0.0,0.0,0.0,0.0,0.0,0.0,0.0,0.0,0.0,0.0,0.0,0.0,0.0,0.0,0.0,0.0,0.0,0.0,0.0,0.0,-1.5303,-1.6113,0.0,0.0,0.0,0.0,-1.8406,-1.9048,-2.005,-2.1519,-2.218,-2.3218,-2.48,-2.5382,-2.602,-2.6627,-2.6651,-2.6691,-2.6691,-2.704,-2.7337,-2.7603,-2.7923,-2.7938,-2.7691,-2.7691,-2.7296,-2.6478,-2.346,-2.1456,-2.0287,-1.9897,-1.9698,-1.9685,-1.971,-2.0075,-2.0578,0.0,0.0,0.0,-0.8874,-0.8765,-0.8714,-0.8795,-0.8863,-0.9179,-0.9974,-1.105,0.0,0.0,0.0,0.0,0.0,0.0,0.0,0.0,0.0,0.0,-1.5598,-1.4627,-1.5009,-1.6961,-1.8477,0.0,0.0,0.0,0.0,0.0,0.0,0.0,0.0,0.0,0.0,0.0,0.0,0.0,0.0,0.0,0.0,0.0,0.0,0.0,0.0,0.0,0.0,0.0,0.0,0.0,0.0,0.0,0.0,0.0,0.0,0.0,0.0,0.0,0.0,0.0,0.0,0.0,0.0,0.0,0.0,0.0,0.0,0.0,0.0,0.0,0.0,0.0,0.0,0.0,0.0,0.0,0.0,0.0,-1.8006,-1.9084,0.0,-1.8777,-1.9254,-1.993,-2.0642,-2.1437,-2.2509,-2.3797,-2.4444,-2.5378,-2.6714,-2.6945,-2.7352,-2.7949,-2.7963,-2.7963,-2.7963,-2.8075,-2.8187,-2.8281,-2.8405,-2.8529,-2.8622,-2.8405,-2.8061,-2.7469,-2.5809,-2.4645,-2.3769,-2.2441,-2.1917,-2.1879,-2.1543,-2.1543,-2.1782,-0.8958,-0.8897,0.0,-0.877,-0.8648,-0.8583,-0.8648,-0.8928,-0.9522,-1.0578,-1.2158,0.0,0.0,0.0,0.0,0.0,0.0,0.0,0.0,0.0,-1.6934,-1.6805,-1.6595,-1.7367,-1.9297,0.0,0.0,0.0,0.0,0.0,0.0,0.0,0.0,0.0,0.0,0.0,0.0,0.0,0.0,0.0,0.0,0.0,-1.5568,0.0,0.0,0.0,0.0,0.0,0.0,0.0,0.0,0.0,0.0,0.0,0.0,0.0,0.0,0.0,0.0,0.0,0.0,0.0,0.0,0.0,0.0,0.0,0.0,0.0,0.0,0.0,0.0,0.0,0.0,0.0,0.0,0.0,0.0,0.0,-1.9086,-2.0117,-2.1324,-2.1793,-2.1147,-2.1852,-2.2605,-2.3138,-2.3959,-2.476,-2.5546,-2.6185,-2.6877,-2.7678,-2.7908,-2.8193,-2.8587,-2.8587,-2.8587,-2.8587,-2.8812,-2.894,-2.894,-2.918,-2.9401,-2.9588,-2.9369,-2.9118,-2.8803,-2.7732,-2.7059,-2.6501,-2.446,-2.3672,-2.3634,-2.3258,-2.312,-2.3183,-0.8897,-0.8891,-0.8852,-0.8715,-0.8691,-0.8672,-0.8612,-0.9278,-1.0354,-1.1896,0.0,0.0,0.0,0.0,0.0,0.0,0.0,0.0,0.0,0.0,-1.6812,-1.6863,-1.7687,-1.8734,-2.0035,0.0,0.0,0.0,0.0,0.0,0.0,0.0,0.0,0.0,0.0,0.0,0.0,0.0,0.0,0.0,0.0,0.0,-1.7999,0.0,0.0,0.0,0.0,0.0,0.0,0.0,0.0,0.0,0.0,0.0,0.0,0.0,0.0,0.0,0.0,0.0,0.0,0.0,0.0,0.0,0.0,0.0,0.0,0.0,0.0,0.0,0.0,0.0,0.0,0.0,0.0,0.0,-1.7597,-1.9297,-2.0856,-2.1527,-2.267,-2.3361,-2.3296,-2.4543,-2.5514,-2.5885,-2.6497,-2.685,-2.682,-2.742,-2.7746,-2.7773,-2.8315,-2.8627,-2.8627,-2.8641,-2.8627,-2.8619,-2.9285,-2.9585,-2.9602,-3.028,-3.0568,-3.0568,-3.0568,-3.0568,-3.0477,-2.9079,-2.8492,-2.8223,-2.5788,-2.4813,-2.4813,-2.48,-2.4788,-2.4788,-0.8897,-0.8852,-0.88,-0.8719,-0.8666,-0.8622,-0.8606,-0.9206,-1.0232,0.0,0.0,0.0,0.0,0.0,0.0,0.0,0.0,0.0,0.0,0.0,-1.7201,-1.8274,-2.0161,0.0,0.0,0.0,0.0,0.0,0.0,0.0,0.0,0.0,0.0,0.0,0.0,0.0,0.0,0.0,0.0,0.0,0.0,0.0,-1.9677,0.0,0.0,0.0,0.0,0.0,0.0,0.0,0.0,0.0,0.0,0.0,0.0,0.0,0.0,0.0,0.0,0.0,0.0,0.0,0.0,0.0,0.0,0.0,0.0,0.0,0.0,0.0,0.0,0.0,0.0,0.0,0.0,-2.052,-2.0398,-2.1979,-2.3378,-2.3903,-2.5051,-2.5658,-2.5196,-2.6128,-2.6688,-2.6565,-2.7335,-2.7708,-2.7461,-2.8017,-2.8546,-2.898,-2.919,-2.9257,-2.9257,-2.9686,-2.9469,-2.86,-2.9217,-2.943,-2.9226,-2.9432,-2.9789,-3.0233,-3.0233,-3.0097,-2.9808,-2.8889,-2.8214,-2.7637,-2.6014,-2.5385,-2.5335,-2.4926,-2.4788,-2.4788,-0.8942,-0.892,-0.8834,-0.8684,-0.8666,-0.8646,-0.8533,-0.9389,-1.0655,-1.2348,0.0,0.0,0.0,0.0,0.0,0.0,0.0,0.0,-1.9558,-1.8358,-1.8319,0.0,0.0,0.0,0.0,0.0,0.0,0.0,0.0,0.0,0.0,0.0,0.0,0.0,0.0,0.0,0.0,0.0,0.0,0.0,0.0,0.0,-2.1273,-2.0544,-1.9717,-1.8844,-1.8207,-1.769,-1.7225,-1.6588,0.0,0.0,0.0,0.0,0.0,0.0,0.0,0.0,0.0,0.0,0.0,0.0,0.0,0.0,0.0,0.0,0.0,0.0,0.0,0.0,0.0,0.0,0.0,0.0,-2.1613,-2.3091,-2.3645,-2.4371,-2.518,-2.5975,-2.6847,-2.7356,-2.7259,-2.7873,-2.8127,-2.7773,-2.8491,-2.8803,-2.8483,-2.9171,-2.9714,-3.007,-3.0084,-3.0084,-3.0084,-3.0439,-3.0174,-2.936,-2.9745,-2.9771,-2.9472,-2.9632,-2.9855,0.0,-3.0366,-3.014,-2.9546,-2.8794,-2.8117,0.0,0.0,0.0,0.0,0.0,-2.5511,-2.5511,-0.8992,-0.8998,-0.892,-0.8671,-0.8748,-0.8748,-0.8457,-0.9658,-1.1186,-1.2857,0.0,0.0,0.0,0.0,0.0,0.0,0.0,0.0,0.0,0.0,0.0,0.0,0.0,0.0,0.0,0.0,0.0,0.0,0.0,0.0,0.0,0.0,0.0,0.0,0.0,0.0,0.0,0.0,0.0,0.0,0.0,0.0,-2.2733,-2.1992,-2.1716,-2.1527,-2.0165,-1.9682,-1.9476,-1.8103,0.0,0.0,0.0,0.0,0.0,0.0,0.0,0.0,0.0,0.0,0.0,0.0,0.0,0.0,0.0,0.0,0.0,0.0,0.0,0.0,0.0,0.0,0.0,0.0,-2.3882,-2.5477,-2.6849,-2.6515,-2.6547,-2.7666,-2.811,-2.8526,-2.9053,-2.9407,-2.9474,-2.9228,-2.9725,-2.9926,-2.9664,0.0,0.0,0.0,0.0,-3.1072,-3.1072,-3.1108,-3.0877,-3.0473,-3.0576,-3.0462,-3.0159,-3.0499,-3.0556,-3.0385,-3.0942,-3.0611,-2.9659,-2.8903,-2.8151,-2.7317,-2.6714,-2.6499,-2.6499,-2.6499,-2.6499,-2.6499,-0.9002,-0.8996,-0.8958,-0.8794,-0.8919,-0.8936,-0.8606,-0.9363,-1.0541,-1.2105,-1.3656,0.0,0.0,0.0,0.0,0.0,0.0,0.0,0.0,0.0,0.0,0.0,0.0,0.0,0.0,0.0,0.0,0.0,0.0,0.0,0.0,0.0,0.0,0.0,0.0,0.0,0.0,0.0,0.0,0.0,0.0,0.0,-2.3509,-2.2767,-2.2492,-2.244,-2.2147,-2.2044,-2.2009,-2.1699,-2.0773,-1.9688,-1.9407,0.0,0.0,0.0,0.0,0.0,0.0,0.0,0.0,0.0,0.0,0.0,0.0,0.0,0.0,0.0,0.0,0.0,0.0,0.0,0.0,-2.466,-2.5807,-2.6852,-2.8157,-2.8229,-2.8244,-2.8463,-2.8757,-2.8967,-2.9096,-2.9407,-2.9656,-2.9822,-3.016,-3.0485,-3.0634,-3.1107,-3.1601,-3.2092,-3.2106,-3.2106,-3.2106,-3.2284,-3.1826,-3.0807,0.0,0.0,-3.1128,-3.1523,-3.1836,-3.2055,-3.2153,-3.1489,-3.0259,-2.958,-2.8272,-2.6692,-2.6555,-2.6499,-2.6499,-2.6499,-2.6499,-2.6499,-0.9056,-0.9018,-0.8974,-0.8875,-0.8969,-0.8963,-0.8742,-0.9351,-1.0419,-1.1983,-1.3049,0.0,0.0,0.0,0.0,0.0,0.0,0.0,0.0,0.0,0.0,0.0,0.0,0.0,0.0,0.0,0.0,0.0,0.0,0.0,0.0,0.0,0.0,0.0,0.0,0.0,0.0,0.0,0.0,0.0,0.0,0.0,-2.4319,-2.3543,-2.3026,-2.2685,-2.2504,-2.2446,-2.2419,-2.2284,-2.1738,-2.1019,-2.063,-1.9462,-1.8017,0.0,0.0,0.0,0.0,0.0,0.0,0.0,0.0,0.0,0.0,0.0,0.0,0.0,0.0,-2.0596,0.0,0.0,-2.4515,-2.6445,-2.7302,-2.8071,-2.9015,-2.9145,-2.9145,-2.9145,-2.9276,-2.9476,-2.9822,-3.0274,-3.0557,-3.0506,-3.1241,-3.1688,-3.1642,-3.2289,-3.2783,-3.3081,-3.3095,-3.3095,-3.3095,-3.3185,-3.2856,-3.2117,-3.2288,-3.2221,-3.1893,-3.2108,-3.2202,-3.227,-3.2587,-3.205,-3.0891,-2.9503,-2.7973,-2.6499,-2.6499,-2.6499,-2.6499,-2.6499,-2.6499,-2.6499,-0.9104,-0.9051,-0.8974,-0.8908,-0.8957,-0.8957,-0.8823,-0.9331,-1.0293,-1.1881,-1.2597,-1.3587,-1.5225,-1.5586,-1.5836,0.0,0.0,0.0,0.0,0.0,0.0,0.0,0.0,0.0,0.0,0.0,0.0,0.0,0.0,0.0,0.0,0.0,0.0,0.0,0.0,0.0,0.0,0.0,0.0,0.0,0.0,0.0,-2.4936,-2.4284,-2.3474,-2.2655,-2.2392,-2.2221,-2.2064,-2.1919,-2.183,-2.1659,-2.1019,-2.0362,-1.9548,-1.8243,-1.7512,0.0,0.0,0.0,0.0,0.0,0.0,0.0,0.0,0.0,-1.9738,-2.1422,-2.2178,-2.3107,-2.4921,-2.5672,-2.6445,-2.784,-2.8521,-2.9087,-2.9726,-2.9784,-2.9784,-2.9784,-2.9784,-3.0016,-3.0554,-3.1087,-3.1337,-3.12,-3.2254,-3.2867,-3.2661,-3.3465,-3.3908,-3.3908,-3.3908,-3.3908,-3.3908,-3.3839,-3.3667,-3.3409,-3.3223,-3.2981,-3.2676,-3.2744,-3.2677,-3.2499,-3.2853,-3.2511,-3.1522,-2.972,-2.8129,-2.6878,-2.6844,-2.6725,-2.6499,-2.6499,-2.6499,-2.6499,-0.9104,-0.905,-0.8979,-0.8908,-0.8957,-0.8957,-0.8823,-0.8976,-0.9633,-1.1124,-1.1992,-1.3045,-1.4554,-1.5303,-1.6287,-1.772,0.0,0.0,0.0,0.0,0.0,0.0,0.0,0.0,0.0,0.0,0.0,0.0,0.0,0.0,0.0,0.0,0.0,0.0,0.0,0.0,0.0,0.0,0.0,0.0,0.0,0.0,-2.4988,-2.4902,-2.3957,-2.2699,-2.2659,-2.2229,-2.1726,-2.2044,-2.1925,-2.1622,-2.1657,-2.1323,-2.078,-2.0086,0.0,-1.7891,-1.7588,-1.7966,0.0,-1.965,-2.0183,-2.105,0.0,0.0,-2.2788,-2.4167,-2.4486,-2.4911,-2.6315,-2.6646,-2.7273,-2.9087,-2.9436,-2.974,-3.0409,-3.0496,-3.0496,-3.0496,-3.0496,-3.0525,-3.0598,-3.0888,-3.1257,-3.175,-3.253,-3.3187,-3.3642,-3.4085,-3.4346,-3.4346,-3.4346,-3.4346,-3.4346,-3.3991,-3.377,-3.3736,-3.3734,-3.3705,-3.3671,-3.4027,-3.4168,-3.41,-3.3641,-3.2987,-3.2227,-3.1327,-2.9869,-2.8173,-2.8105,-2.7443,-2.6499,-2.6499,-2.6499,-2.6499,-0.8985,-0.8902,-0.8813,-0.8795,-0.8913,-0.8984,-0.8925,-0.8996,-0.9572,-1.1011,-1.1531,-1.2324,-1.3803,-1.4272,-1.5112,-1.6679,-1.791,0.0,0.0,0.0,0.0,0.0,0.0,0.0,0.0,0.0,0.0,0.0,0.0,0.0,0.0,0.0,0.0,0.0,0.0,0.0,0.0,0.0,0.0,0.0,0.0,0.0,-2.4718,-2.4718,-2.3747,-2.2405,-2.2405,-2.2109,0.0,0.0,-2.1551,-2.1398,-2.1258,-2.0822,-2.0283,-2.0045,-1.9825,0.0,-2.0526,0.0,0.0,0.0,-2.2848,-2.3546,-2.4491,-2.4336,-2.4273,-2.5226,-2.5705,-2.6242,-2.7171,-2.7636,-2.8274,0.0,-2.9929,-3.0263,-3.0569,-3.0248,-3.0016,-3.0016,-3.0016,-3.0161,-3.0569,-3.1372,-3.1985,-3.2245,-3.3229,-3.3922,-3.4147,-3.4312,-3.4414,-3.4414,-3.4414,-3.4414,-3.4414,-3.423,-3.4162,-3.4162,-3.4162,-3.4162,-3.4162,-3.4312,-3.4414,-3.4399,-3.4124,-3.3408,-3.2388,-3.2067,-3.0798,-2.8979,-2.8539,-2.7824,-2.704,-2.6658,-2.6499,-2.6499,-0.8897,-0.8801,-0.8697,-0.8697,-0.8818,-0.8925,-0.8919,-0.9162,-0.9783,-1.1015,-1.1432,-1.2042,-1.3107,-1.3457,-1.4048,-1.5167,-1.6856,-1.85,0.0,0.0,0.0,0.0,0.0,0.0,0.0,0.0,0.0,0.0,0.0,0.0,0.0,0.0,0.0,0.0,0.0,0.0,0.0,0.0,0.0,0.0,0.0,0.0,-2.4182,-2.4091,-2.3057,-2.1678,-2.1832,-2.1689,0.0,0.0,-2.0745,-2.0585,-2.0305,-1.9941,-1.9685,-1.9988,-2.0557,-2.1363,-2.2582,0.0,0.0,-2.4265,-2.5025,-2.5628,-2.5379,-2.5423,-2.5627,-2.5992,-2.6445,-2.6968,-2.7579,-2.8115,0.0,-2.9465,-3.0016,-3.0409,-3.0583,-3.0031,-2.9653,-2.9856,-2.9697,-2.9871,-3.0539,-3.1584,-3.2292,-3.2481,-3.3529,-3.4225,-3.4399,-3.4414,-3.4414,-3.4414,-3.4414,-3.4414,-3.4414,-3.4414,-3.4414,-3.4414,-3.4414,-3.4414,-3.4414,-3.4414,-3.4414,-3.4414,-3.4414,-3.3854,-3.2922,-3.2704,-3.1601,-2.9953,-2.9029,-2.8192,-2.7417,-2.6748,-2.6499,-2.6499,-0.8897,-0.8801,-0.8697,-0.8697,-0.8703,-0.8714,-0.8717,-0.9432,-1.0244,-1.1001,-1.1891,-1.2483,-1.2534,-1.3173,-1.3614,-1.3674,-1.5736,-1.769,-1.9223,-2.0785,0.0,0.0,0.0,0.0,0.0,0.0,0.0,0.0,0.0,0.0,0.0,0.0,0.0,0.0,0.0,0.0,0.0,0.0,0.0,0.0,0.0,0.0,-2.3391,-2.3076,-2.1827,-2.0342,-2.0924,0.0,0.0,0.0,-1.9348,-1.8943,-1.881,-1.8975,0.0,-2.0464,-2.1284,0.0,0.0,0.0,-2.4142,-2.5191,-2.6457,-2.7234,-2.6512,-2.6852,-2.7214,-2.6855,-2.6806,-2.6968,-2.7579,-2.7724,-2.8145,-2.9392,-2.961,-2.9871,-3.0525,-3.0031,-2.9856,-3.0496,-3.0001,-2.9871,0.0,-3.1163,-3.1785,-3.2437,-3.3122,-3.3794,-3.4385,-3.4414,-3.4414,-3.4414,-3.4414,-3.4414,-3.4414,-3.4414,-3.4414,-3.4414,-3.4414,-3.4414,-3.4414,-3.4414,-3.4414,-3.4414,-3.4414,-3.4366,-3.4269,-3.3492,-3.2483,-3.1301,-2.9827,-2.8559,-2.7417,-2.6748,-2.6499,-2.6499,-0.865,-0.8528,-0.8434,-0.8434,-0.8434,-0.8428,-0.8438,-0.9212,-1.0078,-1.0863,-1.2163,0.0,0.0,0.0,0.0,0.0,-1.5994,-1.7449,-1.851,-2.0458,0.0,0.0,0.0,0.0,0.0,0.0,0.0,0.0,0.0,0.0,0.0,0.0,0.0,0.0,0.0,0.0,0.0,0.0,0.0,0.0,0.0,0.0,-2.3407,-2.2801,-2.1687,-2.0404,0.0,0.0,0.0,0.0,0.0,0.0,-1.9364,0.0,0.0,-2.0432,0.0,0.0,0.0,0.0,-2.6713,-2.6803,-2.786,-2.8581,-2.735,-2.7238,-2.7166,-2.6316,-2.6152,-2.6054,-2.5825,-2.6492,-2.7374,-2.8203,-2.9044,-2.9813,-3.051,-3.0423,-3.0176,-2.9972,-3.0132,0.0,0.0,0.0,0.0,-3.2469,-3.3108,-3.3779,-3.4385,-3.4414,-3.4414,-3.4414,-3.4414,-3.4414,-3.4414,-3.4414,-3.4414,-3.4414,-3.4414,-3.4414,-3.4414,-3.4414,-3.4414,-3.4414,-3.4414,-3.4414,-3.438,-3.4113,-3.3223,-3.1909,-3.0541,-2.9209,-2.7905,-2.6887,-2.6499,-2.6499,-0.8867,-0.8783,-0.8768,-0.9007,-0.9054,0.0,0.0,0.0,0.0,0.0,0.0,0.0,0.0,0.0,0.0,0.0,0.0,-1.6666,-1.77,0.0,0.0,0.0,0.0,0.0,0.0,0.0,0.0,0.0,0.0,0.0,0.0,0.0,0.0,0.0,0.0,0.0,0.0,0.0,0.0,0.0,0.0,0.0,-2.2426,-2.181,-2.0739,0.0,0.0,0.0,0.0,0.0,0.0,0.0,0.0,0.0,0.0,-2.0905,-2.2327,-2.4005,0.0,-2.7089,-2.8223,-2.8693,-2.9197,-2.9323,-2.8202,-2.7499,-2.6751,-2.565,-2.527,-2.4979,-2.4549,-2.4994,-2.5923,-2.7449,-2.8391,-2.9378,-3.0727,-3.0916,-3.0843,-3.0654,-3.0814,-3.0843,0.0,0.0,0.0,-3.2452,-3.3108,-3.3779,-3.4385,-3.4414,-3.4414,-3.4414,-3.4414,-3.4414,-3.4414,-3.4414,-3.4414,-3.4414,-3.4414,-3.4414,-3.4414,-3.4414,-3.4414,-3.4414,-3.4414,-3.423,-3.3962,-3.3962,-3.3132,-3.1765,-3.052,-2.9294,-2.8165,-2.6964,-2.6499,-2.6499,-0.9442,-0.9489,-0.9615,0.0,0.0,0.0,0.0,0.0,0.0,0.0,0.0,0.0,0.0,0.0,0.0,0.0,0.0,0.0,0.0,0.0,0.0,0.0,0.0,0.0,0.0,0.0,0.0,0.0,0.0,0.0,0.0,0.0,0.0,0.0,0.0,0.0,0.0,0.0,0.0,0.0,0.0,0.0,-2.061,-2.0189,0.0,0.0,0.0,0.0,0.0,0.0,0.0,0.0,0.0,0.0,0.0,0.0,0.0,-2.5586,-2.7563,-2.8205,-2.8774,-3.0669,-3.0398,-2.9527,-2.9007,-2.757,-2.6041,-2.4927,-2.4225,-2.3775,0.0,0.0,-2.396,-2.7101,-2.7681,-2.8623,-3.1132,-3.1524,-3.177,0.0,0.0,0.0,0.0,0.0,0.0,-3.2571,0.0,-3.3779,-3.4385,-3.4414,-3.4414,-3.4414,-3.4414,-3.4414,-3.4414,-3.4414,-3.4414,-3.4414,-3.4414,-3.4414,-3.4414,-3.4414,-3.4414,-3.4414,-3.4414,-3.3928,-3.3178,-3.3248,-3.2395,-3.0926,-2.9799,-2.8891,-2.8109,-2.6917,-2.6499,-2.6499,0.0,0.0,0.0,0.0,0.0,0.0,0.0,0.0,0.0,0.0,0.0,0.0,0.0,0.0,0.0,0.0,0.0,0.0,0.0,0.0,0.0,0.0,0.0,0.0,0.0,0.0,0.0,0.0,0.0,0.0,0.0,0.0,0.0,0.0,0.0,0.0,0.0,0.0,0.0,0.0,0.0,0.0,-1.9951,0.0,0.0,0.0,0.0,0.0,0.0,0.0,0.0,0.0,0.0,0.0,-2.3478,0.0,0.0,-2.7437,-2.7974,-2.9635,-3.1067,-3.0387,-3.0289,-2.9817,-2.7821,-2.6485,-2.5222,-2.3691,-2.2896,-2.2323,-2.183,0.0,0.0,-2.5995,-2.749,0.0,-3.1205,-3.1915,0.0,0.0,0.0,-3.2846,-3.2542,-3.2948,0.0,0.0,-3.3402,-3.3779,-3.4385,-3.4414,-3.4414,-3.4414,-3.4414,-3.4414,-3.4414,-3.4414,-3.4414,-3.4414,-3.4414,-3.4414,-3.4414,-3.4414,-3.4414,-3.4414,-3.4414,-3.3928,-3.3262,-3.3859,-3.2633,-3.0345,-3.0172,-2.9065,-2.7475,-2.6757,-2.6499,-2.6499,0.0,0.0,0.0,0.0,0.0,0.0,0.0,0.0,0.0,0.0,0.0,0.0,0.0,0.0,0.0,0.0,0.0,0.0,0.0,0.0,0.0,0.0,0.0,0.0,0.0,0.0,0.0,0.0,0.0,0.0,0.0,0.0,0.0,0.0,0.0,0.0,0.0,0.0,0.0,0.0,0.0,0.0,0.0,0.0,0.0,0.0,0.0,0.0,0.0,0.0,0.0,-2.1426,-2.2453,-2.3733,-2.5009,-2.6061,0.0,-2.8742,-2.9698,-3.0941,-3.1795,-3.0905,-3.0372,-2.9496,-2.7338,-2.5746,-2.4275,-2.2644,-2.1682,0.0,0.0,0.0,0.0,0.0,0.0,0.0,-3.1177,-3.2338,-3.3035,0.0,-3.3674,0.0,-3.3351,-3.3674,-3.3877,0.0,-3.3877,-3.4037,-3.4385,-3.4414,-3.4414,-3.4414,-3.4414,-3.4414,-3.4414,-3.4414,-3.4414,-3.4414,-3.4414,-3.4414,-3.4414,-3.4414,-3.4414,-3.4414,0.0,-3.3756,-3.2755,-3.3206,-3.2041,-2.9917,-2.9536,-2.8673,-2.7544,-2.6788,-2.6499,-2.6499,0.0,0.0,0.0,0.0,0.0,0.0,0.0,0.0,0.0,0.0,0.0,0.0,0.0,0.0,0.0,0.0,0.0,0.0,0.0,0.0,0.0,0.0,0.0,0.0,0.0,0.0,0.0,0.0,0.0,0.0,0.0,0.0,0.0,0.0,0.0,0.0,0.0,0.0,0.0,0.0,0.0,0.0,0.0,0.0,0.0,0.0,0.0,0.0,0.0,0.0,-2.2122,-2.2467,-2.3872,-2.5214,-2.6562,-2.7952,-2.8853,-2.9809,-3.177,-3.2071,-3.1787,-3.171,-3.0552,-2.8959,-2.7106,-2.5099,-2.3171,-2.1517,0.0,0.0,-1.9841,0.0,-2.1206,-2.4201,0.0,-2.7795,-3.1031,-3.2498,-3.3499,-3.4312,-3.4414,-3.4414,-3.4414,-3.4414,-3.4414,-3.4414,-3.4414,-3.4414,-3.4414,-3.4414,-3.4414,-3.4414,-3.4414,-3.4414,-3.4414,-3.4414,-3.4414,-3.4414,-3.4414,-3.4414,-3.4414,-3.4414,-3.4414,-3.4414,-3.4414,0.0,-3.2254,-3.2254,-3.1291,-2.9719,-2.8659,-2.8168,-2.7871,-2.6876,-2.6499,-2.6499,0.0,0.0,0.0,0.0,0.0,0.0,0.0,0.0,0.0,0.0,0.0,0.0,0.0,0.0,0.0,0.0,0.0,0.0,0.0,0.0,0.0,0.0,0.0,0.0,0.0,0.0,0.0,0.0,0.0,0.0,0.0,0.0,0.0,0.0,0.0,0.0,0.0,0.0,0.0,0.0,0.0,0.0,0.0,0.0,0.0,0.0,0.0,0.0,0.0,0.0,-2.3499,-2.4685,-2.6103,-2.7099,-2.8,-2.9429,-3.0306,-3.1065,-3.2038,-3.2666,-3.2767,-3.1845,-3.0593,-2.8888,-2.6255,-2.3879,0.0,0.0,0.0,-1.8744,-1.8557,-1.9798,0.0,-2.3702,0.0,0.0,0.0,0.0,-3.2498,0.0,0.0,0.0,0.0,0.0,0.0,0.0,0.0,-3.4414,-3.4414,-3.4414,-3.4414,-3.4414,-3.4414,-3.4414,-3.4414,-3.4414,-3.4414,-3.4414,-3.4414,-3.4414,-3.4414,-3.4414,-3.4414,-3.4414,-3.4414,0.0,-3.3003,-3.3003,-3.1825,-2.9993,-2.9353,-2.8418,-2.7344,-2.6738,-2.6499,-2.6499,0.0,0.0,0.0,0.0,0.0,0.0,0.0,-1.3873,-1.4584,-1.6025,-1.5912,-1.5662,0.0,0.0,0.0,0.0,0.0,0.0,0.0,0.0,0.0,0.0,0.0,0.0,0.0,0.0,0.0,0.0,0.0,0.0,0.0,0.0,0.0,0.0,0.0,0.0,0.0,0.0,0.0,0.0,0.0,0.0,0.0,0.0,0.0,0.0,0.0,0.0,0.0,0.0,-2.2959,-2.4665,-2.6088,-2.7257,-2.83,-2.9327,-3.0385,-3.1365,-3.2102,-3.2599,-3.2638,-3.1384,-3.0156,-2.8471,-2.5553,0.0,0.0,0.0,0.0,-1.8062,-1.8311,0.0,0.0,0.0,0.0,0.0,0.0,0.0,0.0,0.0,0.0,0.0,0.0,0.0,0.0,0.0,0.0,-3.4414,-3.4414,-3.4414,-3.4414,-3.4414,-3.4414,-3.4414,-3.4414,-3.4414,-3.4414,-3.4414,-3.4414,-3.4414,-3.4414,-3.4414,-3.4414,-3.4414,-3.4414,0.0,-3.3178,-3.3178,-3.1984,-3.0069,-2.9529,-2.846,-2.7253,-2.67,-2.6499,-2.6499,0.0,0.0,0.0,0.0,0.0,0.0,0.0,-1.4616,-1.5517,-1.7446,-1.7825,-1.7699,-1.7115,-1.5978,-1.5406,0.0,0.0,0.0,0.0,0.0,0.0,0.0,0.0,0.0,0.0,0.0,0.0,0.0,0.0,0.0,0.0,0.0,0.0,0.0,0.0,0.0,0.0,0.0,0.0,0.0,0.0,0.0,0.0,0.0,0.0,0.0,0.0,0.0,0.0,0.0,-2.179,-2.3288,-2.4855,-2.6404,-2.781,-2.8625,-2.9761,-3.0986,-3.2023,-3.2411,-3.2251,-3.1036,-2.9703,-2.7975,-2.5089,-2.2893,0.0,0.0,0.0,0.0,-1.8172,0.0,0.0,0.0,0.0,0.0,0.0,0.0,0.0,0.0,0.0,0.0,0.0,0.0,0.0,0.0,0.0,0.0,-3.4414,-3.4414,-3.4414,-3.4414,-3.4414,-3.4414,-3.4414,-3.4414,-3.4414,-3.4414,-3.4414,-3.4414,-3.4414,-3.4414,-3.4414,-3.4414,-3.4414,0.0,0.0,-3.3122,-3.2038,-3.0463,-2.9478,-2.845,-2.7452,-2.6757,-2.6499,-2.6499,0.0,0.0,0.0,0.0,0.0,0.0,0.0,-1.4691,-1.6051,-1.7509,-1.822,-1.8567,-1.8504,-1.7857,-1.7178,0.0,0.0,0.0,0.0,0.0,0.0,0.0,0.0,0.0,0.0,0.0,0.0,0.0,0.0,0.0,0.0,0.0,0.0,0.0,0.0,0.0,0.0,0.0,0.0,0.0,0.0,0.0,0.0,0.0,0.0,0.0,0.0,0.0,0.0,0.0,0.0,-2.0541,-2.255,-2.4571,-2.6467,-2.7794,0.0,0.0,-3.1754,-3.2313,-3.2145,-3.1347,-2.9643,-2.7545,-2.5134,0.0,0.0,0.0,-1.7501,-1.7089,-1.7507,0.0,0.0,0.0,0.0,0.0,0.0,0.0,0.0,0.0,0.0,0.0,0.0,0.0,0.0,0.0,0.0,0.0,-3.4414,-3.4414,-3.4414,-3.4414,-3.4414,-3.4414,-3.4414,-3.4414,-3.4414,-3.4414,-3.4414,-3.4414,-3.4414,-3.4414,-3.4414,-3.4414,-3.4414,0.0,0.0,-3.2911,-3.2288,-3.1833,-2.935,-2.8317,-2.8062,-2.6917,-2.6499,-2.6499,0.0,0.0,0.0,0.0,0.0,0.0,-1.4485,-1.4896,-1.5785,-1.8015,-1.8173,-1.8252,-1.8661,-1.7699,-1.6752,-1.6054,0.0,0.0,0.0,0.0,0.0,0.0,0.0,0.0,0.0,0.0,0.0,0.0,0.0,0.0,0.0,0.0,0.0,0.0,0.0,0.0,0.0,0.0,0.0,0.0,0.0,0.0,0.0,0.0,0.0,0.0,0.0,0.0,0.0,0.0,0.0,0.0,-1.9641,-2.1205,0.0,0.0,-2.7304,-2.8774,-3.0038,-3.0986,-3.1476,-3.0765,-2.9042,-2.703,-2.524,0.0,0.0,-1.8609,-1.7316,-1.6637,-1.7583,-1.7655,0.0,0.0,0.0,0.0,0.0,0.0,0.0,0.0,0.0,0.0,0.0,0.0,0.0,0.0,0.0,0.0,-3.4414,-3.4414,-3.4414,-3.4414,-3.4414,-3.4414,-3.4414,-3.4414,-3.4414,-3.4414,-3.4414,-3.4414,-3.4414,-3.4414,-3.4414,-3.4414,-3.4414,0.0,0.0,-3.3403,-3.2535,-3.1662,-3.0207,-2.8886,-2.7764,-2.7273,-2.685,-2.6499,0.0,0.0,0.0,0.0,0.0,-1.2815,-1.4691,-1.4928,-1.5659,-1.7794,-1.7857,-1.7967,-1.8629,-1.7083,-1.5896,-1.5624,-1.5165,0.0,0.0,0.0,0.0,0.0,0.0,0.0,0.0,0.0,0.0,0.0,0.0,0.0,0.0,0.0,0.0,0.0,0.0,0.0,0.0,0.0,0.0,0.0,0.0,0.0,0.0,0.0,0.0,0.0,0.0,0.0,0.0,0.0,0.0,0.0,0.0,0.0,0.0,0.0,-2.5555,-2.7367,-2.8261,-2.9525,-3.0409,-2.9738,-2.8158,-2.6404,0.0,0.0,-1.9404,-1.9088,-1.7556,-1.6667,-1.7968,-1.7813,-1.7853,0.0,-1.9275,-2.0074,0.0,0.0,0.0,0.0,0.0,0.0,0.0,0.0,0.0,0.0,0.0,0.0,0.0,-3.4414,-3.4414,-3.4414,-3.4414,-3.4414,-3.4414,-3.4414,-3.4414,-3.4414,-3.4414,-3.4414,-3.4414,-3.4414,-3.4312,-3.4124,-3.4124,0.0,0.0,-3.3166,-3.2357,-3.1432,-3.0588,-2.9242,-2.7769,-2.7571,-2.7061,-2.6499,0.0,0.0,0.0,0.0,0.0,0.0,-1.3305,-1.4707,-1.5845,-1.6531,-1.7257,-1.7967,-1.8629,-1.6259,-1.4896,-1.5545,-1.5592,0.0,0.0,0.0,0.0,0.0,0.0,0.0,0.0,0.0,0.0,0.0,0.0,0.0,0.0,0.0,0.0,0.0,0.0,0.0,0.0,0.0,0.0,0.0,0.0,0.0,0.0,0.0,0.0,0.0,0.0,0.0,0.0,0.0,0.0,0.0,0.0,0.0,0.0,0.0,-2.3354,-2.5333,-2.6735,-2.8088,-2.8956,-2.8284,-2.7067,-2.5645,0.0,-2.1204,-1.893,-1.9641,-1.8238,-1.7288,-1.8635,-1.851,-1.839,-1.8999,-1.9653,0.0,0.0,0.0,0.0,0.0,0.0,0.0,0.0,0.0,0.0,0.0,0.0,0.0,0.0,-3.4414,-3.4414,-3.4414,-3.4414,-3.4414,-3.4414,-3.4414,-3.4414,-3.4414,-3.4414,-3.4414,-3.4414,-3.4414,-3.4066,0.0,0.0,0.0,0.0,-3.1785,-3.1509,-3.1375,-3.0094,-2.9156,-2.8395,-2.7736,-2.7061,-2.6499,0.0,0.0,0.0,0.0,0.0,0.0,0.0,-1.3494,-1.3905,-1.5074,-1.4995,-1.528,-1.6449,-1.4948,-1.4137,-1.4853,-1.4469,0.0,0.0,0.0,0.0,0.0,0.0,0.0,0.0,0.0,0.0,0.0,0.0,0.0,0.0,0.0,0.0,0.0,0.0,0.0,0.0,0.0,0.0,0.0,0.0,0.0,0.0,0.0,0.0,0.0,0.0,0.0,0.0,0.0,0.0,0.0,0.0,0.0,0.0,-1.8789,0.0,0.0,-2.4535,-2.5582,-2.6251,-2.6029,-2.4922,-2.3768,-2.3307,-2.0873,-1.8838,-1.9342,-1.8099,-1.7256,-1.8399,-1.8388,-1.868,-2.0161,-2.0582,0.0,0.0,0.0,0.0,0.0,0.0,0.0,0.0,0.0,0.0,0.0,0.0,0.0,0.0,-3.4414,-3.4414,-3.4414,-3.4414,-3.4414,-3.4414,-3.4414,-3.4414,-3.4414,-3.4414,-3.4182,-3.3794,-3.3794,-3.3427,0.0,0.0,0.0,0.0,-3.177,-3.1495,-3.1422,-3.0602,-2.9532,-2.846,-2.8279,-2.7484,-2.6499,0.0,0.0,0.0,0.0,0.0,0.0,0.0,-1.2988,-1.3194,-1.4063,-1.3779,-1.4042,-1.545,-1.4122,-1.3526,-1.4505,-1.3921,0.0,0.0,0.0,0.0,0.0,0.0,0.0,0.0,0.0,0.0,0.0,0.0,0.0,0.0,0.0,0.0,0.0,0.0,0.0,0.0,0.0,0.0,0.0,0.0,0.0,-1.6246,0.0,0.0,0.0,0.0,0.0,0.0,0.0,0.0,0.0,0.0,0.0,0.0,0.0,-1.8946,-2.0684,0.0,-2.3374,-2.4076,-2.4176,-2.3211,-2.2173,-2.203,-1.9954,-1.8205,-1.8732,-1.7745,-1.7163,-1.8312,-1.835,-1.8666,-2.0059,-2.0277,0.0,0.0,0.0,0.0,0.0,0.0,0.0,0.0,0.0,0.0,0.0,0.0,0.0,0.0,-3.3897,-3.3768,-3.4051,-3.4283,-3.4414,-3.4414,-3.4414,-3.4414,-3.4414,-3.4167,-3.3848,-3.3489,-3.3256,-3.2759,0.0,0.0,0.0,0.0,-3.1337,-3.1163,-3.1119,-3.0757,-2.9732,-2.8492,-2.8492,-2.7637,-2.6499,0.0,0.0,0.0,0.0,0.0,0.0,0.0,-1.2988,-1.3368,-1.3415,-1.3431,-1.3921,-1.5244,-1.3652,-1.3036,-1.4332,0.0,0.0,0.0,0.0,0.0,0.0,0.0,0.0,0.0,0.0,0.0,0.0,-1.8741,-1.9467,-2.0778,0.0,0.0,0.0,0.0,0.0,0.0,0.0,0.0,0.0,0.0,-1.6228,0.0,0.0,0.0,0.0,0.0,0.0,0.0,0.0,0.0,0.0,0.0,0.0,0.0,0.0,0.0,0.0,0.0,-2.1379,-2.2284,-2.2508,-2.1753,-2.0799,-2.0426,-1.8592,0.0,-1.7913,-1.7285,-1.702,-1.8371,-1.8397,-1.8448,-1.9188,-1.9348,0.0,0.0,0.0,0.0,0.0,0.0,0.0,0.0,0.0,0.0,0.0,0.0,0.0,0.0,-3.2951,-3.261,-3.3332,-3.3931,-3.4269,-3.4269,-3.4269,-3.4269,-3.4269,-3.3721,-3.3402,-3.3344,-3.2716,-3.206,0.0,0.0,0.0,0.0,-3.0598,-3.0598,-3.0598,-3.0598,-2.9763,-2.8588,-2.8588,-2.7769,-2.6658,0.0,0.0,0.0,0.0,0.0,0.0,0.0,0.0,0.0,0.0,-1.2751,-1.2852,-1.3194,-1.2789,-1.2631,0.0,0.0,0.0,0.0,0.0,0.0,0.0,0.0,0.0,0.0,0.0,0.0,-1.8708,-1.9277,-1.9973,-2.0778,-2.0115,0.0,0.0,0.0,0.0,0.0,0.0,0.0,0.0,-1.6546,-1.6515,0.0,0.0,0.0,0.0,-1.661,-1.661,0.0,0.0,0.0,0.0,0.0,0.0,0.0,0.0,-1.6862,-1.7099,-1.8141,0.0,-1.9563,-1.9483,-1.9247,-1.8965,0.0,-1.7807,0.0,0.0,0.0,-1.7088,-1.8695,-1.856,-1.8883,-2.0973,0.0,0.0,0.0,0.0,0.0,0.0,0.0,0.0,0.0,0.0,0.0,0.0,0.0,0.0,0.0,-3.1828,-3.1773,-3.1952,-3.2616,-3.2962,-3.2962,-3.2962,-3.2962,-3.293,-3.2817,-3.2483,-3.1975,-3.183,-3.1409,0.0,0.0,0.0,-3.0598,-3.0598,-3.0598,-3.0598,-3.0598,-3.0085,-2.9328,-2.9328,-2.8762,-2.8019,0.0,0.0,0.0,0.0,0.0,0.0,0.0,0.0,0.0,0.0,0.0,0.0,0.0,0.0,0.0,0.0,0.0,0.0,0.0,0.0,0.0,0.0,0.0,0.0,0.0,0.0,0.0,0.0,0.0,-1.9815,0.0,0.0,0.0,0.0,0.0,0.0,0.0,0.0,0.0,0.0,-1.6483,0.0,0.0,0.0,0.0,0.0,-1.5678,-1.588,0.0,-1.6149,-1.6341,-1.661,0.0,0.0,0.0,0.0,-1.6409,-1.6406,-1.6808,-1.7819,-1.8826,-1.9183,-1.8786,-1.8311,-1.8329,0.0,0.0,0.0,0.0,0.0,-1.8001,0.0,0.0,0.0,0.0,0.0,0.0,0.0,0.0,0.0,0.0,0.0,0.0,0.0,0.0,0.0,0.0,0.0,0.0,-3.0331,-3.0339,-3.1026,-3.1112,-3.1619,-3.2481,-3.2481,-3.2481,-3.2481,-3.2176,-3.1843,-3.148,-3.1221,-3.0901,0.0,0.0,0.0,-3.0598,-3.0598,-3.0598,-3.0598,-3.0598,-3.019,-2.9591,-2.9591,-2.9125,-2.8492,0.0,0.0,0.0,0.0,0.0,0.0,0.0,0.0,0.0,0.0,0.0,0.0,0.0,0.0,0.0,0.0,0.0,0.0,0.0,0.0,0.0,0.0,0.0,0.0,0.0,0.0,0.0,0.0,0.0,0.0,0.0,0.0,0.0,0.0,0.0,0.0,0.0,0.0,0.0,0.0,0.0,0.0,0.0,0.0,0.0,0.0,0.0,0.0,0.0,-1.545,-1.588,-1.6452,-1.6452,0.0,0.0,0.0,0.0,0.0,-1.6118,-1.7483,-1.9036,-1.9599,-1.8914,-1.8133,0.0,0.0,0.0,0.0,0.0,0.0,0.0,0.0,0.0,0.0,0.0,0.0,0.0,0.0,0.0,0.0,0.0,0.0,0.0,0.0,0.0,0.0,0.0,0.0,0.0,-2.8929,-2.8899,-3.0159,-2.9921,-3.0551,-3.2176,-3.2222,-3.2222,-3.2208,-3.1642,-3.1366,-3.1366,-3.0814,-3.0598,-3.0598,0.0,0.0,-3.0598,-3.0598,-3.0598,-3.0598,-3.0598,-3.0251,-2.9747,-2.9747,-2.9345,-2.8812,0.0,0.0,0.0,0.0,0.0,0.0,0.0,0.0,0.0,0.0,0.0,0.0,0.0,0.0,0.0,0.0,0.0,0.0,0.0,0.0,0.0,0.0,0.0,0.0,0.0,0.0,0.0,0.0,0.0,0.0,-1.9973,-2.0526,-2.0052,0.0,0.0,0.0,0.0,0.0,0.0,0.0,0.0,0.0,0.0,0.0,0.0,0.0,0.0,0.0,0.0,-1.4742,-1.5213,-1.575,-1.575,0.0,0.0,0.0,0.0,0.0,-1.6666,-1.8045,-1.9025,-1.7548,-1.7375,-1.7567,0.0,0.0,0.0,0.0,0.0,0.0,0.0,0.0,0.0,0.0,0.0,0.0,0.0,0.0,0.0,0.0,0.0,0.0,0.0,0.0,0.0,0.0,0.0,0.0,0.0,-2.8218,-2.8563,-2.8789,-2.9867,-3.0609,-3.0903,-3.0903,-3.0903,-3.0903,-3.0801,-3.0757,-3.0757,-3.0641,-3.0598,-3.0598,0.0,-3.0598,-3.0598,-3.0598,-3.0598,-3.0598,-3.0598,-3.0538,-3.0447,-3.0447,-3.0372,-3.0282,0.0,0.0,0.0,0.0,0.0,0.0,0.0,0.0,0.0,0.0,0.0,0.0,0.0,0.0,0.0,0.0,0.0,0.0,0.0,0.0,0.0,0.0,0.0,0.0,0.0,0.0,0.0,0.0,0.0,-1.9405,-2.0125,-1.9815,-1.9325,-1.8646,0.0,0.0,0.0,0.0,0.0,-1.652,0.0,0.0,0.0,0.0,0.0,0.0,0.0,0.0,0.0,0.0,-1.4722,-1.5592,-1.5592,0.0,0.0,0.0,0.0,0.0,-1.5579,-1.6847,-1.813,-1.7602,-1.8434,-1.929,0.0,0.0,0.0,0.0,0.0,0.0,0.0,0.0,0.0,0.0,0.0,0.0,0.0,0.0,0.0,0.0,0.0,0.0,0.0,0.0,0.0,0.0,0.0,0.0,0.0,0.0,-2.7571,-2.7953,-2.8953,-2.967,-3.0068,-3.0417,-3.0598,-3.0598,-3.0598,-3.0598,-3.0598,-3.0598,-3.0598,-3.0598,0.0,-3.0598,-3.0598,-3.0598,-3.0598,-3.0598,-3.0598,-3.0598,-3.0598,-3.0598,-3.0598,-3.0598,0.0,0.0,0.0,0.0,0.0,0.0,0.0,0.0,0.0,0.0,0.0,0.0,0.0,0.0,0.0,0.0,0.0,0.0,0.0,0.0,0.0,0.0,0.0,0.0,0.0,0.0,0.0,-1.9223,-1.9257,-1.9633,-2.0246,-1.9374,-1.8787,0.0,0.0,0.0,0.0,0.0,0.0,-1.6247,0.0,0.0,0.0,0.0,0.0,0.0,0.0,0.0,0.0,0.0,0.0,0.0,0.0,0.0,0.0,-1.5409,-1.5343,-1.5342,-1.4877,-1.595,-1.7359,0.0,0.0,0.0,0.0,0.0,0.0,0.0,0.0,0.0,0.0,0.0,0.0,0.0,0.0,0.0,0.0,0.0,0.0,0.0,0.0,0.0,0.0,0.0,0.0,0.0,0.0,0.0,0.0,0.0,-2.704,-2.7703,-2.8409,-2.9111,-2.9839,-3.0357,-3.0598,-3.0598,-3.0598,-3.0598,-3.0598,-3.0598,-3.0598,-3.0598,-3.0598,-3.0598,-3.0598,-3.0598,-3.0598,-3.0598,-3.0598,-3.0598,-3.0598,-3.0598,-3.0598,-3.0598,0.0,0.0,0.0,0.0,0.0,0.0,0.0,0.0,0.0,0.0,0.0,0.0,0.0,0.0,0.0,0.0,0.0,0.0,0.0,0.0,0.0,0.0,0.0,0.0,0.0,-1.7959,-1.8211,-1.8926,-1.9175,-1.9497,-1.9846,-1.9767,-1.9009,-1.7778,0.0,0.0,0.0,0.0,0.0,-1.5407,-1.4404,0.0,0.0,0.0,0.0,0.0,0.0,0.0,0.0,0.0,0.0,0.0,0.0,0.0,-1.5539,-1.5837,-1.5511,-1.5191,-1.5886,-1.6634,-1.7359,-1.8042,0.0,0.0,0.0,0.0,0.0,0.0,0.0,0.0,0.0,0.0,0.0,0.0,0.0,0.0,0.0,0.0,0.0,0.0,0.0,0.0,0.0,0.0,0.0,0.0,0.0,0.0,0.0,0.0,0.0,-2.8395,-2.9125,-2.9839,-3.0507,-3.0568,-3.0598,-3.0598,-3.0598,-3.0598,-3.0598,-3.0598,-3.0598,-3.0598,-3.0598,-3.0598,-3.0598,-3.0598,-3.0598,-3.0598,-3.0598,-3.0598,-3.0598,-3.0598,-3.0598,-3.0598,0.0,0.0,0.0,0.0,0.0,0.0,0.0,0.0,0.0,0.0,0.0,0.0,0.0,0.0,0.0,0.0,0.0,0.0,0.0,0.0,0.0,0.0,0.0,-1.5333,-1.6651,-1.7733,-1.8591,-1.9268,-1.9122,-1.932,-1.9767,-1.8899,0.0,0.0,0.0,0.0,0.0,0.0,0.0,0.0,-1.3785,-1.3298,0.0,0.0,0.0,0.0,0.0,0.0,0.0,0.0,-1.3329,-1.4126,-1.4154,-1.5079,-1.5952,-1.489,-1.4779,-1.5007,-1.5023,-1.6097,-1.7359,0.0,0.0,0.0,0.0,0.0,0.0,0.0,0.0,0.0,0.0,0.0,0.0,0.0,0.0,0.0,0.0,0.0,0.0,0.0,0.0,0.0,0.0,0.0,0.0,0.0,0.0,0.0,0.0,0.0,-2.7196,-2.7855,-2.8538,-2.9251,-2.9962,-3.0387,-3.0598,-3.0598,-3.0598,-3.0598,-3.0598,-3.0598,-3.0598,-3.0598,-3.0598,-3.0598,-3.0598,-3.0598,-3.0598,-3.0598,-3.0598,-3.0598,-3.0598,-3.0598,-3.0598,-3.0598,0.0,0.0,0.0,0.0,0.0,0.0,0.0,0.0,0.0,0.0,0.0,0.0,0.0,0.0,0.0,0.0,0.0,0.0,0.0,0.0,0.0,0.0,0.0,-1.4548,-1.524,-1.6908,-1.7996,-1.8455,-1.8545,-1.8727,-1.8905,0.0,0.0,0.0,0.0,0.0,0.0,0.0,0.0,0.0,-1.3362,-1.2852,0.0,0.0,0.0,0.0,0.0,0.0,0.0,0.0,-1.3118,-1.3821,-1.3668,-1.4463,-1.5223,-1.4048,-1.4268,-1.4866,-1.4672,-1.5878,-1.7417,0.0,0.0,0.0,0.0,0.0,0.0,0.0,0.0,0.0,0.0,0.0,0.0,0.0,0.0,0.0,0.0,0.0,0.0,0.0,0.0,0.0,0.0,0.0,0.0,0.0,0.0,0.0,0.0,-2.6499,-2.6905,-2.7802,-2.8279,-2.8953,-2.9901,-3.0387,-3.0598,-3.0598,-3.0598,-3.0598,-3.0598,-3.0598,-3.0598,-3.0598,-3.0598,-3.0598,-3.0598,-3.0598,-3.0598,-3.0598,-3.0598,-3.0598,-3.0598,-3.0598,-3.0598,-3.0598,0.0,0.0,0.0,0.0,0.0,0.0,0.0,0.0,0.0,0.0,0.0,0.0,0.0,0.0,0.0,0.0,0.0,0.0,0.0,0.0,0.0,0.0,0.0,-1.3657,-1.4268,-1.5515,-1.6184,-1.6213,-1.7387,-1.7638,-1.7,-1.7191,0.0,0.0,0.0,0.0,0.0,0.0,0.0,0.0,0.0,-1.2411,-1.1736,0.0,0.0,0.0,0.0,0.0,0.0,0.0,-1.2805,-1.2448,-1.3845,-1.3702,-1.3121,-1.3555,-1.4178,-1.4809,-1.5198,-1.6226,0.0,0.0,0.0,0.0,0.0,0.0,0.0,0.0,0.0,0.0,0.0,0.0,0.0,0.0,0.0,0.0,0.0,0.0,0.0,0.0,0.0,0.0,0.0,0.0,0.0,0.0,0.0,0.0,0.0,-2.6474,-2.7116,-2.8446,-2.851,-2.9146,-3.0553,-3.0583,-3.0583,-3.0583,-3.0583,-3.0598,-3.0598,-3.0598,-3.0598,-3.0598,-3.0598,-3.0598,-3.0598,-3.0598,-3.0598,-3.0598,-3.0598,-3.0598,-3.0598,-3.0598,-3.0598,-3.0598,0.0,0.0,0.0,0.0,0.0,0.0,0.0,0.0,0.0,0.0,0.0,0.0,0.0,0.0,0.0,0.0,0.0,0.0,0.0,0.0,0.0,0.0,0.0,0.0,0.0,0.0,-1.4994,-1.6542,-1.6382,-1.6337,0.0,0.0,0.0,-1.598,0.0,0.0,0.0,0.0,0.0,0.0,0.0,-1.1914,-1.1725,0.0,0.0,0.0,0.0,0.0,0.0,0.0,0.0,0.0,-1.2774,-1.3854,-1.4921,-1.326,-1.4003,-1.5329,-1.53,0.0,0.0,0.0,0.0,0.0,0.0,0.0,0.0,0.0,0.0,0.0,0.0,0.0,0.0,0.0,0.0,0.0,0.0,0.0,0.0,0.0,0.0,0.0,0.0,0.0,0.0,0.0,0.0,0.0,0.0,-2.5942,-2.6522,-2.7822,-2.7853,-2.8329,-2.9232,-2.9261,-2.9261,-2.9261,-2.9261,-2.974,-3.0598,-3.0598,-3.0598,-3.0583,-3.0103,-2.9914,-2.9914,-2.9914,-2.9914,-2.9943,-3.0423,-3.0598,-3.0598,-3.0598,-3.0598,-3.0598,0.0,0.0,0.0,0.0,0.0,0.0,0.0,0.0,0.0,0.0,0.0,0.0,0.0,0.0,0.0,0.0,0.0,0.0,0.0,0.0,0.0,0.0,0.0,0.0,0.0,-1.3061,-1.3911,0.0,0.0,0.0,0.0,0.0,0.0,-1.583,0.0,0.0,0.0,0.0,0.0,0.0,0.0,-1.1674,-1.1641,0.0,0.0,0.0,0.0,0.0,0.0,0.0,0.0,0.0,-1.2208,0.0,0.0,-1.314,-1.406,-1.5565,-1.5954,0.0,0.0,0.0,0.0,0.0,0.0,0.0,0.0,0.0,0.0,0.0,0.0,0.0,0.0,0.0,0.0,0.0,0.0,0.0,0.0,0.0,0.0,0.0,0.0,0.0,0.0,0.0,0.0,0.0,0.0,-2.6069,-2.6516,-2.7561,-2.759,-2.7953,-2.8681,-2.8709,-2.8709,-2.8709,-2.8709,-2.9101,-2.9857,-2.9857,-2.9857,-2.9828,-2.9421,-2.9247,-2.9247,-2.9247,-2.9247,-2.9276,-2.9697,-2.9857,-2.9857,-2.9857,-2.9857,-2.9857,0.0,0.0,-0.9488,-0.9488,0.0,0.0,0.0,0.0,0.0,0.0,0.0,-1.2505,0.0,0.0,0.0,-1.2002,0.0,0.0,0.0,0.0,0.0,0.0,0.0,0.0,0.0,0.0,0.0,0.0,0.0,0.0,0.0,0.0,-1.5124,-1.6097,0.0,-1.5182,0.0,0.0,0.0,0.0,-1.1855,-1.1608,-1.1511,-1.1567,0.0,0.0,0.0,0.0,0.0,0.0,0.0,0.0,-1.2044,-1.2078,-1.2309,-1.3027,-1.4253,-1.5617,0.0,0.0,0.0,0.0,0.0,0.0,0.0,0.0,0.0,0.0,0.0,0.0,0.0,0.0,0.0,0.0,0.0,0.0,0.0,0.0,0.0,0.0,0.0,0.0,0.0,0.0,0.0,0.0,0.0,0.0,0.0,-2.6535,-2.6834,-2.7523,-2.7538,-2.7854,-2.8534,-2.8534,-2.8534,-2.8534,-2.8534,-2.8534,-2.8534,-2.8651,-2.868,-2.8622,-2.8622,-2.8593,-2.8534,-2.8593,-2.8622,-2.8622,-2.868,-2.8709,-2.8709,-2.8709,-2.8709,-2.8709,0.0,0.0,-1.0176,-1.0176,0.0,0.0,0.0,0.0,0.0,-1.2426,-1.2505,-1.2505,-1.2505,-1.2292,0.0,-1.2012,-1.1794,0.0,0.0,0.0,0.0,0.0,0.0,0.0,0.0,0.0,0.0,0.0,0.0,0.0,0.0,0.0,0.0,-1.5457,0.0,-1.4253,0.0,0.0,0.0,0.0,-1.1581,-1.1523,-1.1457,-1.0947,-1.1063,0.0,0.0,0.0,0.0,0.0,0.0,0.0,-1.2044,-1.2693,-1.3284,-1.222,-1.386,0.0,0.0,0.0,0.0,0.0,0.0,0.0,0.0,0.0,0.0,0.0,0.0,0.0,0.0,0.0,0.0,0.0,0.0,0.0,0.0,0.0,0.0,0.0,0.0,0.0,0.0,0.0,0.0,0.0,0.0,0.0,-2.6022,-2.605,-2.6328,-2.6957,-2.6984,-2.7037,-2.7227,-2.7227,-2.7227,0.0,-2.7227,-2.7227,-2.7256,-2.8244,-2.8405,-2.7913,-2.7913,-2.765,-2.7256,-2.7737,-2.7913,-2.7984,-2.8477,-2.8709,-2.8709,-2.8709,-2.8709,-2.8709,0.0,0.0,0.0,0.0,0.0,0.0,0.0,0.0,-1.2062,-1.2441,-1.2505,-1.2505,-1.2505,-1.2036,0.0,0.0,-1.1563,-1.1327,0.0,0.0,0.0,0.0,0.0,0.0,0.0,0.0,0.0,0.0,0.0,0.0,0.0,0.0,0.0,-1.5689,0.0,-1.4427,0.0,0.0,0.0,-1.1474,-1.1158,-1.1017,-1.0973,-1.0633,-1.0538,-1.0587,-1.0527,0.0,0.0,0.0,0.0,0.0,0.0,0.0,-1.2784,-1.2504,-1.3773,-1.5414,0.0,0.0,0.0,0.0,0.0,0.0,0.0,0.0,0.0,0.0,0.0,0.0,0.0,0.0,0.0,0.0,0.0,0.0,0.0,0.0,0.0,0.0,0.0,0.0,0.0,0.0,0.0,0.0,0.0,-2.6015,-2.6299,-2.634,-2.6474,-2.6779,-2.6806,-2.6806,-2.6806,-2.6806,-2.6806,-2.6806,-2.6806,-2.6806,-2.6835,-2.7503,-2.7592,-2.7273,-2.7273,-2.7084,-2.6835,-2.7142,-2.7273,-2.7316,-2.7636,-2.7808,-2.7808,-2.7808,-2.7808,-2.7808,0.0,0.0,0.0,0.0,0.0,0.0,0.0,0.0,0.0,-1.2473,-1.2505,-1.2505,-1.2505,-1.1737,-1.1455,0.0,0.0,0.0,-1.1321,0.0,0.0,0.0,0.0,0.0,0.0,0.0,0.0,0.0,0.0,0.0,0.0,0.0,0.0,-1.6168,0.0,0.0,0.0,0.0,0.0,-1.1271,-1.06,-1.0343,-1.0328,-1.0223,-0.9928,-0.9657,-1.0034,-1.0314,-1.0606,-1.1313,0.0,0.0,0.0,0.0,-1.1878,-1.2804,-1.3584,-1.45,0.0,0.0,0.0,0.0,0.0,0.0,0.0,0.0,0.0,0.0,0.0,0.0,0.0,0.0,0.0,0.0,0.0,0.0,0.0,0.0,0.0,0.0,0.0,0.0,0.0,0.0,0.0,0.0,0.0,-2.6806,-2.6806,-2.6806,-2.6806,-2.6806,-2.6806,-2.6806,-2.6806,-2.6806,-2.6806,-2.6806,-2.6806,-2.6806,-2.6806,-2.6806,-2.6806,-2.6806,-2.6806,-2.6806,-2.6806,-2.6806,-2.6806,-2.6806,-2.6806,-2.6806,-2.6806,-2.6806,-2.6806,-2.6806,0.0,0.0,0.0,0.0,0.0,0.0,0.0,0.0,0.0,0.0,0.0,-1.2505,-1.2505,-1.1823,-1.1364,-1.1336,-1.0568,-1.0061,0.0,0.0,0.0,0.0,0.0,0.0,0.0,0.0,0.0,0.0,0.0,0.0,0.0,0.0,0.0,0.0,0.0,0.0,0.0,0.0,0.0,-1.0585,-0.9967,-0.9729,-0.9657,-0.9075,-0.9162,-0.9526,-0.9031,-0.9565,-1.0538,-1.0835,-1.1272,0.0,0.0,0.0,0.0,0.0,0.0,0.0,0.0,0.0,0.0,0.0,0.0,0.0,0.0,0.0,0.0,0.0,0.0,0.0,0.0,0.0,0.0,0.0,0.0,0.0,0.0,0.0,0.0,0.0,0.0,0.0,0.0,0.0,0.0,0.0,-2.6753,-2.6806,-2.6806,-2.6806,-2.6806,-2.6806,-2.6806,-2.6806,-2.6806,-2.6806,-2.6806,-2.6806,-2.6806,-2.6806,-2.6806,-2.6806,-2.6806,-2.6806,-2.6806,-2.6806,-2.6806,-2.6806,-2.6806,-2.6806,-2.6806,-2.6806,-2.6806,-2.6806,-2.6806,-2.6806,0.0,0.0,0.0,0.0,0.0,0.0,0.0,0.0,0.0,0.0,0.0,-1.2505,-1.2505,-1.151,-1.0978,-1.1277,-1.0125,0.0,0.0,0.0,0.0,0.0,0.0,0.0,0.0,0.0,0.0,0.0,0.0,0.0,0.0,-1.4471,-1.537,0.0,0.0,0.0,0.0,0.0,0.0,-1.0415,-0.9429,-0.9686,-1.0515,0.0,-0.9226,-0.9971,0.0,0.0,0.0,-1.0488,-1.1061,-1.1516,-1.1153,0.0,0.0,0.0,0.0,0.0,0.0,0.0,0.0,0.0,0.0,0.0,0.0,0.0,0.0,0.0,0.0,0.0,0.0,0.0,0.0,0.0,0.0,0.0,0.0,0.0,0.0,0.0,0.0,0.0,0.0,0.0,0.0,0.0,-2.6806,-2.6806,-2.6806,-2.6806,-2.6806,-2.6806,-2.6806,-2.6806,-2.6806,-2.6806,-2.6806,-2.6806,-2.6806,-2.6806,-2.6806,-2.6806,-2.6806,-2.6806,-2.6806,-2.6806,-2.6806,-2.6806,-2.6806,-2.6806,-2.6806,-2.6806,-2.6806,-2.6806,-2.6806,-2.6806,0.0,0.0,0.0,0.0,0.0,0.0,0.0,0.0,0.0,0.0,0.0,-1.222,-1.222,0.0,0.0,0.0,-0.9528,0.0,0.0,0.0,0.0,0.0,0.0,0.0,0.0,0.0,0.0,0.0,0.0,0.0,-1.5037,-1.4703,-1.5936,0.0,-1.7229,0.0,0.0,0.0,0.0,-1.0879,-0.9778,-1.0219,-1.1384,-1.0248,-1.0403,-1.1064,0.0,0.0,0.0,0.0,0.0,0.0,0.0,0.0,0.0,0.0,0.0,0.0,0.0,0.0,0.0,0.0,0.0,0.0,0.0,0.0,0.0,0.0,0.0,0.0,0.0,0.0,0.0,0.0,0.0,0.0,0.0,0.0,0.0,0.0,0.0,0.0,0.0,0.0,0.0,0.0,-2.6559,-2.6559,-2.6559,-2.6718,-2.6806,-2.6806,-2.6806,-2.6806,-2.6806,-2.6806,-2.6806,-2.6806,-2.6806,-2.6806,-2.6806,-2.6806,-2.6806,-2.6806,-2.6806,-2.6806,-2.6806,-2.6806,-2.6806,-2.6806,-2.6806,-2.6806,-2.6806,-2.6806,-2.6806,-2.6806,0.0,0.0,0.0,0.0,0.0,0.0,0.0,0.0,0.0,0.0,0.0,-1.1462,-1.1462,-1.0822,-1.0168,-0.9551,-0.8617,0.0,0.0,0.0,0.0,0.0,0.0,0.0,0.0,0.0,0.0,0.0,0.0,0.0,-1.437,-1.4964,-1.6619,-1.9029,-1.839,-1.669,-1.4297,0.0,0.0,0.0,-1.1608,-1.1402,-1.162,-1.2725,-1.319,-1.3074,0.0,0.0,0.0,0.0,0.0,0.0,0.0,0.0,0.0,0.0,0.0,0.0,0.0,0.0,0.0,0.0,0.0,0.0,0.0,0.0,0.0,0.0,0.0,0.0,0.0,0.0,0.0,0.0,0.0,0.0,0.0,0.0,0.0,0.0,0.0,0.0,0.0,0.0,0.0,0.0,-2.5836,-2.5836,-2.5836,-2.6431,-2.6806,-2.6806,-2.6806,-2.6806,-2.6806,-2.6806,-2.6806,-2.6806,-2.6806,-2.6806,-2.6806,-2.6806,-2.6806,-2.6806,-2.6806,-2.6806,-2.6806,-2.6806,-2.6806,-2.6806,-2.6806,-2.6806,-2.6806,-2.6806,-2.6806,-2.6806,0.0,0.0,0.0,0.0,0.0,0.0,0.0,0.0,0.0,0.0,0.0,0.0,0.0,-1.1091,-1.0269,-0.9937,-0.8659,0.0,0.0,0.0,0.0,0.0,0.0,0.0,0.0,0.0,0.0,0.0,0.0,-0.9947,-1.3094,-1.3326,-1.4355,-1.6052,-1.7113,-1.7038,-1.6037,-1.4194,0.0,0.0,0.0,0.0,0.0,0.0,-1.415,-1.4979,0.0,0.0,0.0,0.0,0.0,0.0,0.0,0.0,-0.971,0.0,0.0,0.0,0.0,0.0,0.0,0.0,0.0,0.0,0.0,0.0,0.0,0.0,0.0,0.0,0.0,0.0,0.0,0.0,0.0,0.0,0.0,0.0,0.0,0.0,0.0,0.0,0.0,0.0,0.0,0.0,0.0,-2.5183,-2.5212,-2.5469,-2.556,-2.5506,-2.5506,-2.5506,-2.5506,-2.5506,-2.5546,-2.5575,-2.5575,-2.5763,-2.6166,-2.6166,-2.6399,-2.6806,-2.6806,-2.6806,-2.6806,-2.6806,-2.6806,-2.6806,-2.6806,-2.6806,-2.6806,-2.6806,-2.6806,-2.6806,0.0,0.0,0.0,-1.2738,0.0,-1.0838,-1.0745,-1.0538,0.0,0.0,0.0,0.0,0.0,0.0,-1.0427,-0.9786,0.0,0.0,0.0,0.0,0.0,0.0,0.0,0.0,0.0,0.0,0.0,0.0,0.0,0.0,0.0,0.0,-1.3079,-1.4341,-1.5443,0.0,0.0,0.0,0.0,-1.4311,0.0,0.0,-1.5922,0.0,0.0,0.0,0.0,0.0,0.0,0.0,0.0,0.0,0.0,-1.0276,-0.9046,-0.7924,0.0,0.0,0.0,0.0,0.0,0.0,0.0,0.0,0.0,0.0,0.0,0.0,0.0,0.0,0.0,0.0,0.0,0.0,0.0,0.0,0.0,0.0,0.0,0.0,0.0,0.0,0.0,0.0,0.0,0.0,0.0,0.0,-2.4559,-2.4762,-2.4839,-2.481,-2.4824,-2.4824,-2.4824,-2.481,-2.4824,-2.4878,-2.4878,-2.5096,-2.5513,-2.5473,-2.572,-2.6155,-2.6384,-2.6602,-2.6806,-2.6806,-2.6806,-2.6806,-2.6806,-2.6806,-2.6806,-2.6806,-2.6806,-2.6806,-1.3793,-1.3631,-1.3421,-1.3133,-1.2371,-1.17,-1.1444,-1.0854,-1.0665,-1.1305,0.0,0.0,0.0,0.0,0.0,0.0,0.0,0.0,0.0,0.0,0.0,0.0,0.0,0.0,0.0,0.0,0.0,0.0,0.0,0.0,0.0,0.0,-1.2992,0.0,-1.3627,-1.4064,-1.5298,0.0,-1.6719,-1.6253,0.0,-1.7183,-1.7458,0.0,0.0,0.0,-1.8491,-1.7835,0.0,0.0,0.0,0.0,0.0,0.0,-0.8522,-0.7851,0.0,0.0,0.0,0.0,0.0,0.0,0.0,0.0,0.0,0.0,0.0,0.0,0.0,0.0,0.0,0.0,0.0,0.0,0.0,0.0,0.0,0.0,0.0,0.0,0.0,0.0,0.0,0.0,0.0,0.0,-2.3862,-2.3862,-2.3862,-2.4418,-2.4728,-2.4728,-2.482,-2.4834,-2.4834,-2.4781,-2.4728,-2.4728,-2.4728,-2.4781,-2.4863,-2.4795,-2.481,-2.4921,-2.5527,-2.6141,-2.6777,-2.6806,-2.6806,-2.6806,-2.6806,-2.6806,-2.6806,-2.6806,-2.6806,-2.6806,-1.3595,-1.3452,-1.3269,-1.2929,-1.2276,-1.17,-1.1444,-1.1241,-1.1194,0.0,0.0,0.0,0.0,0.0,0.0,0.0,0.0,0.0,0.0,-0.7866,-0.7605,-0.7605,-0.7605,0.0,0.0,0.0,0.0,0.0,0.0,0.0,0.0,0.0,0.0,0.0,-1.234,-1.2862,-1.3224,-1.3587,0.0,0.0,-1.5888,-1.6757,0.0,0.0,0.0,0.0,0.0,-1.9827,0.0,0.0,-1.7316,-1.5921,0.0,0.0,0.0,-0.9231,-0.9831,0.0,-1.0334,0.0,0.0,0.0,0.0,0.0,0.0,0.0,0.0,0.0,0.0,0.0,0.0,0.0,0.0,0.0,0.0,0.0,0.0,0.0,0.0,0.0,0.0,0.0,0.0,0.0,0.0,0.0,-2.3186,-2.3186,-2.3186,-2.3322,-2.3424,-2.3424,-2.3447,-2.3461,-2.3461,-2.3424,-2.3424,-2.3424,-2.3424,-2.3693,-2.4167,-2.4152,-2.4428,-2.4907,-2.5038,-2.5473,-2.6123,-2.6617,-2.6806,-2.6806,-2.6806,-2.6806,-2.6806,-2.6806,-2.6806,-2.6806,-1.3644,-1.3493,-1.3388,-1.3385,-1.2987,-1.2695,-1.2728,-1.2467,-1.2388,0.0,0.0,0.0,0.0,0.0,0.0,0.0,0.0,0.0,-0.8624,-0.823,-0.7895,-0.7605,-0.7605,-0.7728,0.0,0.0,0.0,0.0,0.0,0.0,0.0,0.0,0.0,0.0,0.0,-1.1197,-1.1784,0.0,0.0,0.0,-1.6517,0.0,0.0,-1.9863,-2.0596,0.0,0.0,0.0,-2.0422,-2.0016,-1.8883,0.0,0.0,0.0,-1.1861,-1.0733,0.0,0.0,0.0,0.0,0.0,0.0,0.0,0.0,0.0,0.0,0.0,0.0,0.0,0.0,0.0,0.0,0.0,0.0,0.0,0.0,0.0,0.0,0.0,0.0,0.0,0.0,0.0,-2.2888,-2.2888,-2.2888,-2.2888,-2.2888,-2.2888,-2.2888,-2.2888,-2.2888,-2.2888,-2.2888,-2.2888,-2.2888,-2.2888,-2.2888,-2.2888,-2.3113,-2.3476,-2.3476,-2.3717,-2.4094,-2.4317,-2.4646,-2.5052,-2.5745,-2.6326,-2.6806,-2.6806,-2.6806,-2.6806,-2.6806,-2.6806,-2.6806,0.0,-1.3655,-1.3667,-1.4133,-1.4045,-1.4072,-1.4558,-1.4042,-1.3858,0.0,0.0,0.0,0.0,0.0,0.0,0.0,0.0,0.0,-0.8886,-0.8682,-0.8296,-0.7619,-0.7605,-0.788,-0.8479,0.0,0.0,0.0,0.0,0.0,0.0,0.0,0.0,0.0,-0.8493,-0.9366,-1.0809,-1.0175,0.0,-1.4924,-1.7597,-1.8721,0.0,0.0,-2.1612,0.0,-2.1888,-2.1728,-2.1206,-2.1133,-1.9914,0.0,0.0,-1.4674,-1.4282,-1.2451,-1.2769,0.0,0.0,0.0,0.0,0.0,0.0,0.0,-1.6169,-1.5443,0.0,0.0,0.0,0.0,0.0,0.0,0.0,0.0,0.0,0.0,0.0,0.0,0.0,0.0,0.0,0.0,0.0,-2.2786,-2.2838,-2.2955,-2.2955,-2.2933,-2.2888,-2.2888,-2.2888,-2.2888,-2.2888,-2.2888,-2.2888,-2.2888,-2.2888,-2.2888,-2.2888,-2.2888,-2.2888,-2.2888,-2.2888,-2.2931,-2.3543,-2.3818,-2.3958,-2.453,-2.5556,-2.6704,-2.6704,-2.6747,-2.6806,-2.6806,-2.6806,-2.6806,-1.3881,-1.3765,-1.3799,-1.4273,-1.4148,-1.4163,-1.4677,-1.4554,-1.4442,0.0,0.0,0.0,0.0,0.0,0.0,0.0,0.0,0.0,0.0,-0.9168,-0.8296,-0.7619,-0.7605,-0.767,-0.7793,-0.767,0.0,0.0,0.0,0.0,0.0,0.0,0.0,0.0,-0.7793,-0.8573,-0.996,0.0,0.0,-1.4106,-1.5493,0.0,-2.0126,-2.0901,-2.1736,-2.2562,-2.2693,-2.2649,-2.2461,0.0,-2.0886,-1.9464,0.0,0.0,0.0,0.0,0.0,-1.5516,-1.4892,-1.5182,-1.5472,0.0,0.0,0.0,0.0,-1.3845,0.0,0.0,0.0,0.0,0.0,0.0,0.0,0.0,0.0,0.0,0.0,0.0,0.0,0.0,0.0,0.0,0.0,-2.2178,-2.2491,-2.326,-2.3312,-2.3194,-2.291,-2.2888,-2.2888,-2.2888,-2.2888,-2.2888,-2.2888,-2.2888,-2.2888,-2.2888,-2.2888,-2.2888,-2.2888,-2.2888,-2.2888,-2.2902,-2.3055,-2.3389,-2.3905,-2.4036,-2.4859,-2.6006,-2.6006,-2.6326,-2.6806,-2.6806,-2.6806,-2.6806,-1.3896,-1.374,-1.3894,-1.4791,-1.4725,-1.4831,-1.5663,-1.5467,0.0,0.0,0.0,0.0,0.0,0.0,0.0,0.0,0.0,0.0,0.0,0.0,-0.8799,-0.8128,-0.7771,-0.7916,-0.8593,-0.7945,0.0,0.0,0.0,0.0,0.0,0.0,0.0,0.0,0.0,0.0,0.0,0.0,-1.3131,-1.5157,-1.6973,0.0,-2.0139,-2.1448,-2.2345,-2.2888,-2.2888,-2.2888,-2.2765,-2.183,-2.1075,0.0,0.0,-1.8651,-1.8404,0.0,-1.7168,-1.7446,0.0,0.0,-1.6561,-1.5922,0.0,0.0,0.0,0.0,-1.4224,0.0,0.0,0.0,0.0,0.0,0.0,0.0,0.0,0.0,0.0,0.0,0.0,0.0,0.0,0.0,0.0,-2.1601,-2.1775,-2.2399,-2.2596,-2.273,-2.2888,-2.2903,-2.3066,-2.3451,-2.3253,-2.315,-2.315,-2.2963,-2.2888,-2.2888,-2.2888,-2.2888,-2.2888,-2.2888,-2.2888,-2.2888,-2.2888,-2.3099,-2.3389,-2.3389,-2.3978,-2.4931,-2.5556,-2.6021,-2.6355,-2.6689,-2.6806,-2.6806,-1.3866,-1.3669,-1.3871,-1.5083,-1.518,-1.5452,-1.6531,-1.6292,0.0,0.0,0.0,0.0,0.0,0.0,0.0,0.0,0.0,0.0,0.0,0.0,0.0,-0.9177,-0.8404,-0.8483,-0.9569,-0.841,-0.8265,0.0,0.0,0.0,0.0,0.0,0.0,0.0,0.0,0.0,0.0,0.0,0.0,-1.681,0.0,-1.9949,-1.9914,-2.1946,-2.2736,-2.2751,-2.2859,-2.2888,-2.2736,-2.1583,0.0,-2.0959,-1.9696,-1.9667,0.0,0.0,0.0,0.0,0.0,0.0,0.0,0.0,0.0,-1.601,0.0,0.0,0.0,-1.639,0.0,0.0,0.0,0.0,0.0,0.0,0.0,0.0,0.0,0.0,0.0,0.0,0.0,0.0,0.0,-2.1159,-2.1129,-2.1575,-2.162,-2.1952,-2.2667,-2.2819,-2.3172,-2.3755,-2.3599,-2.353,-2.353,-2.3253,-2.3068,-2.3,-2.3,-2.2955,-2.2888,-2.2888,-2.2888,-2.2888,-2.2888,-2.2888,-2.2888,-2.2888,-2.3229,-2.3818,-2.4965,-2.5527,-2.5701,-2.6239,-2.6442,-2.6431,-1.3758,-1.36,-1.3727,-1.4407,-1.4834,-1.5365,-1.6149,-1.6516,0.0,0.0,0.0,0.0,0.0,0.0,0.0,0.0,0.0,0.0,-1.4906,0.0,0.0,-1.1198,-1.002,-0.9438,-0.9598,-0.8871,-0.8273,0.0,0.0,0.0,0.0,0.0,-0.8929,-0.9744,-1.0795,0.0,0.0,0.0,-1.6164,0.0,-1.9607,-2.0133,0.0,-2.1576,-2.2106,-2.2178,-2.2722,-2.2888,-2.2786,0.0,-2.1888,-2.1656,0.0,-2.0045,0.0,0.0,0.0,0.0,0.0,0.0,0.0,0.0,-1.7975,0.0,0.0,0.0,-1.511,-1.4862,0.0,0.0,0.0,0.0,0.0,0.0,0.0,0.0,0.0,0.0,0.0,0.0,0.0,0.0,0.0,-2.1004,-2.1089,-2.1961,-2.1183,-2.1057,-2.1966,-2.2576,-2.2945,-2.3021,-2.3606,-2.394,-2.394,-2.3897,-2.3711,-2.3341,-2.3341,-2.3194,-2.2888,-2.2888,-2.2888,-2.2888,-2.2888,-2.2888,-2.2888,-2.2888,-2.2931,-2.3099,-2.3833,-2.4471,-2.4994,-2.5081,-2.5081,-2.5114,-1.371,-1.3655,-1.3784,-1.4298,-1.4553,-1.5033,-1.6054,-1.7423,0.0,0.0,0.0,0.0,0.0,0.0,0.0,0.0,0.0,-1.6518,0.0,0.0,0.0,-1.3119,-1.1576,-1.0878,-1.122,-0.988,-0.9046,-0.8752,-0.8013,0.0,0.0,0.0,-0.9601,-1.1304,-1.1946,0.0,-1.5831,0.0,0.0,0.0,0.0,0.0,0.0,-2.1893,-2.2644,-2.2695,-2.301,-2.312,-2.3032,0.0,-2.1877,0.0,0.0,0.0,0.0,0.0,0.0,0.0,0.0,0.0,0.0,0.0,0.0,0.0,-1.6123,0.0,-1.5418,0.0,0.0,0.0,0.0,0.0,0.0,0.0,0.0,0.0,0.0,0.0,0.0,0.0,0.0,0.0,0.0,0.0,0.0,0.0,-2.027,-2.0286,-2.1938,-2.2204,-2.268,-2.3472,-2.3588,-2.3861,-2.4291,-2.4088,-2.3903,-2.3739,-2.3739,-2.3545,-2.3194,-2.3194,-2.3083,-2.2888,-2.2888,-2.2888,-2.2888,-2.2888,-2.2888,-2.2917,-2.3215,-2.3731,-2.4355,-2.4718,-2.4839,-2.4907,-1.395,0.0,0.0,0.0,-1.4374,-1.5101,-1.6429,-1.8344,-1.9531,0.0,0.0,0.0,-2.0235,-1.973,0.0,0.0,0.0,-1.8057,0.0,0.0,-1.4877,-1.5154,-1.348,0.0,0.0,-1.1173,-1.0122,-0.9598,-0.8672,0.0,0.0,0.0,0.0,-1.2285,0.0,-1.4899,-1.7249,0.0,0.0,-1.8685,-1.962,-2.0212,-2.0705,-2.2269,-2.2988,-2.3171,-2.3275,-2.3297,-2.3194,-2.2523,-2.1951,0.0,-2.1928,0.0,0.0,0.0,0.0,0.0,-1.9597,0.0,0.0,0.0,0.0,0.0,0.0,0.0,0.0,0.0,0.0,0.0,0.0,0.0,0.0,0.0,0.0,0.0,0.0,0.0,0.0,0.0,0.0,0.0,0.0,0.0,0.0,0.0,0.0,-1.9436,-2.1695,-2.1912,-2.238,-2.3322,-2.3474,-2.3795,-2.4324,-2.4287,-2.4193,-2.4003,-2.4003,-2.3732,-2.3268,-2.3268,-2.3127,-2.2888,-2.2888,-2.2888,-2.2888,-2.2888,-2.2888,-2.2888,-2.2888,-2.32,-2.3688,-2.4128,-2.4302,-2.4384,-1.4597,-1.3896,0.0,0.0,0.0,-1.583,-1.7484,-1.902,-1.9796,0.0,0.0,0.0,0.0,0.0,0.0,0.0,0.0,-2.0926,-2.0128,0.0,-1.7915,0.0,-1.5972,-1.4645,0.0,-1.2708,-1.1423,-0.9598,-0.9563,-0.9537,0.0,0.0,0.0,0.0,0.0,-1.5995,-1.6752,-1.8669,-2.0213,-2.1381,-2.1486,-2.228,-2.3273,0.0,-2.273,-2.3297,-2.3297,0.0,0.0,-2.2523,-2.2266,0.0,0.0,0.0,0.0,0.0,0.0,0.0,0.0,0.0,0.0,-1.8244,0.0,0.0,0.0,0.0,-1.7471,0.0,0.0,0.0,0.0,0.0,0.0,0.0,0.0,0.0,0.0,0.0,0.0,0.0,0.0,0.0,0.0,0.0,0.0,0.0,0.0,0.0,-2.0991,-2.1743,-2.2041,-2.1981,-2.3209,-2.3901,-2.3916,-2.4614,-2.4645,-2.4003,-2.4003,-2.3618,-2.2925,-2.2925,-2.2925,-2.2888,-2.2888,-2.2888,-2.2888,-2.2888,-2.2888,-2.2888,-2.2888,-2.2902,-2.2931,-2.2946,-2.2946,-2.307,0.0,0.0,0.0,0.0,0.0,0.0,-1.7891,-1.9439,-2.0699,0.0,0.0,0.0,0.0,0.0,-2.3069,0.0,0.0,-2.2382,-2.1707,-1.9956,0.0,0.0,0.0,-1.6642,0.0,0.0,-1.328,-1.2249,-1.1002,-1.0604,0.0,0.0,0.0,0.0,0.0,-1.6099,0.0,0.0,0.0,0.0,0.0,-2.2416,-2.3551,0.0,0.0,-2.3444,-2.348,-2.3501,0.0,-2.3248,-2.2827,-2.2473,-2.2786,-2.2188,-2.1469,-2.1813,-2.1704,0.0,0.0,0.0,-2.1634,-1.9513,0.0,0.0,0.0,0.0,0.0,0.0,0.0,0.0,0.0,0.0,0.0,0.0,0.0,0.0,0.0,0.0,0.0,0.0,0.0,0.0,0.0,0.0,0.0,0.0,-1.8392,0.0,0.0,-2.152,-2.1713,-2.2009,-2.2471,-2.3099,-2.3888,-2.416,-2.441,-2.4666,-2.4441,-2.4088,-2.3618,-2.3348,-2.312,-2.2888,-2.2888,-2.2888,-2.2888,-2.2888,-2.2888,-2.2888,-2.2888,-2.2888,-2.2888,-2.2888,-2.2888,-2.2989,-1.6045,0.0,0.0,0.0,0.0,0.0,0.0,0.0,0.0,0.0,-2.3181,0.0,-2.4939,0.0,-2.4451,0.0,-2.4333,-2.3644,-2.2505,-2.1414,0.0,-2.1144,-1.9564,0.0,0.0,0.0,-1.5286,-1.3953,-1.2772,-1.2134,0.0,0.0,0.0,0.0,0.0,0.0,0.0,0.0,-2.0933,0.0,0.0,-2.2862,0.0,0.0,-2.3566,-2.3538,0.0,-2.3595,-2.3595,-2.3595,-2.3283,-2.2971,-2.3454,-2.2942,-2.2254,-2.2587,-2.2476,-2.2161,-2.1794,-2.2133,0.0,-2.0479,-1.9994,0.0,-1.7785,0.0,0.0,0.0,0.0,0.0,0.0,0.0,0.0,0.0,0.0,0.0,0.0,0.0,0.0,0.0,0.0,0.0,0.0,0.0,-1.6646,-1.8373,0.0,0.0,0.0,0.0,-2.144,-2.1727,-2.1931,-2.242,-2.3238,-2.3689,-2.4087,-2.443,-2.4374,-2.4114,-2.376,-2.3377,-2.3105,-2.2888,-2.2888,-2.2888,-2.2888,-2.2888,-2.2888,-2.2888,-2.2888,-2.2888,-2.2888,-2.2888,-2.2888,-2.2946,0.0,0.0,0.0,0.0,-1.7226,0.0,0.0,0.0,-2.3752,0.0,-2.4106,-2.4988,-2.5336,-2.4927,-2.487,-2.5366,-2.5571,0.0,-2.2833,-2.322,0.0,0.0,-2.1248,-2.0616,-1.8855,0.0,0.0,0.0,-1.4748,0.0,0.0,0.0,0.0,0.0,-1.4929,0.0,-1.6922,-2.0673,-2.2064,-2.1864,-2.3143,-2.3616,-2.3595,-2.3595,-2.3595,-2.3595,-2.3595,-2.3595,-2.3595,-2.3595,-2.3595,-2.3595,-2.3595,-2.3595,-2.349,-2.2912,-2.3152,-2.334,-2.2113,-2.2269,-2.2433,-2.1126,0.0,0.0,0.0,0.0,-2.0557,0.0,0.0,0.0,0.0,0.0,0.0,0.0,0.0,0.0,0.0,0.0,0.0,0.0,0.0,0.0,0.0,0.0,-1.4698,-1.8042,-1.7188,0.0,0.0,0.0,-2.1181,-2.1103,-2.1592,-2.194,-2.2094,-2.3222,-2.3673,-2.3409,-2.3769,-2.3752,-2.3384,-2.3053,-2.2888,-2.2888,-2.2888,-2.2888,-2.2888,-2.2888,-2.2888,-2.2888,-2.2888,-2.2888,-2.2888,-2.2888,-2.2888,-2.2888,-1.8484,-1.8603,-1.8921,0.0,-1.9329,-1.9604,0.0,0.0,0.0,0.0,-2.5475,-2.639,-2.7396,-2.7089,-2.6862,-2.7016,-2.6593,0.0,0.0,0.0,0.0,-2.3618,-2.2672,-2.1984,-2.1645,-1.9641,0.0,-1.8384,0.0,0.0,-1.4977,0.0,0.0,0.0,0.0,0.0,-1.6626,-2.0037,-2.201,-2.2883,-2.3763,-2.3909,0.0,0.0,-2.3595,-2.3595,-2.3595,-2.3595,-2.3595,-2.3595,-2.3595,-2.3595,-2.3595,-2.3595,-2.3565,-2.3415,-2.3475,-2.3535,-2.3191,-2.3236,-2.3176,-2.2368,-2.1799,-2.1216,0.0,0.0,0.0,0.0,0.0,0.0,0.0,0.0,0.0,0.0,0.0,0.0,0.0,0.0,0.0,0.0,0.0,0.0,0.0,-1.4884,-1.6066,-1.536,-1.6949,0.0,0.0,0.0,0.0,-2.1214,-2.1376,-2.1615,-2.1938,-2.225,-2.2747,-2.3409,-2.3259,-2.3263,-2.3384,-2.3053,-2.2888,-2.2888,-2.2888,-2.2888,-2.2888,-2.2888,-2.2888,-2.2888,-2.2888,-2.2888,-2.2888,-2.2888,-2.2888,-2.2888,-1.9716,0.0,0.0,-2.1166,0.0,0.0,-2.2178,0.0,0.0,-2.5322,-2.601,0.0,-2.7373,-2.7561,-2.76,-2.76,-2.7255,0.0,0.0,0.0,0.0,-2.4634,-2.3792,-2.3293,-2.3107,-2.1042,0.0,-1.9256,0.0,0.0,-1.4901,0.0,0.0,0.0,0.0,-1.647,0.0,-2.0429,-2.2515,-2.3534,-2.4086,0.0,0.0,-2.3681,-2.3595,-2.3595,-2.3595,-2.3595,-2.3595,-2.3595,-2.3595,-2.3595,-2.3595,-2.3595,-2.3595,-2.3595,-2.3595,-2.3595,-2.3595,-2.3595,-2.352,-2.3176,-2.2802,-2.2353,-2.1724,-2.1879,-2.2134,0.0,0.0,0.0,0.0,0.0,0.0,0.0,0.0,0.0,0.0,0.0,0.0,0.0,0.0,0.0,0.0,-1.3939,-1.5332,-1.4735,-1.6182,0.0,0.0,0.0,0.0,-2.093,-2.1116,-2.1344,-2.1629,-2.1812,-2.2122,-2.2527,-2.2511,-2.2676,-2.2999,-2.2666,-2.2649,-2.2888,-2.2888,-2.2888,-2.2888,-2.2888,-2.2888,-2.2888,-2.2888,-2.2888,-2.2888,-2.2888,-2.2888,-2.2888,0.0,0.0,0.0,0.0,0.0,0.0,0.0,-2.4278,0.0,-2.5629,0.0,-2.6708,-2.6573,-2.7164,-2.76,-2.76,0.0,-2.7106,-2.5944,-2.6408,-2.6168,-2.4918,-2.4859,-2.45,-2.3744,-2.2398,0.0,0.0,0.0,0.0,0.0,0.0,0.0,0.0,0.0,0.0,0.0,-2.1475,-2.3356,0.0,-2.4333,-2.4426,-2.4328,-2.3915,-2.3767,-2.3767,-2.3767,-2.3702,-2.3595,-2.3595,-2.3595,-2.3595,-2.3595,-2.3595,-2.3595,-2.3595,-2.3595,-2.3595,-2.3595,-2.3595,-2.3595,-2.3595,-2.3595,-2.346,-2.2942,-2.2823,-2.2953,-2.3399,-2.3053,-2.3005,0.0,0.0,0.0,0.0,0.0,0.0,0.0,0.0,0.0,0.0,0.0,0.0,0.0,-1.3019,-1.3807,-1.4795,-1.4961,0.0,0.0,0.0,0.0,-2.0637,-2.0986,-2.1198,-2.1262,0.0,-2.167,-2.1399,-2.172,-2.2074,-2.2479,-2.214,-2.2316,-2.2888,-2.2888,-2.2888,-2.2888,-2.2888,-2.2888,-2.2888,-2.2888,-2.2888,-2.2888,-2.2888,-2.2888,-2.2888,0.0,0.0,0.0,0.0,0.0,-2.5624,-2.6569,-2.7195,-2.7333,-2.6735,-2.7813,-2.8311,-2.7488,-2.7515,-2.76,-2.76,-2.76,0.0,0.0,0.0,0.0,-2.6273,-2.6243,-2.5689,-2.4455,-2.2637,-2.1261,0.0,-1.7401,-1.55,0.0,0.0,0.0,0.0,0.0,0.0,-2.0416,-2.2785,0.0,-2.4457,-2.504,-2.5082,-2.4799,-2.4704,-2.4684,-2.4684,-2.4684,-2.4214,-2.3595,-2.3595,-2.3595,-2.3595,-2.3595,-2.3595,-2.3595,-2.3595,-2.3595,-2.3595,-2.3595,-2.3595,-2.3595,-2.3595,-2.3595,-2.3565,-2.346,-2.343,-2.3685,-2.4471,-2.4536,-2.4357,-2.4129,0.0,0.0,0.0,0.0,0.0,0.0,0.0,0.0,0.0,0.0,0.0,0.0,0.0,0.0,0.0,0.0,0.0,0.0,0.0,0.0,0.0,-2.1478,0.0,0.0,0.0,-2.1268,-2.1312,-2.1145,-2.1553,-2.2401,-2.214,-2.2316,-2.2888,-2.2888,-2.2888,-2.2888,-2.2888,-2.2888,-2.2888,-2.2888,-2.2888,-2.2888,-2.2888,-2.2888,-2.2888,0.0,0.0,0.0,0.0,0.0,0.0,0.0,-2.9122,0.0,-2.7269,-2.7406,-2.7404,-2.6654,-2.718,-2.76,-2.76,-2.76,-2.76,-2.76,-2.76,-2.745,-2.7136,-2.6806,0.0,-2.5659,-2.3699,-2.2203,-2.1216,-1.8238,-1.6099,0.0,0.0,0.0,0.0,0.0,-1.8528,0.0,0.0,0.0,-2.4618,-2.5246,-2.5389,-2.5179,-2.4981,-2.4902,-2.4902,-2.4902,-2.4643,-2.4277,-2.4277,-2.4277,-2.4277,-2.4277,-2.4277,-2.4277,-2.4277,-2.4277,-2.4277,-2.4277,-2.4277,-2.4277,-2.4277,-2.4126,-2.4015,-2.4235,-2.4105,-2.4209,-2.5044,-2.5218,-2.4914,-2.3913,-2.2149,0.0,0.0,0.0,0.0,0.0,0.0,0.0,0.0,0.0,0.0,0.0,0.0,0.0,0.0,0.0,0.0,0.0,0.0,0.0,0.0,0.0,0.0,0.0,0.0,0.0,-2.0928,-2.0734,-2.1091,-2.1919,-2.181,-2.2169,-2.2888,-2.2888,-2.2888,-2.2888,-2.2888,-2.2888,-2.2888,-2.2888,-2.2888,-2.2888,-2.2888,-2.2888,-2.2888,0.0,-2.8457,0.0,0.0,-2.9018,0.0,-2.9191,-3.068,-3.0855,-2.8086,-2.7639,-2.728,-2.6482,-2.7353,-2.7911,-2.7775,-2.766,-2.76,-2.76,-2.76,-2.76,-2.76,-2.7106,-2.6761,-2.6587,-2.4875,-2.3242,0.0,-1.9288,0.0,0.0,0.0,-1.4055,-1.3894,0.0,0.0,0.0,0.0,-2.4742,-2.5217,-2.5847,-2.6105,-2.6086,-2.576,-2.5643,-2.5643,-2.5643,-2.5643,-2.5643,-2.5643,-2.5314,-2.4902,-2.4902,-2.4902,-2.4902,-2.4902,-2.4902,-2.4902,-2.4902,-2.4902,-2.4902,-2.4902,-2.4659,-2.4513,-2.4839,-2.4639,-2.4588,-2.5158,-2.5104,-2.4624,-2.3568,-2.2297,0.0,0.0,0.0,0.0,0.0,0.0,0.0,0.0,0.0,0.0,0.0,0.0,0.0,0.0,0.0,0.0,0.0,0.0,0.0,0.0,0.0,-2.1389,-2.1375,0.0,-2.1055,-2.0746,-2.053,-2.0857,-2.161,-2.1525,-2.2003,-2.2888,-2.2888,-2.2888,-2.2888,-2.2888,-2.2888,-2.2888,-2.2888,-2.2888,-2.2888,-2.2888,-2.2888,-2.2888,0.0,0.0,0.0,0.0,0.0,0.0,-3.1487,-3.2116,-3.1899,-2.9974,-3.075,-3.0831,-2.9135,-2.9116,-2.8956,-2.8277,-2.7845,-2.76,-2.76,-2.76,-2.76,-2.76,-2.754,-2.7225,-2.6602,-2.5636,-2.4152,0.0,0.0,-1.8501,0.0,0.0,-1.6075,-1.7001,0.0,0.0,0.0,-2.4972,-2.6401,-2.7112,-2.7838,-2.8119,-2.8119,-2.8081,-2.8061,-2.8061,-2.8061,-2.8061,-2.8061,-2.8061,-2.6659,-2.4902,-2.4902,-2.4902,-2.4902,-2.4902,-2.4902,-2.4902,-2.4902,-2.4902,-2.4902,-2.4902,-2.4863,-2.4843,-2.4883,-2.4863,-2.4787,-2.4618,-2.3816,-2.3108,-2.2976,-2.2298,-2.1735,0.0,0.0,0.0,0.0,0.0,0.0,0.0,0.0,0.0,0.0,0.0,0.0,0.0,0.0,0.0,0.0,0.0,0.0,-2.0586,0.0,-2.0732,-2.0605,-2.123,-2.145,-2.123,-2.0779,-2.1093,-2.2034,-2.1669,-2.2003,-2.2888,-2.2888,-2.2888,-2.2888,-2.2888,-2.2888,-2.2888,-2.2888,-2.2888,-2.2888,-2.2888,-2.2888,-2.2843,0.0,0.0,0.0,0.0,0.0,0.0,0.0,-3.3161,-3.3204,-3.2125,-3.1988,-3.1598,-3.0553,-3.0456,-3.0371,-3.008,-2.9495,-2.9033,-2.8711,-2.828,-2.8027,-2.8027,-2.8027,-2.8051,-2.8085,-2.7359,-2.6172,0.0,0.0,0.0,0.0,-1.845,-1.9057,-2.0555,0.0,-2.3605,-2.4877,-2.6305,-2.7319,-2.7995,-2.8276,-2.8392,-2.8392,-2.8392,-2.8392,-2.8392,-2.8392,-2.8392,-2.8392,-2.8392,-2.7767,-2.6922,-2.6482,-2.6336,-2.6254,-2.581,-2.568,-2.568,-2.568,-2.568,-2.568,-2.568,-2.5478,-2.5329,-2.5624,-2.546,-2.5177,-2.4929,-2.3819,-2.2891,-2.2891,-2.2294,-2.1812,0.0,0.0,0.0,0.0,0.0,0.0,0.0,0.0,0.0,0.0,0.0,0.0,0.0,0.0,-1.3433,-1.6254,0.0,0.0,-1.9975,0.0,-2.112,-2.0619,-2.1272,-2.145,-2.1119,-2.1503,-2.1761,-2.1944,-2.2432,-2.2825,-2.3135,-2.3045,-2.3015,-2.3015,-2.2925,-2.2888,-2.2888,-2.2888,-2.2888,-2.2865,-2.2578,-2.2486,-2.2417,-3.4972,0.0,-3.3622,0.0,-3.3451,-3.3201,-3.3738,-3.4214,-3.4374,-3.3954,-3.3362,-3.2664,-3.1878,-3.1773,-3.1669,-3.1453,-3.0871,-3.0345,-2.9962,-2.9275,-2.8862,-2.8862,-2.8652,0.0,-2.9097,-2.8551,-2.7684,-2.6472,-2.4824,0.0,0.0,-2.1682,-2.2345,0.0,-2.4563,-2.5611,-2.6732,-2.7716,-2.836,-2.8763,-2.8979,-2.9042,-2.9022,-2.9022,-2.9022,-2.9022,-2.9022,-2.9022,-2.9022,-2.9022,-2.9022,-2.8837,-2.7912,-2.7613,-2.7481,-2.6733,-2.6518,-2.6485,-2.6252,-2.6202,-2.6202,-2.6202,-2.5937,-2.5793,-2.6132,-2.5937,-2.5531,-2.4909,-2.3603,-2.2591,-2.2591,-2.216,-2.1812,-2.1812,0.0,0.0,0.0,0.0,0.0,0.0,0.0,-1.8886,0.0,0.0,0.0,0.0,0.0,-1.5255,-1.7238,0.0,0.0,0.0,0.0,0.0,0.0,-2.133,-2.1464,-2.1103,-2.1891,-2.2132,-2.1896,-2.2904,-2.333,-2.3297,-2.3201,-2.3171,-2.3135,-2.3068,-2.3023,-2.3023,-2.3023,-2.3023,-2.2978,-2.2646,-2.2426,-2.2203,-3.5622,-3.5412,-3.5266,-3.552,-3.5509,-3.5458,-3.5475,-3.5383,-3.5274,-3.5274,-3.5274,-3.4742,-3.3322,-3.312,-3.278,-3.2035,-3.1494,-3.1186,-3.1186,-3.0553,-3.0188,0.0,0.0,-2.9097,-2.9097,-2.8822,-2.8327,-2.7583,0.0,0.0,-2.5731,-2.5859,-2.5875,-2.5815,-2.7028,-2.7576,-2.7676,-2.9166,-2.9691,-2.9662,-3.0375,-3.0576,-3.0472,-3.0472,-3.0472,-3.0472,-3.0472,-3.0472,-3.0472,-3.0472,-3.0472,-3.0224,-2.884,-2.8392,-2.8243,-2.7497,-2.73,-2.7133,-2.6402,-2.6202,-2.6202,-2.6202,-2.6202,-2.6185,-2.6202,-2.6202,-2.5772,-2.4315,-2.2841,-2.1812,-2.1812,-2.1812,-2.1812,-2.1812,0.0,0.0,0.0,0.0,0.0,0.0,-1.9412,-1.8505,-1.8489,0.0,0.0,0.0,0.0,-1.8071,-1.9498,0.0,0.0,-2.0602,-2.0702,0.0,-2.0702,-2.1431,-2.1632,-2.1309,-2.1775,-2.201,-2.2033,-2.2891,-2.3304,-2.3297,-2.3297,-2.3297,-2.3297,-2.3297,-2.3297,-2.3297,-2.3297,-2.3297,-2.3297,-2.3297,-2.2957,-2.242,-3.6613,-3.6433,-3.62,-3.5705,-3.5577,-3.5571,-3.5571,-3.5526,-3.5487,-3.5487,-3.5475,-3.5276,-3.4818,-3.4668,-3.4522,0.0,-3.3545,-3.2952,0.0,-3.1972,-3.156,-3.156,-3.0901,-3.0706,-3.1084,-3.0501,-2.9834,-2.9105,0.0,0.0,0.0,-2.7117,-2.7385,-2.7901,-2.8876,-2.9252,-2.9227,-3.0199,-3.058,-3.0516,-3.073,-3.077,-3.063,-3.063,-3.063,-3.063,-3.0531,-3.0568,-3.063,-3.0531,-3.0506,-3.0423,-2.998,-2.9483,-2.8953,-2.8243,-2.768,-2.7249,-2.7017,-2.6584,-2.6202,-2.6202,-2.6202,-2.6202,-2.6202,-2.5805,-2.5159,-2.4199,-2.3222,-2.2409,-2.1895,-2.1812,-2.1812,-2.1812,-2.1812,0.0,0.0,0.0,0.0,0.0,0.0,-1.9992,0.0,-1.8236,0.0,0.0,0.0,0.0,0.0,0.0,0.0,0.0,-2.092,0.0,-2.0702,-2.1431,-2.1509,-2.0974,-2.2322,-2.3167,-2.357,-2.3522,-2.3501,-2.3501,-2.3451,-2.3444,-2.3444,-2.3341,-2.3297,-2.3275,-2.2889,-2.2754,-2.2649,-2.187,-2.1489,-2.1286,-3.7265,-3.6997,-3.6681,-3.5985,-3.5734,-3.56,-3.56,-3.56,-3.56,-3.56,-3.5571,-3.5543,-3.5543,-3.5458,0.0,-3.5314,-3.4787,-3.4366,-3.407,-3.337,-3.2951,-3.2951,-3.2276,-3.2071,-3.2416,-3.1947,0.0,-3.062,-2.9906,-2.9322,-2.885,-2.8945,-2.9235,-2.965,-3.0237,-3.0458,-3.0417,-3.0889,-3.1015,-3.0952,-3.0952,-3.0855,-3.079,-3.079,-3.079,-3.0753,-3.0671,-3.0692,-3.0753,-3.0671,-3.0651,-3.0651,-3.0651,-3.0335,-2.9799,-2.9025,-2.8478,-2.8035,-2.7487,-2.704,-2.6659,-2.6376,-2.631,-2.631,-2.631,-2.5744,-2.5079,-2.463,-2.3683,-2.2805,-2.2355,-2.1993,-2.1812,-2.1812,-2.1812,-2.1812,-2.1812,0.0,0.0,0.0,0.0,0.0,0.0,-1.9296,-1.9015,0.0,0.0,0.0,0.0,0.0,0.0,-2.0392,-2.1317,0.0,-2.1116,-2.1845,-2.1839,-2.1157,-2.249,-2.346,-2.4015,-2.3724,-2.3595,-2.3595,-2.356,-2.3538,-2.3538,-2.3451,-2.3414,-2.337,-2.3031,-2.292,-2.2807,-2.1917,-2.1465,-2.1213,-3.7578,-3.7208,-3.6801,0.0,-3.5937,0.0,-3.56,-3.56,-3.56,-3.56,-3.56,-3.56,-3.56,-3.56,-3.5509,-3.5337,0.0,0.0,0.0,-3.4661,-3.4276,-3.4276,-3.3577,-3.3196,-3.3196,-3.3146,-3.2772,-3.2102,-3.1429,-3.1059,-3.0999,-3.1145,-3.1131,-3.1015,-3.1151,-3.119,-3.119,-3.119,-3.1165,-3.1099,-3.1099,-3.1093,-3.1063,-3.0996,-3.0979,-3.0979,-3.0908,-3.0912,-3.0912,-3.0892,-3.0892,-3.0892,-3.0892,-3.0892,-3.0717,-2.9779,-2.9566,-2.9312,-2.7946,-2.7586,-2.7442,-2.6754,-2.6553,-2.6502,-2.6502,-2.5966,-2.5464,-2.5413,-2.4211,-2.3131,-2.3015,-2.2388,-2.1862,-2.1812,-2.1812,-2.1812,-2.1812,0.0,0.0,0.0,0.0,0.0,0.0,-2.0373,-2.0752,0.0,0.0,0.0,0.0,0.0,-1.9614,-2.1729,-2.1812,-2.1797,-2.1768,-2.2495,-2.2508,-2.181,-2.2413,-2.3017,-2.3595,-2.3595,-2.3595,-2.3595,-2.3595,-2.3595,-2.3595,-2.3595,-2.3595,-2.3595,-2.353,-2.3508,-2.3443,-2.292,-2.242,-2.1931,0.0,0.0,-3.7114,-3.643,-3.6216,-3.6023,-3.5667,-3.56,-3.56,-3.56,-3.56,-3.56,-3.56,-3.56,-3.5577,-3.5532,-3.5475,-3.5446,-3.5446,-3.5278,-3.5177,-3.5177,-3.4531,-3.417,-3.417,-3.363,-3.3237,-3.3069,-3.235,-3.1979,-3.1959,-3.1424,-3.1171,-3.1151,-3.119,-3.119,-3.119,-3.119,-3.1512,-3.1999,-3.1999,-3.2293,-3.266,-3.2055,-3.1836,-3.1732,-3.1116,-3.0915,-3.0955,-3.0912,-3.0892,-3.0892,-3.0892,-3.0892,-3.0858,-3.0613,-3.0179,-2.9677,-2.9326,-2.8427,-2.7559,-2.7391,-2.6921,-2.6502,-2.6502,-2.6368,-2.6084,-2.5531,-2.5112,-2.4461,-2.323,-2.2849,-2.252,-2.1895,-2.1812,-2.1812,-2.1812,-2.1812,0.0,0.0,-2.1547,-2.1466,-2.1301,-2.1448,-2.1315,0.0,0.0,0.0,0.0,-2.047,-2.0685,-2.1779,-2.1812,-2.1678,-2.1418,-2.2102,-2.2571,-2.2852,-2.2748,-2.3017,-2.3595,-2.3595,-2.3595,-2.3595,-2.3595,-2.3595,-2.3595,-2.3595,-2.3595,-2.353,-2.2748,-2.2452,-2.2337,-2.142,-2.0983,-2.086,-3.7862,-3.765,-3.7377,-3.6919,-3.6536,-3.6216,-3.5958,-3.5739,-3.56,-3.56,-3.56,-3.56,-3.56,-3.56,-3.56,-3.56,-3.5571,-3.5543,-3.5543,-3.5543,-3.5543,-3.5543,-3.5188,-3.5013,-3.5013,-3.4602,-3.4252,-3.3897,-3.3152,-3.2797,-3.278,-3.2391,-3.2205,-3.2205,-3.2205,-3.2205,-3.2205,-3.2205,-3.2442,-3.2797,-3.2797,-3.3009,-3.3305,-3.2866,-3.2697,-3.2626,-3.2197,-3.2083,-3.2036,-3.1658,-3.154,-3.149,-3.1133,-3.1032,-3.1032,-3.1032,-3.0706,-3.0261,-2.9945,-2.9311,-2.8558,-2.7868,-2.7145,-2.6589,-2.6589,-2.6589,-2.6488,-2.6084,-2.5698,-2.5077,-2.3856,-2.334,-2.2812,-2.1971,-2.184,-2.184,-2.1796,-2.1812,0.0,-2.1812,-2.1812,-2.1812,-2.1812,-2.1812,-2.163,-2.1232,-2.1199,0.0,-2.1199,-2.1199,-2.1398,-2.1796,-2.1812,-2.1797,-2.1762,-2.2387,-2.3045,-2.3687,-2.3311,-2.3266,-2.3595,-2.3595,-2.3595,-2.3595,-2.3595,-2.3595,-2.3595,-2.3595,-2.3595,-2.3551,-2.2995,-2.2657,-2.2374,-2.1527,-2.1106,-2.0873,-3.8209,-3.788,-3.7578,-3.7505,-3.6939,-3.6471,-3.6388,-3.6002,-3.5711,-3.5711,-3.5644,-3.56,-3.56,-3.56,-3.56,-3.56,-3.56,-3.56,-3.56,-3.56,-3.56,-3.56,-3.56,-3.56,-3.56,-3.56,-3.5301,-3.4675,-3.3931,-3.3575,-3.3558,-3.3457,-3.3406,-3.3406,-3.3406,-3.3406,-3.3406,-3.3406,-3.3474,-3.3575,-3.3575,-3.3643,-3.3728,-3.3609,-3.3575,-3.3558,-3.344,-3.3406,-3.3305,-3.2682,-3.2395,-3.2192,-3.1546,-3.1275,-3.119,-3.119,-3.1131,-3.09,-3.0261,-3.0101,-2.9717,-2.8196,-2.7317,-2.6843,-2.6725,-2.6691,-2.6691,-2.6691,-2.6168,-2.5461,-2.4702,-2.3916,-2.3102,-2.2243,-2.1995,-2.1899,-2.184,0.0,-2.1842,-2.1827,-2.1827,-2.1796,-2.1812,-2.1812,-2.1812,-2.1812,-2.1812,-2.1812,-2.1812,-2.1812,-2.1812,-2.1812,-2.1812,-2.1981,-2.2357,-2.2885,-2.3483,-2.4198,-2.3803,-2.3595,-2.3595,-2.3595,-2.3595,-2.3595,-2.3595,-2.3595,-2.3595,-2.3595,-2.3595,-2.3595,-2.3508,-2.3201,-2.2731,-2.2189,-2.1708,-2.1229,-3.8209,-3.814,-3.7967,-3.756,-3.7414,-3.7208,-3.686,-3.6471,-3.6195,-3.6195,-3.5849,-3.56,-3.56,-3.56,-3.56,-3.56,-3.56,-3.56,-3.56,-3.56,-3.56,-3.56,-3.56,-3.56,-3.56,-3.56,-3.5532,-3.543,-3.4692,-3.432,-3.432,-3.3694,-3.3406,-3.3406,-3.3406,-3.3406,-3.3406,-3.3406,-3.3761,-3.432,-3.432,-3.4709,-3.5177,-3.4573,-3.432,-3.4252,-3.3626,-3.3406,-3.3389,-3.3271,-3.2814,-3.2276,-3.2175,-3.1701,-3.119,-3.119,-3.119,-3.1137,-3.1035,-3.0545,-2.9717,-2.8196,-2.7722,-2.7469,-2.6843,-2.6691,-2.6691,-2.6691,-2.6607,-2.6269,-2.5494,-2.472,-2.3949,-2.3135,-2.2434,-2.1984,-2.1969,0.0,-2.1955,-2.1899,-2.1868,-2.1855,-2.1812,-2.1812,-2.1812,-2.1812,-2.1812,-2.1812,-2.1812,-2.1812,-2.1812,-2.1812,-2.1812,-2.2084,-2.2627,-2.2729,-2.3086,-2.3717,-2.3638,-2.3595,-2.3595,-2.3595,-2.3595,-2.3595,-2.3595,-2.3595,-2.3595,-2.3595,-2.3595,-2.3551,-2.3157,-2.2694,-2.2165,-2.1684,-2.1204,-2.0799,-3.877,-3.8499,-3.8123,-3.7897,-3.788,-3.7721,-3.7283,-3.688,-3.6618,-3.6618,-3.6416,-3.6224,-3.6002,-3.598,-3.5871,-3.5622,-3.56,-3.56,-3.56,-3.56,-3.56,-3.56,-3.56,-3.56,-3.56,-3.56,-3.56,-3.56,-3.5267,-3.5098,-3.5098,-3.4737,-3.4568,-3.4568,-3.4568,-3.4568,-3.4568,-3.4568,-3.4771,-3.5098,-3.5098,-3.5295,-3.5566,-3.5211,-3.5098,-3.5064,-3.4704,-3.4568,-3.4518,-3.4134,-3.3761,-3.3359,-3.2547,-3.2073,-3.1718,-3.1309,-3.119,-3.119,-3.119,-3.0666,-2.9939,-2.921,-2.8415,-2.7705,-2.7367,-2.6996,-2.6691,-2.6691,-2.6691,-2.6471,-2.5712,-2.529,-2.4769,-2.3982,-2.321,0.0,0.0,-2.2281,-2.2149,-2.2555,-2.2193,-2.2049,-2.242,-2.2043,-2.1812,-2.1812,-2.1812,-2.1812,-2.1812,-2.1812,-2.198,-2.2377,-2.2329,-2.2501,-2.2971,-2.3106,-2.331,-2.3595,-2.3595,-2.3595,-2.3595,-2.3595,-2.3595,-2.3595,-2.3595,-2.3595,-2.3595,-2.3595,-2.3595,-2.3551,-2.3091,-2.2581,-2.2035,-2.1565,-2.1106,-2.0699,-3.9331,-3.8897,-3.8426,-3.8227,-3.8209,-3.8089,-3.7721,-3.7302,-3.7036,-3.7036,-3.6958,-3.6781,-3.6471,-3.643,-3.6305,-3.5941,-3.5898,-3.5898,-3.5898,-3.5898,-3.5827,-3.5622,-3.56,-3.56,-3.56,-3.56,-3.56,-3.56,-3.56,-3.56,-3.56,-3.56,-3.56,-3.56,-3.56,-3.56,-3.56,-3.56,-3.56,-3.56,-3.56,-3.56,-3.56,-3.56,-3.56,-3.56,-3.56,-3.56,-3.5498,-3.4945,-3.4641,-3.4286,-3.3173,-3.2699,-3.2412,-3.1684,-3.1326,-3.119,-3.119,-3.0784,-3.0311,-3.0142,-2.921,-2.8246,-2.7891,-2.735,-2.6911,-2.6725,-2.6691,-2.6522,-2.5964,-2.5727,-2.5406,-2.4785,0.0,0.0,0.0,-2.2977,-2.2794,-2.34,-2.2902,-2.2692,-2.3261,-2.2568,-2.2076,-2.2076,-2.191,-2.1812,-2.1812,-2.1812,-2.2181,-2.2996,-2.2991,-2.308,-2.335,-2.3498,-2.3595,-2.3595,-2.3595,-2.3595,-2.3595,-2.3595,-2.3595,-2.3595,-2.3595,-2.3595,-2.3595,-2.3595,-2.3595,-2.3551,-2.3091,-2.2581,-2.2035,-2.1565,-2.1106,-2.0699,-3.9615,-3.9384,-3.9079,-3.8336,-3.8209,-3.8192,-3.814,-3.7756,-3.7469,-3.7469,-3.7132,-3.688,-3.686,-3.686,-3.6841,-3.6801,-3.6801,-3.6801,-3.6801,-3.6801,-3.6437,-3.5644,-3.56,-3.56,-3.56,-3.56,-3.56,-3.56,-3.56,-3.56,-3.56,-3.56,-3.56,-3.56,-3.56,-3.56,-3.56,-3.56,-3.56,-3.56,-3.56,-3.56,-3.56,-3.56,-3.56,-3.56,-3.56,-3.56,-3.5583,-3.5532,-3.5064,-3.4472,-3.4353,-3.3863,-3.3169,-3.2446,-3.1752,-3.119,-3.119,-3.1157,-3.0954,-3.0277,-3.0004,-2.9548,-2.8128,-2.7756,-2.7536,-2.6843,-2.6691,-2.6674,-2.6623,-2.6065,-2.5576,-2.5525,0.0,0.0,-2.4391,-2.4357,-2.4309,-2.4315,-2.4249,-2.4218,-2.419,-2.3427,-2.2899,-2.2899,-2.2224,-2.1812,-2.1812,-2.1812,-2.2289,-2.3333,-2.3599,-2.3721,-2.3765,-2.365,-2.3595,-2.3595,-2.3595,-2.3595,-2.3595,-2.3595,-2.3595,-2.3595,-2.3595,-2.3595,-2.3595,-2.3595,-2.3595,-2.3551,-2.3091,-2.2581,-2.2035,-2.1565,-2.1106,-2.0699,-4.1062,-4.034,-3.9562,-3.914,-3.9228,-3.9119,-3.8383,-3.8104,-3.7984,-3.795,-3.7845,-3.7632,-3.7321,-3.7357,-3.7264,-3.6919,-3.69,-3.69,-3.69,-3.69,-3.6641,-3.6067,-3.6045,-3.5893,-3.56,-3.56,-3.56,-3.56,-3.56,-3.56,-3.56,-3.56,-3.56,-3.56,-3.56,-3.56,-3.56,-3.56,-3.56,-3.56,-3.56,-3.56,-3.56,-3.56,-3.56,-3.56,-3.56,-3.56,-3.56,-3.56,-3.5397,-3.5115,-3.4641,-3.4303,-3.3846,-3.2649,-3.1785,-3.119,-3.119,-3.119,-3.1123,-3.0852,-3.0446,-2.9837,-2.8772,-2.8145,-2.7587,-2.6843,-2.6691,-2.6691,-2.6691,-2.6471,-2.6285,-2.6285,0.0,-2.5169,-2.5169,-2.4795,-2.4661,-2.5086,-2.4701,-2.4569,-2.5008,-2.429,-2.3624,-2.3157,-2.2842,-2.263,-2.2553,-2.337,-2.4034,-2.4442,-2.4705,-2.4608,-2.4109,-2.406,-2.3888,-2.3595,-2.3595,-2.3595,-2.3595,-2.3595,-2.3595,-2.3595,-2.3595,-2.3595,-2.3595,-2.3595,-2.3421,-2.3113,-2.2603,-2.2095,-2.1612,-2.1131,-2.0848,-2.0699,-4.2176,-4.1314,-4.0447,-4.0042,-4.0183,-3.9966,-3.8882,-3.8704,-3.8687,-3.8655,-3.8452,-3.8295,-3.8168,-3.8023,-3.7756,-3.7396,-3.7359,-3.7359,-3.7359,-3.7359,-3.7113,-3.6512,-3.6492,-3.6346,-3.6028,-3.6028,-3.6028,-3.6028,-3.6028,-3.6028,-3.6028,-3.6028,-3.6028,-3.6028,-3.6028,-3.6028,-3.6006,-3.5871,-3.5805,-3.5822,-3.5667,-3.56,-3.56,-3.56,-3.56,-3.56,-3.56,-3.56,-3.56,-3.56,-3.56,-3.5498,-3.5013,-3.4692,-3.4252,-3.3021,-3.2124,-3.1478,-3.1258,-3.119,-3.119,-3.119,-3.0818,-3.026,-2.9499,-2.8738,-2.796,-2.7199,-2.686,-2.6691,-2.6691,-2.6691,-2.6691,-2.6691,-2.6285,-2.5947,-2.5947,-2.5507,-2.5388,-2.5896,-2.5475,-2.5324,-2.5831,-2.5143,-2.4472,-2.3969,-2.3687,-2.349,-2.3348,-2.4448,-2.511,-2.511,-2.5364,-2.516,-2.4492,-2.4364,-2.4156,-2.3824,-2.3659,-2.3595,-2.3595,-2.3595,-2.3595,-2.3595,-2.3595,-2.3595,-2.3595,-2.3595,-2.3399,-2.3068,-2.2558,-2.2142,-2.1779,-2.1155,-2.0923,-2.0898,-4.2764,-4.2281,-4.1755,-4.0952,-4.0806,-4.0533,-3.9732,-3.9604,-3.9604,-3.9604,-3.8909,-3.8709,-3.9513,-3.8891,-3.8399,-3.8417,-3.8399,-3.8399,-3.8399,-3.8399,-3.7947,-3.6958,-3.69,-3.69,-3.69,-3.69,-3.69,-3.69,-3.69,-3.69,-3.69,-3.69,-3.69,-3.69,-3.69,-3.69,-3.686,-3.6471,-3.6301,-3.6259,-3.5783,-3.5622,-3.5622,-3.56,-3.56,-3.56,-3.56,-3.56,-3.56,-3.56,-3.56,-3.56,-3.56,-3.5098,-3.4353,-3.3626,-3.2882,-3.2141,-3.1413,-3.119,-3.119,-3.119,-3.119,-3.1004,-3.0277,-2.9533,-2.879,-2.7959,-2.7232,-2.6725,-2.6708,-2.6691,-2.6691,-2.6708,-2.6691,-2.6691,-2.6691,-2.6691,-2.6691,-2.6691,-2.6691,-2.6691,-2.6691,-2.5982,-2.5512,-2.5512,-2.4757,-2.4243,-2.413,-2.4746,-2.511,-2.511,-2.5364,-2.5313,-2.4902,-2.4513,-2.4302,-2.4281,-2.3824,-2.3595,-2.3595,-2.3595,-2.3595,-2.3595,-2.3595,-2.3595,-2.3595,-2.3595,-2.3595,-2.3551,-2.3068,-2.2889,-2.2777,-2.1756,-2.1399,-2.1326,-4.3695,-4.3474,-4.3072,-4.2032,-4.1852,-4.1562,-4.0725,-4.058,-4.0363,-3.9694,-3.9471,-3.9433,-3.9568,-3.8905,-3.8684,-3.9201,-3.8745,-3.8399,-3.8399,-3.8399,-3.8267,-3.7965,-3.7667,-3.7396,-3.7114,-3.7114,-3.7076,-3.698,-3.698,-3.6941,-3.69,-3.69,-3.69,-3.69,-3.69,-3.69,-3.688,-3.6761,-3.6719,-3.6719,-3.656,-3.6498,-3.6478,-3.6199,-3.6088,-3.6045,-3.5734,-3.56,-3.56,-3.56,-3.56,-3.56,-3.56,-3.5098,-3.4455,-3.4235,-3.3292,-3.2242,-3.2039,-3.1599,-3.119,-3.119,-3.119,-3.1004,-3.0277,-2.9939,-2.9397,-2.8077,-2.7621,-2.7386,-2.7107,-2.6858,-2.6775,-2.7005,-2.6858,-2.6691,-2.6691,-2.6691,-2.6691,-2.6691,-2.6691,-2.6691,-2.6691,-2.6488,-2.6134,-2.5594,-2.5228,-2.4946,-2.488,-2.5509,-2.5871,-2.5871,-2.5946,-2.5936,-2.5807,-2.4795,-2.4135,-2.3824,-2.3659,-2.3595,-2.3595,-2.3595,-2.3595,-2.3595,-2.3595,-2.3595,-2.3595,-2.3595,-2.3399,-2.3068,-2.2558,-2.2142,-2.1756,-2.1131,-2.0923,-2.0898,-4.4374,-4.4136,-4.3775,-4.3086,-4.2864,-4.2489,-4.1632,-4.1505,-4.1196,-4.0323,-4.0264,-4.0282,-4.0196,-3.9806,-3.9713,-4.0141,-3.9739,-3.9481,-3.9481,-3.9481,-3.9481,-3.9481,-3.9248,-3.8667,-3.7703,-3.7667,-3.7632,-3.7542,-3.7542,-3.7487,-3.745,-3.7431,-3.7413,-3.7413,-3.7413,-3.7413,-3.7394,-3.7208,-3.7151,-3.7132,-3.6958,-3.69,-3.686,-3.6618,-3.6553,-3.6495,-3.6224,-3.6006,-3.5871,-3.5871,-3.5739,-3.56,-3.56,-3.5278,-3.4878,-3.4573,-3.3884,-3.3038,-3.2462,-3.2091,-3.1801,-3.1494,-3.1291,-3.1072,-3.0632,-3.0427,-2.9989,-2.8925,-2.8592,-2.8254,-2.7571,-2.7267,-2.7114,-2.7024,-2.6841,-2.6691,-2.6691,-2.6691,-2.6691,-2.6691,-2.6691,-2.6691,-2.6691,-2.6691,-2.6522,-2.6065,-2.5899,-2.5799,-2.5765,-2.6113,-2.631,-2.631,-2.6115,-2.599,-2.599,-2.4875,-2.4245,-2.411,-2.3752,-2.3595,-2.3595,-2.3595,-2.3595,-2.3595,-2.3595,-2.3595,-2.3595,-2.3595,-2.3312,-2.2867,-2.2535,-2.2119,-2.1612,-2.1155,-2.0997,-2.0947,-4.4819,-4.4402,-4.4064,-4.4033,-4.3779,-4.3324,-4.2607,-4.2496,-4.2185,-4.1362,-4.1236,-4.1236,-4.1205,-4.1132,-4.1132,-4.1187,-4.1132,-4.1095,-4.1095,-4.1095,-4.1095,-4.1095,-4.1095,-4.0315,-3.867,-3.8634,-3.8597,-3.8526,-3.8463,-3.8396,-3.8307,-3.8241,-3.8225,-3.8225,-3.8225,-3.8225,-3.8191,-3.7756,-3.756,-3.7542,-3.7132,-3.6958,-3.6939,-3.688,-3.688,-3.69,-3.6841,-3.6638,-3.6367,-3.6367,-3.6092,-3.5739,-3.5694,-3.5694,-3.5537,-3.4837,-3.4561,-3.4206,-3.2805,-3.2625,-3.2657,-3.1846,-3.1428,-3.121,-3.1271,-3.0994,-3.0589,-3.0223,-2.9827,-2.9214,-2.8132,-2.7858,-2.7588,-2.6962,-2.6775,-2.6691,-2.6691,-2.6691,-2.6691,-2.6691,-2.6691,-2.6691,-2.6691,-2.6691,-2.6691,-2.6674,-2.6623,-2.6606,-2.6606,-2.6537,-2.6502,-2.6502,-2.601,-2.5738,-2.5701,-2.4799,-2.4513,-2.4843,-2.4006,-2.3595,-2.3595,-2.3595,-2.3595,-2.3595,-2.3595,-2.3595,-2.3595,-2.3595,-2.3355,-2.2957,-2.2912,-2.2581,-2.2035,-2.1565,-2.1375,-2.1277,-4.4856,-4.4701,-4.4559,-4.4346,-4.426,-4.4161,-4.3974,-4.3936,-4.355,-4.2477,-4.2353,-4.2263,-4.2062,-4.148,-4.1352,-4.1992,-4.1462,-4.1095,-4.1095,-4.1095,-4.1095,-4.1095,-4.1095,-4.0914,-4.0514,-4.0496,-4.017,-3.9502,-3.9485,-3.909,-3.8385,-3.8368,-3.8352,-3.8352,-3.8352,-3.8352,-3.8352,-3.8188,-3.8121,-3.8087,-3.756,-3.7377,-3.7321,-3.6741,-3.6704,-3.6921,-3.6371,-3.6539,-3.6999,-3.6999,-3.6941,-3.6786,-3.6478,-3.6374,-3.6295,-3.5797,-3.518,-3.447,-3.3569,-3.2873,-3.2264,-3.1497,-3.1252,-3.1349,-3.1914,-3.1756,-3.1282,-3.0624,-3.0219,-2.9785,-2.9178,-2.8355,-2.7826,-2.7928,-2.7249,-2.6691,-2.6691,-2.6691,-2.6691,-2.6691,-2.6691,-2.6691,-2.6691,-2.6691,-2.6674,-2.664,-2.6606,-2.6589,-2.652,-2.6502,-2.6502,-2.6502,-2.6294,-2.6012,-2.5701,-2.5079,-2.4659,-2.441,-2.3873,-2.3595,-2.3595,-2.3595,-2.3595,-2.3595,-2.3595,-2.3595,-2.3595,-2.3595,-2.353,-2.3399,-2.3046,-2.2581,-2.2035,-2.1565,-2.118,-2.0848,-4.5057,-4.4922,-4.4751,-4.4612,-4.4479,-4.4397,-4.4397,-4.4397,-4.406,-4.3062,-4.3272,-4.3312,-4.2794,-4.2689,-4.2838,-4.3265,-4.2912,-4.2671,-4.2671,-4.2554,-4.2477,-4.2477,-4.2333,-4.2249,-4.2249,-4.2249,-4.1647,-4.0425,-4.0392,-4.0121,-3.965,-3.9564,-3.9548,-3.9548,-3.9548,-3.9548,-3.9548,-3.9516,-3.9483,-3.943,-3.8774,-3.849,-3.8418,-3.7648,-3.747,-3.7596,-3.7038,-3.688,-3.688,-3.6701,-3.662,-3.658,-3.6371,-3.6308,-3.6284,-3.6062,-3.5637,-3.5069,-3.4321,-3.3764,-3.3137,-3.2239,-3.2117,-3.2162,-3.1841,-3.1749,-3.1555,-3.0992,-3.1034,-3.0902,-3.0127,-2.9679,-2.9246,-2.8682,-2.8119,-2.7609,-2.7231,-2.718,-2.718,-2.718,-2.718,-2.7116,-2.6956,-2.694,-2.6858,-2.6657,-2.6657,-2.6623,-2.6589,-2.6589,-2.6589,-2.6589,-2.6503,-2.6225,-2.5758,-2.5214,-2.4724,-2.4281,-2.3809,-2.3595,-2.3595,-2.3595,-2.3595,-2.3595,-2.3595,-2.3595,-2.3595,-2.3595,-2.3319,-2.286,-2.2612,-2.2072,-2.1396,-2.1155,-2.0923,-2.0699,-4.5307,-4.5087,-4.4898,-4.4898,-4.4707,-4.4565,-4.4565,-4.4565,-4.4293,-4.3557,-4.4052,-4.4207,-4.349,-4.4003,-4.4397,-4.4397,-4.4397,-4.4397,-4.4397,-4.4192,-4.4064,-4.4064,-4.3812,-4.3647,-4.3647,-4.3647,-4.2879,-4.1297,-4.1266,-4.1159,-4.1013,-4.0892,-4.0857,-4.0857,-4.0857,-4.0857,-4.0857,-4.084,-4.0823,-4.0769,-4.0009,-3.963,-3.943,-3.8689,-3.836,-3.8267,-3.7879,-3.7358,-3.6818,-3.6557,-3.6454,-3.6454,-3.6371,-3.6367,-3.6346,-3.6284,-3.6156,-3.5895,-3.5162,-3.4864,-3.4473,-3.3303,-3.3243,-3.3089,-3.1728,-3.1657,-3.1805,-3.1524,-3.1914,-3.2004,-3.1063,-3.1062,-3.0787,-2.9488,-2.9187,-2.882,-2.8014,-2.7909,-2.7827,-2.7644,-2.755,-2.7413,-2.7149,-2.7117,-2.7005,-2.6725,-2.6691,-2.6691,-2.6691,-2.6691,-2.6691,-2.6691,-2.6623,-2.6348,-2.5834,-2.537,-2.4906,-2.4451,-2.4048,-2.3773,-2.3595,-2.3595,-2.3595,-2.3595,-2.3595,-2.3595,-2.3595,-2.3595,-2.312,-2.236,-2.236,-2.1837,-2.1057,-2.0898,-2.0774,-2.0699,-4.5307,-4.5256,-4.5235,-4.5235,-4.5194,-4.5173,-4.5173,-4.5173,-4.5038,-4.4643,-4.4682,-4.4625,-4.4274,-4.4341,-4.4397,-4.4397,-4.4397,-4.4397,-4.4397,-4.4374,-4.4346,-4.4346,-4.4303,-4.4289,-4.4289,-4.4289,-4.3576,-4.2139,-4.2122,-4.1774,-4.1079,-4.1079,-4.1062,-4.1062,-4.1062,-4.1062,-4.1062,-4.0996,-4.0979,-4.0928,-4.0347,-3.9698,-3.9049,-3.8652,-3.8259,-3.7929,-3.765,-3.7685,-3.793,-3.8236,-3.8334,-3.8269,-3.793,-3.7826,-3.7738,-3.7414,-3.7192,-3.6939,-3.6198,-3.5898,-3.5437,-3.3952,-3.3631,-3.3416,-3.2525,-3.2484,-3.2634,-3.2601,-3.2435,-3.2248,-3.2108,-3.1581,-3.1139,-3.0928,-3.0347,-2.966,-2.8838,-2.8732,-2.838,-2.7376,-2.7021,-2.6825,-2.6775,-2.6775,-2.6741,-2.6708,-2.6691,-2.6691,-2.6691,-2.6691,-2.6691,-2.6691,-2.6623,-2.6399,-2.5977,-2.5779,-2.5484,-2.5067,-2.5012,-2.4491,-2.3595,-2.3595,-2.3595,-2.3595,-2.3595,-2.3595,-2.3595,-2.3595,-2.3508,-2.3399,-2.3399,-2.3076,-2.2503,-2.1626,-2.1033,-2.0699,-4.5307,-4.5307,-4.5307,-4.5307,-4.5307,-4.5307,-4.5307,-4.5307,-4.5246,-4.5098,-4.5087,-4.5023,-4.4917,-4.4887,-4.4887,-4.4887,-4.4887,-4.4887,-4.4887,-4.4733,-4.4624,-4.4624,-4.4479,-4.4397,-4.4397,-4.4397,-4.4088,-4.3472,-4.3323,-4.2963,-4.2433,-4.2433,-4.2433,-4.2433,-4.2433,-4.2433,-4.2433,-4.2417,-4.24,-4.2328,-4.1646,-4.1158,-4.0722,-3.9692,-3.9181,-3.89,-3.8127,-3.7791,-3.7791,-3.7965,-3.8034,-3.8,-3.7826,-3.7756,-3.7721,-3.756,-3.7414,-3.7234,-3.6897,-3.6577,-3.6007,-3.4641,-3.4308,-3.4047,-3.3053,-3.3047,-3.3126,-3.2666,-3.2469,-3.2351,-3.2317,-3.2036,-3.1734,-3.1471,-3.1148,-3.0747,-3.0159,-3.008,-2.9719,-2.8774,-2.7971,-2.7424,-2.7274,-2.7101,-2.6907,-2.6708,-2.6691,-2.6691,-2.6691,-2.6691,-2.6691,-2.6691,-2.6674,-2.6435,-2.5997,-2.5941,-2.567,-2.5202,-2.4969,-2.4628,-2.4152,-2.4152,-2.4042,-2.3818,-2.3818,-2.3818,-2.3818,-2.3739,-2.3573,-2.3341,-2.3009,-2.2443,-2.1779,-2.1337,-2.1033,-2.0873]},{"header":{"parameterUnit":"m.s-1","parameterCategory":1,"la1":30.6,"la2":28.766,"lo1":-90.7593,"lo2":-88.6598,"dy":0.0162,"dx":0.0183,"nx":116,"ny":114,"refTime":"2024-06-25T06:00:00:Z","depth":0,"parameterNumber":3,"parameterNumberName":"V-component_of_WINDS"},"data":[0.0,0.0,0.0,0.0,0.0,0.0,0.0,0.0,0.0,0.0,0.0,0.0,0.0,0.0,0.0,0.0,0.0,0.0,0.0,0.0,0.0,0.0,0.0,0.0,0.0,0.0,0.0,0.0,0.0,0.0,0.0,0.0,0.0,0.0,0.0,0.0,0.0,0.0,0.0,0.0,0.0,0.0,0.0,0.0,0.0,0.0,0.0,0.0,0.0,0.0,0.0,0.0,0.0,0.0,0.0,0.0,0.0,0.0,0.0,0.0,0.0,0.0,0.0,0.0,0.0,0.0,0.0,0.0,0.0,0.0,0.0,0.0,0.0,0.0,0.0,0.0,0.0,0.0,0.0,0.0,0.0,0.0,0.0,0.0,0.0,0.0,0.0,0.0,0.0,0.0,0.0,0.0,0.0,0.0,0.0,0.0,0.0,0.0,0.0,0.0,0.0,0.0,0.0,0.0,0.0,0.0,0.0,0.0,0.0,0.0,0.0,0.0,0.0,0.0,0.0,0.0,0.0,0.0,0.0,0.0,0.0,0.0,0.0,0.0,0.0,0.0,0.0,0.0,0.0,0.0,0.0,0.0,0.0,0.0,0.0,0.0,0.0,0.0,0.0,0.0,0.0,0.0,0.0,0.0,0.0,0.0,0.0,0.0,0.0,0.0,0.0,0.0,0.0,0.0,0.0,0.0,0.0,0.0,0.0,0.0,0.0,0.0,0.0,0.0,0.0,0.0,0.0,0.0,0.0,0.0,0.0,0.0,0.0,0.0,0.0,0.0,0.0,0.0,0.0,0.0,0.0,0.0,0.0,0.0,0.0,0.0,0.0,0.0,0.0,0.0,0.0,0.0,0.0,0.0,0.0,0.0,0.0,0.0,0.0,0.0,0.0,0.0,0.0,0.0,0.0,0.0,0.0,0.0,0.0,0.0,0.0,0.0,0.0,0.0,0.0,0.0,0.0,0.0,0.0,0.0,0.0,0.0,0.0,0.0,0.0,0.0,0.0,0.0,0.0,0.0,0.0,0.0,0.0,0.0,0.0,0.0,0.0,0.0,0.0,0.0,0.0,0.0,0.0,0.0,0.0,0.0,0.0,0.0,0.0,0.0,0.0,0.0,0.0,0.0,0.0,0.0,0.0,0.0,0.0,0.0,0.0,0.0,0.0,0.0,0.0,0.0,0.0,0.0,0.0,0.0,0.0,0.0,0.0,0.0,0.0,0.0,0.0,0.0,0.0,0.0,0.0,0.0,0.0,0.0,0.0,0.0,0.0,0.0,0.0,0.0,0.0,0.0,0.0,0.0,0.0,0.0,0.0,0.0,0.0,0.0,0.0,0.0,0.0,0.0,0.0,0.0,0.0,0.0,0.0,0.0,0.0,0.0,0.0,0.0,0.0,0.0,0.0,0.0,0.0,0.0,0.0,0.0,0.0,0.0,0.0,0.0,0.0,0.0,0.0,0.0,0.0,0.0,0.0,0.0,0.0,0.0,0.0,0.0,0.0,0.0,0.0,0.0,0.0,0.0,0.0,0.0,0.0,0.0,0.0,0.0,0.0,0.0,0.0,0.0,0.0,0.0,0.0,0.0,0.0,0.0,0.0,0.0,0.0,0.0,0.0,0.0,0.0,0.0,0.0,0.0,0.0,0.0,0.0,0.0,0.0,0.0,0.0,0.0,0.0,0.0,0.0,0.0,0.0,0.0,0.0,0.0,0.0,0.0,0.0,0.0,0.0,0.0,0.0,0.0,0.0,0.0,0.0,0.0,0.0,0.0,0.0,0.0,0.0,0.0,0.0,0.0,0.0,0.0,0.0,0.0,0.0,0.0,0.0,0.0,0.0,0.0,0.0,0.0,0.0,0.0,0.0,0.0,0.0,0.0,0.0,0.0,0.0,0.0,0.0,0.0,0.0,0.0,0.0,0.0,0.0,0.0,0.0,0.0,0.0,0.0,0.0,0.0,0.0,0.0,0.0,0.0,0.0,0.0,0.0,0.0,0.0,0.0,0.0,0.0,0.0,0.0,0.0,0.0,0.0,0.0,0.0,0.0,0.0,0.0,0.0,0.0,0.0,0.0,0.0,0.0,0.0,0.0,0.0,0.0,0.0,0.0,0.0,0.0,0.0,0.0,0.0,0.0,0.0,0.0,0.0,0.0,0.0,0.0,0.0,0.0,0.0,0.0,0.0,0.0,0.0,0.0,0.0,0.0,0.0,0.0,0.0,0.0,0.0,0.0,0.0,0.0,0.0,0.0,0.0,0.0,0.0,0.0,0.0,0.0,0.0,0.0,0.0,0.0,0.0,0.0,0.0,0.0,0.0,0.0,0.0,0.0,0.0,0.0,0.0,0.0,0.0,0.0,0.0,0.0,0.0,0.0,0.0,0.0,0.0,0.0,0.0,0.0,0.0,0.0,0.0,0.0,0.0,0.0,0.0,0.0,0.0,0.0,0.0,0.0,0.0,0.0,0.0,0.0,0.0,0.0,0.0,0.0,0.0,0.0,0.0,0.0,0.0,0.0,0.0,0.0,0.0,0.0,0.0,0.0,0.0,0.0,0.0,0.0,0.0,0.0,0.0,0.0,0.0,0.0,0.0,0.0,0.0,0.0,0.0,0.0,0.0,0.0,0.0,0.0,0.0,0.0,0.0,0.0,0.0,0.0,0.0,0.0,0.0,0.0,0.0,0.0,0.0,0.0,0.0,0.0,0.0,0.0,0.0,0.0,0.0,0.0,0.0,0.0,0.0,0.0,0.0,0.0,0.0,0.0,0.0,0.0,0.0,0.0,0.0,0.0,0.0,0.0,0.0,0.0,0.0,0.0,0.0,0.0,0.0,0.0,0.0,0.0,0.0,0.0,0.0,0.0,0.0,0.0,0.0,0.0,0.0,0.0,0.0,0.0,0.0,0.0,0.0,0.0,0.0,0.0,0.0,0.0,0.0,0.0,0.0,0.0,0.0,0.0,0.0,0.0,0.0,0.0,0.0,0.0,0.0,0.0,0.0,0.0,0.0,0.0,0.0,0.0,0.0,0.0,0.0,0.0,0.0,0.0,0.0,0.0,0.0,0.0,0.0,0.0,0.0,0.0,0.0,0.0,0.0,0.0,0.0,0.0,0.0,0.0,0.0,0.0,0.0,0.0,0.0,0.0,0.0,0.0,0.0,0.0,0.0,0.0,0.0,0.0,0.0,0.0,0.0,0.0,0.0,0.0,0.0,0.0,0.0,0.0,0.0,0.0,0.0,0.0,0.0,0.0,0.0,0.0,0.0,0.0,0.0,0.0,0.0,0.0,0.0,0.0,0.0,0.0,0.0,0.0,0.0,0.0,0.0,0.0,0.0,0.0,0.0,0.0,0.0,0.0,0.0,0.0,0.0,0.0,0.0,0.0,0.0,0.0,0.0,0.0,0.0,0.0,0.0,0.0,0.0,0.0,0.0,0.0,0.0,0.0,0.0,0.0,0.0,0.0,0.0,0.0,0.0,0.0,0.0,0.0,0.0,0.0,0.0,0.0,0.0,0.0,0.0,0.0,0.0,0.0,0.0,0.0,0.0,0.0,0.0,0.0,0.0,0.0,0.0,0.0,0.0,0.0,0.0,0.0,0.0,0.0,0.0,0.0,0.0,0.0,0.0,0.0,0.0,0.0,0.0,0.0,0.0,0.0,0.0,0.0,0.0,0.0,0.0,0.0,0.0,0.0,0.0,0.0,0.0,0.0,0.0,0.0,0.0,0.0,0.0,0.0,0.0,0.0,0.0,0.0,0.0,0.0,0.0,0.0,0.0,0.0,0.0,0.0,0.0,0.0,0.0,0.0,0.0,0.0,0.0,0.0,0.0,0.0,0.0,0.0,0.0,0.0,0.0,0.0,0.0,0.0,0.0,0.0,0.0,0.0,0.0,0.0,0.0,0.0,0.0,0.0,0.0,0.0,0.0,0.0,0.0,0.0,0.0,0.0,0.0,0.0,0.0,0.0,0.0,0.0,0.0,0.0,0.0,0.0,0.0,0.0,0.0,0.0,0.0,0.0,0.0,0.0,0.0,0.0,0.0,0.0,0.0,0.0,0.0,0.0,0.0,0.0,0.0,0.0,0.0,0.0,0.0,0.0,0.0,0.0,0.0,0.0,0.0,0.0,0.0,0.0,0.0,0.0,0.0,0.0,0.0,0.0,0.0,0.0,0.0,0.0,0.0,0.0,0.0,0.0,0.0,0.0,0.0,0.0,0.0,0.0,0.0,0.0,0.0,0.0,0.0,0.0,0.0,0.0,0.0,0.0,0.0,0.0,0.0,0.0,0.0,0.0,0.0,0.0,0.0,0.0,0.0,0.0,0.0,0.0,0.0,0.0,0.0,0.0,0.0,0.0,0.0,0.0,0.0,0.0,0.0,0.0,0.0,0.0,0.0,0.0,0.0,0.0,0.0,0.0,0.0,0.0,0.0,0.0,0.0,0.0,0.0,0.0,0.0,0.0,0.0,0.0,0.0,0.0,0.0,0.0,0.0,0.0,0.0,0.0,0.0,0.0,0.0,0.0,0.0,0.0,0.0,0.0,0.0,0.0,0.0,0.0,0.0,0.0,0.0,0.0,0.0,0.0,0.0,0.0,0.0,0.0,0.0,0.0,0.0,0.0,0.0,0.0,0.0,0.0,0.0,0.0,0.0,0.0,0.0,0.0,0.0,0.0,0.0,0.0,0.0,0.0,0.0,0.0,0.0,0.0,0.0,0.0,0.0,0.0,0.0,0.0,0.0,0.0,0.0,0.0,0.0,0.0,0.0,0.0,0.0,0.0,0.0,0.0,0.0,0.0,0.0,0.0,0.0,0.0,0.0,0.0,0.0,0.0,0.0,0.0,0.0,0.0,0.0,0.0,0.0,0.0,0.0,0.0,0.0,0.0,0.0,0.0,0.0,0.0,0.0,0.0,0.0,0.0,0.0,0.0,0.0,0.0,0.0,0.0,0.0,0.0,0.0,0.0,0.0,0.0,0.0,0.0,0.0,0.0,0.0,0.0,0.0,0.0,0.0,0.0,0.0,0.0,0.0,0.0,0.0,0.0,0.0,0.0,0.0,0.0,0.0,0.0,0.0,0.0,0.0,0.0,0.0,0.0,0.0,0.0,0.0,0.0,0.0,0.0,0.0,0.0,0.0,0.0,0.0,0.0,0.0,0.0,0.0,0.0,0.0,0.0,0.0,0.0,0.0,0.0,0.0,0.0,0.0,0.0,0.0,0.0,0.0,0.0,0.0,0.0,0.0,0.0,0.0,0.0,0.0,0.0,0.0,0.0,0.0,0.0,0.0,0.0,0.0,0.0,0.0,0.0,0.0,0.0,0.0,0.0,0.0,0.0,0.0,0.0,0.0,0.0,0.0,0.0,0.0,0.0,0.0,0.0,0.0,0.0,0.0,0.0,0.0,0.0,0.0,0.0,0.0,0.0,0.0,0.0,0.0,0.0,0.0,0.0,0.0,0.0,0.0,0.0,0.0,0.0,0.0,0.0,0.0,0.0,0.0,0.0,0.0,0.0,0.0,0.0,0.0,0.0,0.0,0.0,0.0,0.0,0.0,0.0,0.0,0.0,0.0,0.0,0.0,0.0,0.0,0.0,0.0,0.0,0.0,0.0,0.0,0.0,0.0,0.0,0.0,0.0,0.0,0.0,0.0,0.0,0.0,0.0,0.0,0.0,0.0,0.0,0.0,0.0,0.0,0.0,0.0,0.0,0.0,0.0,0.0,0.0,0.0,0.0,0.0,0.0,0.0,0.0,0.0,0.0,0.0,0.0,0.0,0.0,0.0,0.0,0.0,0.0,0.0,0.0,0.0,0.0,0.0,0.0,0.0,0.0,0.0,0.0,0.0,0.0,0.0,0.0,0.0,0.0,0.0,0.0,0.0,0.0,0.0,0.0,0.0,0.0,0.0,0.0,0.0,0.0,0.0,0.0,0.0,0.0,0.0,0.0,0.0,0.0,0.0,0.0,0.0,0.0,0.0,0.0,0.0,0.0,0.0,0.0,0.0,0.0,0.0,0.0,0.0,0.0,0.0,0.0,0.0,0.0,0.0,0.0,0.0,0.0,0.0,0.0,0.0,0.0,0.0,0.0,0.0,0.0,0.0,0.0,-1.6156,0.0,0.0,0.0,0.0,0.0,0.0,0.0,0.0,0.0,0.0,0.0,0.0,0.0,0.0,0.0,0.0,0.0,0.0,0.0,0.0,0.0,0.0,0.0,0.0,-0.3062,-0.3096,-0.3135,-0.3135,-0.3186,-0.3283,0.0,0.0,0.0,0.0,0.0,-0.4593,-0.4788,-0.522,-0.5914,-0.6631,-0.7467,-0.844,-0.8416,-0.8263,-0.7991,0.0,0.0,0.0,0.0,0.0,0.0,0.0,0.0,0.0,0.0,0.0,0.0,0.0,0.0,0.0,0.0,0.0,0.0,0.0,0.0,0.0,0.0,0.0,0.0,0.0,0.0,0.0,0.0,0.0,0.0,0.0,0.0,0.0,0.0,0.0,0.0,0.0,0.0,0.0,0.0,0.0,0.0,0.0,0.0,0.0,0.0,0.0,0.0,0.0,0.0,0.0,0.0,0.0,0.0,0.0,0.0,0.0,0.0,0.0,0.0,0.0,0.0,0.0,0.0,0.0,0.0,0.0,0.0,0.0,0.0,0.0,-1.7434,0.0,0.0,0.0,0.0,0.0,0.0,0.0,0.0,0.0,0.0,0.0,0.0,0.0,0.0,0.0,0.0,0.0,0.0,0.0,0.0,0.0,-0.3317,-0.3488,-0.3554,-0.367,-0.3861,-0.381,-0.3841,-0.404,0.0,0.0,0.0,0.0,-0.4499,-0.477,-0.5155,-0.5852,-0.6851,-0.782,-0.9114,-1.0728,-1.1251,0.0,0.0,-0.9671,0.0,0.0,0.0,0.0,0.0,0.0,0.0,0.0,0.0,0.0,0.0,0.0,0.0,0.0,0.0,0.0,0.0,0.0,0.0,0.0,0.0,0.0,0.0,0.0,0.0,0.0,0.0,0.0,0.0,0.0,0.0,0.0,0.0,0.0,0.0,0.0,0.0,0.0,0.0,0.0,0.0,0.0,0.0,0.0,0.0,0.0,0.0,0.0,0.0,0.0,0.0,0.0,0.0,0.0,0.0,0.0,0.0,0.0,0.0,0.0,0.0,0.0,0.0,-2.293,-2.3707,-2.4078,-2.4056,-2.3976,-2.368,-2.1042,-2.0019,-2.0112,-1.8831,0.0,0.0,0.0,0.0,0.0,0.0,0.0,0.0,0.0,0.0,0.0,0.0,0.0,0.0,0.0,0.0,0.0,0.0,0.0,-0.3679,-0.4279,-0.4356,-0.4725,-0.5664,-0.5435,-0.5404,-0.583,0.0,0.0,0.0,-0.4809,-0.4905,-0.5457,-0.5533,-0.6055,-0.7065,-0.9182,-1.1108,-1.2803,0.0,0.0,0.0,-1.1366,-1.0486,0.0,0.0,0.0,0.0,0.0,0.0,0.0,0.0,0.0,0.0,0.0,0.0,0.0,0.0,0.0,0.0,0.0,0.0,0.0,0.0,0.0,0.0,0.0,0.0,0.0,0.0,0.0,0.0,0.0,0.0,0.0,0.0,0.0,0.0,0.0,0.0,0.0,0.0,0.0,0.0,0.0,0.0,-1.252,-1.4154,0.0,0.0,0.0,0.0,0.0,0.0,0.0,0.0,0.0,0.0,0.0,0.0,0.0,-2.1136,-2.2255,-2.2876,-2.3304,-2.3545,-2.4032,-2.4317,-2.4428,-2.4316,-2.4423,-2.4707,-2.4165,0.0,-2.2209,-2.0876,0.0,0.0,0.0,0.0,0.0,0.0,0.0,0.0,0.0,0.0,0.0,0.0,0.0,0.0,0.0,0.0,0.0,0.0,0.0,0.0,0.0,-0.5345,-0.574,-0.6431,-0.6433,-0.633,0.0,0.0,0.0,-0.558,-0.5556,-0.5671,-0.593,-0.6373,-0.7453,-0.9184,-1.1193,-1.2596,0.0,0.0,0.0,0.0,0.0,0.0,0.0,0.0,0.0,0.0,0.0,0.0,0.0,0.0,0.0,0.0,0.0,0.0,0.0,0.0,0.0,0.0,0.0,0.0,0.0,0.0,0.0,0.0,0.0,0.0,0.0,0.0,0.0,0.0,0.0,0.0,0.0,0.0,0.0,0.0,0.0,0.0,0.0,0.0,0.0,0.0,0.0,-1.2194,-1.4219,-1.5781,-1.5961,-1.5927,0.0,0.0,0.0,0.0,0.0,0.0,0.0,0.0,0.0,-2.2011,-2.2855,-2.3649,-2.4428,-2.5542,-2.6112,-2.6213,-2.6742,-2.6968,-2.69,-2.6862,-2.6888,-2.6994,-2.7126,-2.6463,-2.5169,-2.3566,-2.2128,-2.0842,0.0,0.0,0.0,0.0,-1.9642,-2.0279,0.0,0.0,0.0,0.0,0.0,0.0,0.0,0.0,0.0,0.0,0.0,0.0,-0.6105,-0.6446,-0.6919,-0.7675,0.0,0.0,0.0,0.0,0.0,-0.628,-0.6257,-0.6344,-0.6552,-0.7575,-0.9126,0.0,0.0,0.0,0.0,0.0,0.0,0.0,0.0,0.0,0.0,0.0,0.0,0.0,0.0,0.0,0.0,0.0,0.0,0.0,0.0,0.0,0.0,0.0,0.0,0.0,0.0,0.0,0.0,0.0,0.0,0.0,0.0,0.0,0.0,0.0,0.0,0.0,0.0,0.0,0.0,0.0,0.0,0.0,0.0,0.0,0.0,0.0,0.0,0.0,0.0,-1.3997,-1.5847,-1.7195,-1.7679,-1.7893,0.0,0.0,0.0,0.0,0.0,0.0,-2.0901,-2.1619,-2.2647,-2.4144,-2.5013,-2.5672,-2.6083,-2.7341,-2.794,-2.7955,-2.8349,-2.8453,-2.8283,-2.8197,-2.814,-2.814,-2.8383,-2.8058,-2.7267,-2.5738,-2.438,-2.3164,-2.2463,-2.1889,-2.1515,-2.1994,-2.2293,-2.2652,0.0,0.0,0.0,0.0,0.0,0.0,0.0,0.0,0.0,0.0,0.0,-0.5646,0.0,0.0,0.0,0.0,0.0,0.0,0.0,0.0,0.0,-0.7506,-0.6797,-0.6749,-0.7516,-0.9191,0.0,0.0,0.0,0.0,0.0,0.0,0.0,0.0,0.0,0.0,0.0,0.0,0.0,0.0,0.0,0.0,0.0,0.0,0.0,0.0,0.0,0.0,0.0,0.0,0.0,0.0,0.0,0.0,0.0,0.0,0.0,0.0,0.0,0.0,0.0,0.0,0.0,0.0,0.0,0.0,0.0,0.0,0.0,0.0,0.0,0.0,0.0,0.0,0.0,0.0,0.0,0.0,0.0,-1.8771,-2.0076,0.0,0.0,0.0,0.0,-2.085,-2.1482,-2.2316,-2.3382,-2.3995,-2.479,-2.5738,-2.6398,-2.7004,-2.7694,-2.7779,-2.7821,-2.7821,-2.7456,-2.7159,-2.6889,-2.6556,-2.657,-2.6799,-2.6799,-2.7118,-2.7539,-2.681,-2.5798,-2.4611,-2.3818,-2.3475,-2.346,-2.349,-2.3924,-2.447,0.0,0.0,0.0,-0.5253,-0.5358,-0.5405,-0.5272,-0.5195,-0.5273,-0.5614,-0.5844,0.0,0.0,0.0,0.0,0.0,0.0,0.0,0.0,0.0,0.0,-0.8802,-0.8297,-0.8535,-0.9645,-1.0614,0.0,0.0,0.0,0.0,0.0,0.0,0.0,0.0,0.0,0.0,0.0,0.0,0.0,0.0,0.0,0.0,0.0,0.0,0.0,0.0,0.0,0.0,0.0,0.0,0.0,0.0,0.0,0.0,0.0,0.0,0.0,0.0,0.0,0.0,0.0,0.0,0.0,0.0,0.0,0.0,0.0,0.0,0.0,0.0,0.0,0.0,0.0,0.0,0.0,0.0,0.0,0.0,0.0,-2.0759,-2.1476,0.0,-2.2131,-2.2003,-2.2135,-2.2676,-2.3139,-2.3875,-2.5022,-2.5646,-2.651,-2.7664,-2.7902,-2.8324,-2.8942,-2.8956,-2.8956,-2.8956,-2.882,-2.8683,-2.8591,-2.8467,-2.8343,-2.8249,-2.8467,-2.8369,-2.8075,-2.8352,-2.7979,-2.7163,-2.645,-2.6177,-2.6132,-2.5674,-2.5674,-2.5959,-0.503,-0.5176,0.0,-0.5388,-0.5509,-0.5574,-0.5509,-0.5579,-0.5806,-0.6247,-0.6791,0.0,0.0,0.0,0.0,0.0,0.0,0.0,0.0,0.0,-0.9171,-0.9484,-0.9341,-0.9801,-1.1029,0.0,0.0,0.0,0.0,0.0,0.0,0.0,0.0,0.0,0.0,0.0,0.0,0.0,0.0,0.0,0.0,0.0,-0.8696,0.0,0.0,0.0,0.0,0.0,0.0,0.0,0.0,0.0,0.0,0.0,0.0,0.0,0.0,0.0,0.0,0.0,0.0,0.0,0.0,0.0,0.0,0.0,0.0,0.0,0.0,0.0,0.0,0.0,0.0,0.0,0.0,0.0,0.0,0.0,-2.0069,-2.1858,-2.2817,-2.3421,-2.3641,-2.4004,-2.4347,-2.465,-2.5083,-2.5696,-2.6511,-2.7116,-2.7832,-2.8661,-2.89,-2.9195,-2.9602,-2.9602,-2.9602,-2.9602,-2.9383,-2.9257,-2.9257,-2.899,-2.8766,-2.8573,-2.8798,-2.8552,-2.812,-2.9096,-2.9272,-2.8857,-2.845,-2.8274,-2.8229,-2.7779,-2.7615,-2.769,-0.5098,-0.5108,-0.5175,-0.5366,-0.5404,-0.5472,-0.5673,-0.5939,-0.6392,-0.7201,0.0,0.0,0.0,0.0,0.0,0.0,0.0,0.0,0.0,0.0,-0.9512,-0.9541,-0.9829,-1.0518,-1.1626,0.0,0.0,0.0,0.0,0.0,0.0,0.0,0.0,0.0,0.0,0.0,0.0,0.0,0.0,0.0,0.0,0.0,-0.9747,0.0,0.0,0.0,0.0,0.0,0.0,0.0,0.0,0.0,0.0,0.0,0.0,0.0,0.0,0.0,0.0,0.0,0.0,0.0,0.0,0.0,0.0,0.0,0.0,0.0,0.0,0.0,0.0,0.0,0.0,0.0,0.0,0.0,-1.8788,-2.0246,-2.1456,-2.2002,-2.4152,-2.5217,-2.4177,-2.609,-2.7242,-2.6863,-2.7439,-2.7804,-2.7833,-2.8394,-2.8731,-2.8759,-2.9321,-2.9645,-2.9645,-2.9659,-2.9645,-2.9571,-2.8967,-2.8633,-2.8587,-2.7868,-2.7523,-2.7523,-2.7523,-2.7523,-2.7623,-2.8953,-2.9504,-2.9546,-2.96,-2.9636,-2.9636,-2.9621,-2.9606,-2.9606,-0.5098,-0.5214,-0.534,-0.5396,-0.5481,-0.5586,-0.5682,-0.605,-0.655,0.0,0.0,0.0,0.0,0.0,0.0,0.0,0.0,0.0,0.0,0.0,-0.9856,-1.0497,-1.1407,0.0,0.0,0.0,0.0,0.0,0.0,0.0,0.0,0.0,0.0,0.0,0.0,0.0,0.0,0.0,0.0,0.0,0.0,0.0,-1.0545,0.0,0.0,0.0,0.0,0.0,0.0,0.0,0.0,0.0,0.0,0.0,0.0,0.0,0.0,0.0,0.0,0.0,0.0,0.0,0.0,0.0,0.0,0.0,0.0,0.0,0.0,0.0,0.0,0.0,0.0,0.0,0.0,-1.9773,-1.9871,-2.1411,-2.2774,-2.3438,-2.4888,-2.5883,-2.6034,-2.6763,-2.7336,-2.7509,-2.7877,-2.8196,-2.8436,-2.9012,-2.956,-3.001,-3.0161,-3.0231,-3.0231,-3.074,-3.0516,-2.9617,-2.9861,-2.9624,-2.8972,-2.8734,-2.8392,-2.7947,-2.7947,-2.8066,-2.8287,-2.9142,-2.9797,-3.0227,-3.0257,-3.0253,-3.0193,-2.9771,-2.9606,-2.9606,-0.5059,-0.5176,-0.5321,-0.5453,-0.5481,-0.5548,-0.5756,-0.6303,-0.6903,-0.7474,0.0,0.0,0.0,0.0,0.0,0.0,0.0,0.0,-1.132,-1.0546,-1.0497,0.0,0.0,0.0,0.0,0.0,0.0,0.0,0.0,0.0,0.0,0.0,0.0,0.0,0.0,0.0,0.0,0.0,0.0,0.0,0.0,0.0,-1.1371,-1.0952,-1.0511,-1.0072,-0.9732,-0.9456,-0.9207,-0.8866,0.0,0.0,0.0,0.0,0.0,0.0,0.0,0.0,0.0,0.0,0.0,0.0,0.0,0.0,0.0,0.0,0.0,0.0,0.0,0.0,0.0,0.0,0.0,0.0,-2.0066,-2.1345,-2.181,-2.2578,-2.343,-2.4381,-2.5421,-2.6302,-2.6905,-2.7451,-2.7944,-2.8323,-2.874,-2.9118,-2.9431,-2.9879,-3.0304,-3.0666,-3.068,-3.068,-3.068,-3.1043,-3.0974,-3.0403,-3.0137,-2.9836,-2.9472,-2.9311,-2.8831,0.0,-2.8379,-2.8477,-2.8532,-2.9237,-2.9889,0.0,0.0,0.0,0.0,0.0,-3.0402,-3.0402,-0.501,-0.5039,-0.5176,-0.551,-0.5387,-0.5387,-0.5799,-0.6499,-0.7195,-0.7764,0.0,0.0,0.0,0.0,0.0,0.0,0.0,0.0,0.0,0.0,0.0,0.0,0.0,0.0,0.0,0.0,0.0,0.0,0.0,0.0,0.0,0.0,0.0,0.0,0.0,0.0,0.0,0.0,0.0,0.0,0.0,0.0,-1.2119,-1.1724,-1.1577,-1.1476,-1.075,-1.0493,-1.0383,-0.9677,0.0,0.0,0.0,0.0,0.0,0.0,0.0,0.0,0.0,0.0,0.0,0.0,0.0,0.0,0.0,0.0,0.0,0.0,0.0,0.0,0.0,0.0,0.0,0.0,-2.1551,-2.299,-2.4122,-2.3822,-2.3903,-2.4966,-2.5871,-2.6601,-2.7152,-2.8029,-2.8775,-2.9164,-2.966,-3.0122,-3.0517,0.0,0.0,0.0,0.0,-3.0937,-3.0937,-3.104,-3.1215,-3.1419,-3.0245,-2.9804,-3.0028,-2.9711,-2.906,-2.8272,-2.8791,-2.8859,-2.8641,-2.9348,-2.9991,-3.0673,-3.1278,-3.1511,-3.1511,-3.1511,-3.1511,-3.1511,-0.499,-0.4961,-0.503,-0.531,-0.5098,-0.5069,-0.5575,-0.6023,-0.6571,-0.7309,-0.8368,0.0,0.0,0.0,0.0,0.0,0.0,0.0,0.0,0.0,0.0,0.0,0.0,0.0,0.0,0.0,0.0,0.0,0.0,0.0,0.0,0.0,0.0,0.0,0.0,0.0,0.0,0.0,0.0,0.0,0.0,0.0,-1.2533,-1.2138,-1.1991,-1.1963,-1.1807,-1.1752,-1.1733,-1.1568,-1.1104,-1.0524,-1.0346,0.0,0.0,0.0,0.0,0.0,0.0,0.0,0.0,0.0,0.0,0.0,0.0,0.0,0.0,0.0,0.0,0.0,0.0,0.0,0.0,-2.2204,-2.3237,-2.4178,-2.5297,-2.5362,-2.5375,-2.5628,-2.6466,-2.7072,-2.7192,-2.8029,-2.8952,-2.9757,-2.9638,-2.9892,-3.0768,-3.0569,-3.065,-3.1126,-3.114,-3.114,-3.114,-3.1934,-3.1896,-3.1009,0.0,0.0,-3.0324,-2.9914,-2.9494,-2.9053,-2.9206,-2.9236,-2.9285,-2.997,-3.0651,-3.1322,-3.1438,-3.1511,-3.1511,-3.1511,-3.1511,-3.1511,-0.4892,-0.4922,-0.5,-0.5175,-0.501,-0.4981,-0.5396,-0.5786,-0.6323,-0.7094,-0.7938,0.0,0.0,0.0,0.0,0.0,0.0,0.0,0.0,0.0,0.0,0.0,0.0,0.0,0.0,0.0,0.0,0.0,0.0,0.0,0.0,0.0,0.0,0.0,0.0,0.0,0.0,0.0,0.0,0.0,0.0,0.0,-1.2964,-1.2551,-1.2275,-1.2126,-1.2378,-1.2442,-1.2491,-1.2769,-1.2582,-1.2227,-1.2001,-1.1407,-1.0666,0.0,0.0,0.0,0.0,0.0,0.0,0.0,0.0,0.0,0.0,0.0,0.0,0.0,0.0,-1.8545,0.0,0.0,-2.2073,-2.3812,-2.4583,-2.5275,-2.6125,-2.6242,-2.6242,-2.6242,-2.6651,-2.7069,-2.7327,-2.8047,-2.8746,-2.9395,-2.9841,-3.0335,-3.1027,-3.0978,-3.111,-3.1393,-3.1406,-3.1406,-3.1406,-3.1906,-3.1937,-3.1492,-3.1317,-3.1048,-3.0798,-3.0602,-3.0161,-2.957,-2.986,-2.9952,-2.9896,-3.0618,-3.1135,-3.1511,-3.1511,-3.1511,-3.1511,-3.1511,-3.1511,-3.1511,-0.4802,-0.4901,-0.5,-0.5078,-0.4991,-0.4991,-0.5262,-0.5593,-0.6078,-0.6842,-0.7476,-0.8104,-0.8746,-0.8863,-0.8937,0.0,0.0,0.0,0.0,0.0,0.0,0.0,0.0,0.0,0.0,0.0,0.0,0.0,0.0,0.0,0.0,0.0,0.0,0.0,0.0,0.0,0.0,0.0,0.0,0.0,0.0,0.0,-1.3259,-1.2946,-1.2514,-1.2141,-1.254,-1.2604,-1.2643,-1.3236,-1.3345,-1.3175,-1.3134,-1.2785,-1.2245,-1.1678,-1.1618,0.0,0.0,0.0,0.0,0.0,0.0,0.0,0.0,0.0,-1.7424,-1.9204,-1.9969,-2.0806,-2.2439,-2.3065,-2.3812,-2.5123,-2.568,-2.619,-2.6765,-2.6876,-2.6876,-2.6876,-2.6876,-2.7027,-2.7451,-2.8114,-2.8652,-2.9031,-3.0077,-3.0851,-3.1267,-3.1412,-3.1482,-3.1482,-3.1482,-3.1482,-3.1482,-3.1556,-3.174,-3.1982,-3.1185,-3.0958,-3.128,-3.1209,-3.0739,-3.0042,-3.0436,-3.0517,-3.0507,-3.0978,-3.1309,-3.1471,-3.15,-3.1499,-3.1511,-3.1511,-3.1511,-3.1511,-0.4802,-0.4863,-0.4952,-0.5078,-0.4991,-0.4991,-0.5262,-0.5195,-0.5423,-0.6278,-0.6767,-0.7324,-0.8109,-0.857,-0.9051,-0.9646,0.0,0.0,0.0,0.0,0.0,0.0,0.0,0.0,0.0,0.0,0.0,0.0,0.0,0.0,0.0,0.0,0.0,0.0,0.0,0.0,0.0,0.0,0.0,0.0,0.0,0.0,-1.3286,-1.3241,-1.2772,-1.2101,-1.2175,-1.1944,-1.1765,-1.2599,-1.2373,-1.1955,-1.3142,-1.2939,-1.2363,-1.3107,0.0,-1.221,-1.2575,-1.3053,0.0,-1.4976,-1.5947,-1.7237,0.0,0.0,-2.0518,-2.176,-2.2047,-2.248,-2.3694,-2.3939,-2.4557,-2.6248,-2.6562,-2.6778,-2.732,-2.7398,-2.7398,-2.7398,-2.7398,-2.7425,-2.749,-2.8303,-2.9084,-2.9672,-3.0268,-3.088,-3.1509,-3.1233,-3.1061,-3.1061,-3.1061,-3.1061,-3.1061,-3.1421,-3.1629,-3.1666,-3.1526,-3.1499,-3.1536,-3.118,-3.0968,-3.0839,-3.0357,-3.0493,-3.0986,-3.0651,-3.0862,-3.1427,-3.1489,-3.15,-3.1511,-3.1511,-3.1511,-3.1511,-0.4981,-0.5088,-0.5204,-0.5272,-0.5069,-0.4942,-0.5049,-0.4961,-0.5211,-0.6119,-0.6392,-0.6814,-0.7651,-0.7891,-0.8269,-0.8985,-0.9624,0.0,0.0,0.0,0.0,0.0,0.0,0.0,0.0,0.0,0.0,0.0,0.0,0.0,0.0,0.0,0.0,0.0,0.0,0.0,0.0,0.0,0.0,0.0,0.0,0.0,-1.3702,-1.3702,-1.3197,-1.2516,-1.2516,-1.2604,0.0,0.0,-1.3499,-1.3338,-1.4204,-1.4012,-1.3553,-1.3938,-1.3979,0.0,-1.4845,0.0,0.0,0.0,-1.7771,-1.9152,-2.0279,-2.1155,-2.1904,-2.2714,-2.3145,-2.3629,-2.4465,-2.4883,-2.5458,0.0,-2.6948,-2.7249,-2.7464,-2.7236,-2.7027,-2.7027,-2.7027,-2.7157,-2.7464,-2.8497,-2.9245,-2.9482,-3.0316,-3.0948,-3.1222,-3.1099,-3.0986,-3.0986,-3.0986,-3.0986,-3.0986,-3.1161,-3.1235,-3.1235,-3.1235,-3.1235,-3.1235,-3.1099,-3.0986,-3.0973,-3.0725,-3.0814,-3.1072,-3.0899,-3.0798,-3.0874,-3.1281,-3.1242,-3.097,-3.1351,-3.1511,-3.1511,-0.5098,-0.5262,-0.5395,-0.5395,-0.5194,-0.5049,-0.5059,-0.5065,-0.5353,-0.6153,-0.6288,-0.6555,-0.7172,-0.7306,-0.7568,-0.8086,-0.8986,-0.9888,0.0,0.0,0.0,0.0,0.0,0.0,0.0,0.0,0.0,0.0,0.0,0.0,0.0,0.0,0.0,0.0,0.0,0.0,0.0,0.0,0.0,0.0,0.0,0.0,-1.3856,-1.4014,-1.3616,-1.2993,-1.2732,-1.2744,0.0,0.0,-1.3634,-1.3593,-1.4417,-1.4355,-1.4041,-1.4456,-1.4936,-1.5521,-1.6369,0.0,0.0,-1.7873,-1.9202,-2.0522,-2.0828,-2.1809,-2.2823,-2.3352,-2.3812,-2.4282,-2.4887,-2.5315,0.0,-2.6588,-2.7027,-2.732,-2.7477,-2.704,-2.6758,-2.6883,-2.6798,-2.6896,-2.7438,-2.8438,-2.914,-2.931,-3.0189,-3.0817,-3.0973,-3.0986,-3.0986,-3.0986,-3.0986,-3.0986,-3.0986,-3.0986,-3.0986,-3.0986,-3.0986,-3.0986,-3.0986,-3.0986,-3.0986,-3.0986,-3.0986,-3.1022,-3.1106,-3.1307,-3.0986,-3.048,-3.1335,-3.1174,-3.0584,-3.1248,-3.1511,-3.1511,-0.5098,-0.5262,-0.5395,-0.5395,-0.5385,-0.5405,-0.5473,-0.5653,-0.5929,-0.6336,-0.6507,-0.6602,-0.663,-0.6967,-0.722,-0.7232,-0.8389,-0.9456,-1.0275,-1.1081,0.0,0.0,0.0,0.0,0.0,0.0,0.0,0.0,0.0,0.0,0.0,0.0,0.0,0.0,0.0,0.0,0.0,0.0,0.0,0.0,0.0,0.0,-1.3471,-1.4003,-1.3939,-1.3464,-1.2541,0.0,0.0,0.0,-1.1712,-1.1326,-1.3079,-1.3286,0.0,-1.4631,-1.5464,0.0,0.0,0.0,-1.7742,-1.9113,-2.0255,-2.1325,-2.2246,-2.2934,-2.3501,-2.3969,-2.4083,-2.4282,-2.4887,-2.5018,-2.5398,-2.6523,-2.6719,-2.6896,-2.7425,-2.704,-2.6883,-2.7398,-2.7013,-2.6896,0.0,-2.8059,-2.8682,-2.9271,-2.9823,-3.0361,-3.096,-3.0986,-3.0986,-3.0986,-3.0986,-3.0986,-3.0986,-3.0986,-3.0986,-3.0986,-3.0986,-3.0986,-3.0986,-3.0986,-3.0986,-3.0986,-3.0986,-3.1011,-3.106,-3.1783,-3.1368,-3.0426,-3.1846,-3.1579,-3.0584,-3.1248,-3.1511,-3.1511,-0.5471,-0.5658,-0.5797,-0.5797,-0.5797,-0.5806,-0.5826,-0.5968,-0.6206,-0.6608,-0.7058,0.0,0.0,0.0,0.0,0.0,-0.8527,-0.9327,-0.9868,-1.0906,0.0,0.0,0.0,0.0,0.0,0.0,0.0,0.0,0.0,0.0,0.0,0.0,0.0,0.0,0.0,0.0,0.0,0.0,0.0,0.0,0.0,0.0,-1.4912,-1.4772,-1.4084,-1.3156,0.0,0.0,0.0,0.0,0.0,0.0,-1.3717,0.0,0.0,-1.4743,0.0,0.0,0.0,0.0,-1.9587,-2.0381,-2.1378,-2.233,-2.2949,-2.3263,-2.3408,-2.3488,-2.3496,-2.3459,-2.3304,-2.3906,-2.4648,-2.545,-2.6209,-2.6902,-2.7411,-2.7333,-2.717,-2.6987,-2.7131,0.0,0.0,0.0,0.0,-2.9235,-2.981,-3.0348,-3.096,-3.0986,-3.0986,-3.0986,-3.0986,-3.0986,-3.0986,-3.0986,-3.0986,-3.0986,-3.0986,-3.0986,-3.0986,-3.0986,-3.0986,-3.0986,-3.0986,-3.0986,-3.1024,-3.1259,-3.1185,-3.0949,-3.1489,-3.1461,-3.1196,-3.1412,-3.1511,-3.1511,-0.5925,-0.615,-0.6341,-0.6544,-0.6578,0.0,0.0,0.0,0.0,0.0,0.0,0.0,0.0,0.0,0.0,0.0,0.0,-0.8885,-0.9436,0.0,0.0,0.0,0.0,0.0,0.0,0.0,0.0,0.0,0.0,0.0,0.0,0.0,0.0,0.0,0.0,0.0,0.0,0.0,0.0,0.0,0.0,0.0,-1.4668,-1.4573,-1.389,0.0,0.0,0.0,0.0,0.0,0.0,0.0,0.0,0.0,0.0,-1.5188,-1.6221,-1.7401,0.0,-1.9636,-2.06,-2.1475,-2.2202,-2.2807,-2.33,-2.3228,-2.3051,-2.2944,-2.2753,-2.2492,-2.2152,-2.2505,-2.3341,-2.4769,-2.562,-2.651,-2.7667,-2.7837,-2.7771,-2.7661,-2.7745,-2.7771,0.0,0.0,0.0,-2.9284,-2.981,-3.0348,-3.096,-3.0986,-3.0986,-3.0986,-3.0986,-3.0986,-3.0986,-3.0986,-3.0986,-3.0986,-3.0986,-3.0986,-3.0986,-3.0986,-3.0986,-3.0986,-3.0986,-3.1161,-3.1394,-3.1394,-3.1509,-3.1626,-3.1673,-3.1621,-3.1487,-3.1501,-3.1511,-3.1511,-0.6399,-0.6675,-0.6969,0.0,0.0,0.0,0.0,0.0,0.0,0.0,0.0,0.0,0.0,0.0,0.0,0.0,0.0,0.0,0.0,0.0,0.0,0.0,0.0,0.0,0.0,0.0,0.0,0.0,0.0,0.0,0.0,0.0,0.0,0.0,0.0,0.0,0.0,0.0,0.0,0.0,0.0,0.0,-1.2941,-1.3554,0.0,0.0,0.0,0.0,0.0,0.0,0.0,0.0,0.0,0.0,0.0,0.0,0.0,-1.8547,-1.998,-2.0492,-2.0905,-2.2384,-2.2751,-2.2862,-2.3333,-2.293,-2.2439,-2.2346,-2.1812,-2.1407,0.0,0.0,-2.1668,-2.4455,-2.4979,-2.5829,-2.8093,-2.8446,-2.8669,0.0,0.0,0.0,0.0,0.0,0.0,-2.9327,0.0,-3.0348,-3.096,-3.0986,-3.0986,-3.0986,-3.0986,-3.0986,-3.0986,-3.0986,-3.0986,-3.0986,-3.0986,-3.0986,-3.0986,-3.0986,-3.0986,-3.0986,-3.0986,-3.1431,-3.211,-3.2037,-3.2183,-3.2447,-3.2378,-3.2017,-3.1563,-3.1515,-3.1511,-3.1511,0.0,0.0,0.0,0.0,0.0,0.0,0.0,0.0,0.0,0.0,0.0,0.0,0.0,0.0,0.0,0.0,0.0,0.0,0.0,0.0,0.0,0.0,0.0,0.0,0.0,0.0,0.0,0.0,0.0,0.0,0.0,0.0,0.0,0.0,0.0,0.0,0.0,0.0,0.0,0.0,0.0,0.0,-1.397,0.0,0.0,0.0,0.0,0.0,0.0,0.0,0.0,0.0,0.0,0.0,-1.7097,0.0,0.0,-1.9888,-2.0278,-2.1481,-2.2832,-2.3634,-2.3505,-2.3348,-2.3814,-2.2821,-2.1684,-2.1238,-2.0661,-2.01,-1.9656,0.0,0.0,-2.3406,-2.4753,0.0,-2.8158,-2.88,0.0,0.0,0.0,-2.9575,-2.9301,-2.9666,0.0,0.0,-3.0009,-3.0348,-3.096,-3.0986,-3.0986,-3.0986,-3.0986,-3.0986,-3.0986,-3.0986,-3.0986,-3.0986,-3.0986,-3.0986,-3.0986,-3.0986,-3.0986,-3.0986,-3.0986,-3.1431,-3.2051,-3.1505,-3.1998,-3.3044,-3.2004,-3.1858,-3.2169,-3.1676,-3.1511,-3.1511,0.0,0.0,0.0,0.0,0.0,0.0,0.0,0.0,0.0,0.0,0.0,0.0,0.0,0.0,0.0,0.0,0.0,0.0,0.0,0.0,0.0,0.0,0.0,0.0,0.0,0.0,0.0,0.0,0.0,0.0,0.0,0.0,0.0,0.0,0.0,0.0,0.0,0.0,0.0,0.0,0.0,0.0,0.0,0.0,0.0,0.0,0.0,0.0,0.0,0.0,0.0,-1.5567,-1.6313,-1.7243,-1.8212,-1.8891,0.0,-2.0882,-2.1527,-2.2739,-2.385,-2.4145,-2.4159,-2.3939,-2.3297,-2.2332,-2.1195,-1.9946,-1.9352,0.0,0.0,0.0,0.0,0.0,0.0,0.0,-2.8072,-2.9118,-2.9745,0.0,-3.032,0.0,-3.0095,-3.032,-3.0503,0.0,-3.0503,-3.0647,-3.096,-3.0986,-3.0986,-3.0986,-3.0986,-3.0986,-3.0986,-3.0986,-3.0986,-3.0986,-3.0986,-3.0986,-3.0986,-3.0986,-3.0986,-3.0986,0.0,-3.1616,-3.2541,-3.2137,-3.2891,-3.4188,-3.2803,-3.2551,-3.2826,-3.1854,-3.1511,-3.1511,0.0,0.0,0.0,0.0,0.0,0.0,0.0,0.0,0.0,0.0,0.0,0.0,0.0,0.0,0.0,0.0,0.0,0.0,0.0,0.0,0.0,0.0,0.0,0.0,0.0,0.0,0.0,0.0,0.0,0.0,0.0,0.0,0.0,0.0,0.0,0.0,0.0,0.0,0.0,0.0,0.0,0.0,0.0,0.0,0.0,0.0,0.0,0.0,0.0,0.0,-1.6072,-1.6361,-1.7384,-1.8361,-1.9298,-2.0308,-2.0963,-2.1707,-2.3029,-2.384,-2.4281,-2.4222,-2.4466,-2.4192,-2.2295,-2.1437,-2.05,-1.8623,0.0,0.0,-1.7865,0.0,-1.9094,-2.1838,0.0,-2.5027,-2.8001,-2.9261,-3.0163,-3.0895,-3.0986,-3.0986,-3.0986,-3.0986,-3.0986,-3.0986,-3.0986,-3.0986,-3.0986,-3.0986,-3.0986,-3.0986,-3.0986,-3.0986,-3.0986,-3.0986,-3.0986,-3.0986,-3.0986,-3.0986,-3.0986,-3.0986,-3.0986,-3.0986,-3.0986,0.0,-3.3038,-3.3038,-3.3925,-3.5106,-3.3853,-3.3348,-3.3215,-3.1959,-3.1511,-3.1511,0.0,0.0,0.0,0.0,0.0,0.0,0.0,0.0,0.0,0.0,0.0,0.0,0.0,0.0,0.0,0.0,0.0,0.0,0.0,0.0,0.0,0.0,0.0,0.0,0.0,0.0,0.0,0.0,0.0,0.0,0.0,0.0,0.0,0.0,0.0,0.0,0.0,0.0,0.0,0.0,0.0,0.0,0.0,0.0,0.0,0.0,0.0,0.0,0.0,0.0,-1.7034,-1.7894,-1.8965,-1.9688,-2.0343,-2.1332,-2.2019,-2.257,-2.3224,-2.3788,-2.4246,-2.427,-2.3687,-2.2824,-2.1884,-2.0037,0.0,0.0,0.0,-1.6365,-1.6636,-1.7826,0.0,-2.1342,0.0,0.0,0.0,0.0,-2.9261,0.0,0.0,0.0,0.0,0.0,0.0,0.0,0.0,-3.0986,-3.0986,-3.0986,-3.0986,-3.0986,-3.0986,-3.0986,-3.0986,-3.0986,-3.0986,-3.0986,-3.0986,-3.0986,-3.0986,-3.0986,-3.0986,-3.0986,-3.0986,0.0,-3.229,-3.229,-3.2883,-3.3678,-3.2888,-3.2619,-3.2587,-3.1795,-3.1511,-3.1511,0.0,0.0,0.0,0.0,0.0,0.0,0.0,-1.008,-1.0596,-1.167,-1.1561,-1.1405,0.0,0.0,0.0,0.0,0.0,0.0,0.0,0.0,0.0,0.0,0.0,0.0,0.0,0.0,0.0,0.0,0.0,0.0,0.0,0.0,0.0,0.0,0.0,0.0,0.0,0.0,0.0,0.0,0.0,0.0,0.0,0.0,0.0,0.0,0.0,0.0,0.0,0.0,-1.6681,-1.7921,-1.8954,-1.9803,-2.0561,-2.1307,-2.2076,-2.2788,-2.327,-2.4012,-2.4483,-2.3973,-2.3454,-2.2596,-2.0646,0.0,0.0,0.0,0.0,-1.5632,-1.6059,0.0,0.0,0.0,0.0,0.0,0.0,0.0,0.0,0.0,0.0,0.0,0.0,0.0,0.0,0.0,0.0,-3.0986,-3.0986,-3.0986,-3.0986,-3.0986,-3.0986,-3.0986,-3.0986,-3.0986,-3.0986,-3.0986,-3.0986,-3.0986,-3.0986,-3.0986,-3.0986,-3.0986,-3.0986,0.0,-3.211,-3.211,-3.2619,-3.3322,-3.2651,-3.2452,-3.2407,-3.175,-3.1511,-3.1511,0.0,0.0,0.0,0.0,0.0,0.0,0.0,-1.0619,-1.1274,-1.2705,-1.2981,-1.2889,-1.2463,-1.1635,-1.1193,0.0,0.0,0.0,0.0,0.0,0.0,0.0,0.0,0.0,0.0,0.0,0.0,0.0,0.0,0.0,0.0,0.0,0.0,0.0,0.0,0.0,0.0,0.0,0.0,0.0,0.0,0.0,0.0,0.0,0.0,0.0,0.0,0.0,0.0,0.0,-1.5831,-1.6959,-1.8058,-1.9183,-2.0205,-2.0845,-2.1673,-2.2513,-2.3212,-2.4037,-2.4413,-2.3494,-2.305,-2.2153,-1.947,-1.7967,0.0,0.0,0.0,0.0,-1.5623,0.0,0.0,0.0,0.0,0.0,0.0,0.0,0.0,0.0,0.0,0.0,0.0,0.0,0.0,0.0,0.0,0.0,-3.0986,-3.0986,-3.0986,-3.0986,-3.0986,-3.0986,-3.0986,-3.0986,-3.0986,-3.0986,-3.0986,-3.0986,-3.0986,-3.0986,-3.0986,-3.0986,-3.0986,0.0,0.0,-3.1915,-3.2319,-3.2882,-3.2381,-3.2227,-3.2213,-3.1676,-3.1511,-3.1511,0.0,0.0,0.0,0.0,0.0,0.0,0.0,-1.0649,-1.1635,-1.2751,-1.3268,-1.3521,-1.3475,-1.3004,-1.2509,0.0,0.0,0.0,0.0,0.0,0.0,0.0,0.0,0.0,0.0,0.0,0.0,0.0,0.0,0.0,0.0,0.0,0.0,0.0,0.0,0.0,0.0,0.0,0.0,0.0,0.0,0.0,0.0,0.0,0.0,0.0,0.0,0.0,0.0,0.0,0.0,-1.4924,-1.6346,-1.7852,-1.9229,-2.0194,0.0,0.0,-2.3018,-2.3477,-2.3409,-2.288,-2.1735,-2.0336,-1.9026,0.0,0.0,0.0,-1.4203,-1.4181,-1.5019,0.0,0.0,0.0,0.0,0.0,0.0,0.0,0.0,0.0,0.0,0.0,0.0,0.0,0.0,0.0,0.0,0.0,-3.0986,-3.0986,-3.0986,-3.0986,-3.0986,-3.0986,-3.0986,-3.0986,-3.0986,-3.0986,-3.0986,-3.0986,-3.0986,-3.0986,-3.0986,-3.0986,-3.0986,0.0,0.0,-3.1231,-3.1317,-3.1419,-3.1543,-3.1587,-3.1579,-3.1515,-3.1511,-3.1511,0.0,0.0,0.0,0.0,0.0,0.0,-1.05,-1.0798,-1.1469,-1.3119,-1.3233,-1.3291,-1.3558,-1.2889,-1.2199,-1.1664,0.0,0.0,0.0,0.0,0.0,0.0,0.0,0.0,0.0,0.0,0.0,0.0,0.0,0.0,0.0,0.0,0.0,0.0,0.0,0.0,0.0,0.0,0.0,0.0,0.0,0.0,0.0,0.0,0.0,0.0,0.0,0.0,0.0,0.0,0.0,0.0,-1.427,-1.5406,0.0,0.0,-1.9838,-2.0905,-2.1824,-2.2513,-2.2868,-2.2352,-2.1101,-1.9684,-1.8591,0.0,0.0,-1.4023,-1.359,-1.3593,-1.4656,-1.5415,0.0,0.0,0.0,0.0,0.0,0.0,0.0,0.0,0.0,0.0,0.0,0.0,0.0,0.0,0.0,0.0,-3.0986,-3.0986,-3.0986,-3.0986,-3.0986,-3.0986,-3.0986,-3.0986,-3.0986,-3.0986,-3.0986,-3.0986,-3.0986,-3.0986,-3.0986,-3.0986,-3.0986,0.0,0.0,-3.0675,-3.0606,-3.0643,-3.0339,-3.0506,-3.0903,-3.0895,-3.1161,-3.1511,0.0,0.0,0.0,0.0,0.0,-0.931,-1.0649,-1.0821,-1.1377,-1.2958,-1.3004,-1.3084,-1.3535,-1.244,-1.1549,-1.1325,-1.0993,0.0,0.0,0.0,0.0,0.0,0.0,0.0,0.0,0.0,0.0,0.0,0.0,0.0,0.0,0.0,0.0,0.0,0.0,0.0,0.0,0.0,0.0,0.0,0.0,0.0,0.0,0.0,0.0,0.0,0.0,0.0,0.0,0.0,0.0,0.0,0.0,0.0,0.0,0.0,-1.8524,-1.9884,-2.058,-2.15,-2.2144,-2.1606,-2.0458,-1.9183,0.0,0.0,-1.4098,-1.3868,-1.3471,-1.3526,-1.4681,-1.5382,-1.6075,0.0,-1.7356,-1.8074,0.0,0.0,0.0,0.0,0.0,0.0,0.0,0.0,0.0,0.0,0.0,0.0,0.0,-3.0986,-3.0986,-3.0986,-3.0986,-3.0986,-3.0986,-3.0986,-3.0986,-3.0986,-3.0986,-3.0986,-3.0986,-3.0986,-3.0895,-3.0725,-3.0725,0.0,0.0,-2.9862,-2.9649,-2.9697,-2.9281,-2.9563,-3.0238,-3.0419,-3.0925,-3.1511,0.0,0.0,0.0,0.0,0.0,0.0,-0.9666,-1.0661,-1.1486,-1.2038,-1.2567,-1.3084,-1.3535,-1.1813,-1.0798,-1.1268,-1.1302,0.0,0.0,0.0,0.0,0.0,0.0,0.0,0.0,0.0,0.0,0.0,0.0,0.0,0.0,0.0,0.0,0.0,0.0,0.0,0.0,0.0,0.0,0.0,0.0,0.0,0.0,0.0,0.0,0.0,0.0,0.0,0.0,0.0,0.0,0.0,0.0,0.0,0.0,0.0,-1.6968,-1.8364,-1.9424,-2.0454,-2.1086,-2.0549,-1.9666,-1.8632,0.0,-1.5441,-1.3753,-1.427,-1.4058,-1.4125,-1.5192,-1.5949,-1.6558,-1.7107,-1.7695,0.0,0.0,0.0,0.0,0.0,0.0,0.0,0.0,0.0,0.0,0.0,0.0,0.0,0.0,-3.0986,-3.0986,-3.0986,-3.0986,-3.0986,-3.0986,-3.0986,-3.0986,-3.0986,-3.0986,-3.0986,-3.0986,-3.0986,-3.0673,0.0,0.0,0.0,0.0,-2.8682,-2.8433,-2.8436,-2.8496,-2.8903,-2.9597,-3.0269,-3.0925,-3.1511,0.0,0.0,0.0,0.0,0.0,0.0,0.0,-0.9804,-1.0103,-1.0952,-1.0895,-1.1101,-1.1951,-1.086,-1.0248,-1.0791,-1.0489,0.0,0.0,0.0,0.0,0.0,0.0,0.0,0.0,0.0,0.0,0.0,0.0,0.0,0.0,0.0,0.0,0.0,0.0,0.0,0.0,0.0,0.0,0.0,0.0,0.0,0.0,0.0,0.0,0.0,0.0,0.0,0.0,0.0,0.0,0.0,0.0,0.0,0.0,-1.3714,0.0,0.0,-1.7867,-1.8586,-1.9028,-1.8868,-1.8066,-1.7229,-1.6933,-1.5165,-1.3813,-1.4575,-1.4236,-1.4194,-1.5507,-1.609,-1.682,-1.8153,-1.8532,0.0,0.0,0.0,0.0,0.0,0.0,0.0,0.0,0.0,0.0,0.0,0.0,0.0,0.0,-3.0986,-3.0986,-3.0986,-3.0986,-3.0986,-3.0986,-3.0986,-3.0986,-3.0986,-3.0986,-3.0777,-3.0361,-3.0361,-3.0098,0.0,0.0,0.0,0.0,-2.8669,-2.842,-2.8355,-2.798,-2.8519,-2.9535,-2.9735,-3.0524,-3.1511,0.0,0.0,0.0,0.0,0.0,0.0,0.0,-0.9437,-0.9586,-1.0217,-1.0011,-1.0179,-1.1199,-1.0236,-0.9827,-1.0539,-1.0114,0.0,0.0,0.0,0.0,0.0,0.0,0.0,0.0,0.0,0.0,0.0,0.0,0.0,0.0,0.0,0.0,0.0,0.0,0.0,0.0,0.0,0.0,0.0,0.0,0.0,-1.1831,0.0,0.0,0.0,0.0,0.0,0.0,0.0,0.0,0.0,0.0,0.0,0.0,0.0,-1.3797,-1.5028,0.0,-1.7139,-1.7734,-1.7565,-1.7097,-1.6595,-1.6264,-1.4866,-1.3844,-1.4569,-1.4305,-1.4337,-1.564,-1.6163,-1.6807,-1.8061,-1.8257,0.0,0.0,0.0,0.0,0.0,0.0,0.0,0.0,0.0,0.0,0.0,0.0,0.0,0.0,-3.1061,-3.0942,-3.066,-3.0869,-3.0986,-3.0986,-3.0986,-3.0986,-3.0986,-3.0764,-3.0477,-3.0087,-2.9879,-2.9497,0.0,0.0,0.0,0.0,-2.8216,-2.8059,-2.802,-2.7633,-2.8338,-2.9504,-2.9504,-3.0359,-3.1511,0.0,0.0,0.0,0.0,0.0,0.0,0.0,-0.9437,-0.9712,-0.9747,-0.9758,-1.0114,-1.105,-0.9919,-0.9471,-1.0412,0.0,0.0,0.0,0.0,0.0,0.0,0.0,0.0,0.0,0.0,0.0,0.0,-1.3647,-1.4144,-1.5096,0.0,0.0,0.0,0.0,0.0,0.0,0.0,0.0,0.0,0.0,-1.179,0.0,0.0,0.0,0.0,0.0,0.0,0.0,0.0,0.0,0.0,0.0,0.0,0.0,0.0,0.0,0.0,0.0,-1.5928,-1.6869,-1.6504,-1.6504,-1.6396,-1.5603,-1.4526,0.0,-1.4345,-1.4312,-1.4536,-1.5691,-1.6169,-1.6611,-1.7277,-1.7421,0.0,0.0,0.0,0.0,0.0,0.0,0.0,0.0,0.0,0.0,0.0,0.0,0.0,0.0,-3.1133,-3.0811,-3.0144,-3.0618,-3.0856,-3.0856,-3.0856,-3.0856,-3.0856,-3.0296,-3.0009,-2.9957,-2.9457,-2.893,0.0,0.0,0.0,0.0,-2.749,-2.749,-2.749,-2.749,-2.8306,-2.9411,-2.9411,-3.0238,-3.1351,0.0,0.0,0.0,0.0,0.0,0.0,0.0,0.0,0.0,0.0,-0.9264,-0.9359,-0.9586,-0.9313,-0.9198,0.0,0.0,0.0,0.0,0.0,0.0,0.0,0.0,0.0,0.0,0.0,0.0,-1.3593,-1.4006,-1.4511,-1.5096,-1.4614,0.0,0.0,0.0,0.0,0.0,0.0,0.0,0.0,-1.2049,-1.2026,0.0,0.0,0.0,0.0,-1.2095,-1.2095,0.0,0.0,0.0,0.0,0.0,0.0,0.0,0.0,-1.2279,-1.2452,-1.321,0.0,-1.4476,-1.4582,-1.4636,-1.4651,0.0,-1.4165,0.0,0.0,0.0,-1.4757,-1.654,-1.6602,-1.7003,-1.8885,0.0,0.0,0.0,0.0,0.0,0.0,0.0,0.0,0.0,0.0,0.0,0.0,0.0,0.0,0.0,-3.1005,-3.0416,-3.0255,-2.9887,-2.968,-2.968,-2.968,-2.968,-2.9715,-2.9549,-2.9248,-2.8791,-2.866,-2.8281,0.0,0.0,0.0,-2.749,-2.749,-2.749,-2.749,-2.749,-2.7993,-2.8757,-2.8757,-2.9268,-2.9981,0.0,0.0,0.0,0.0,0.0,0.0,0.0,0.0,0.0,0.0,0.0,0.0,0.0,0.0,0.0,0.0,0.0,0.0,0.0,0.0,0.0,0.0,0.0,0.0,0.0,0.0,0.0,0.0,0.0,-1.4396,0.0,0.0,0.0,0.0,0.0,0.0,0.0,0.0,0.0,0.0,-1.2003,0.0,0.0,0.0,0.0,0.0,-1.1417,-1.1538,0.0,-1.1733,-1.19,-1.2095,0.0,0.0,0.0,0.0,-1.2365,-1.2532,-1.281,-1.3673,-1.4511,-1.472,-1.4943,-1.5094,-1.5042,0.0,0.0,0.0,0.0,0.0,-1.6173,0.0,0.0,0.0,0.0,0.0,0.0,0.0,0.0,0.0,0.0,0.0,0.0,0.0,0.0,0.0,0.0,0.0,0.0,-3.1203,-3.0538,-2.9896,-2.9267,-2.9037,-2.931,-2.931,-2.931,-2.931,-2.9035,-2.8734,-2.8407,-2.8111,-2.7824,0.0,0.0,0.0,-2.749,-2.749,-2.749,-2.749,-2.749,-2.7908,-2.8514,-2.8514,-2.8935,-2.9504,0.0,0.0,0.0,0.0,0.0,0.0,0.0,0.0,0.0,0.0,0.0,0.0,0.0,0.0,0.0,0.0,0.0,0.0,0.0,0.0,0.0,0.0,0.0,0.0,0.0,0.0,0.0,0.0,0.0,0.0,0.0,0.0,0.0,0.0,0.0,0.0,0.0,0.0,0.0,0.0,0.0,0.0,0.0,0.0,0.0,0.0,0.0,0.0,0.0,-1.1199,-1.1538,-1.198,-1.198,0.0,0.0,0.0,0.0,0.0,-1.2994,-1.4348,-1.5658,-1.552,-1.5836,-1.6113,0.0,0.0,0.0,0.0,0.0,0.0,0.0,0.0,0.0,0.0,0.0,0.0,0.0,0.0,0.0,0.0,0.0,0.0,0.0,0.0,0.0,0.0,0.0,0.0,0.0,-3.1295,-3.0654,-2.9444,-2.8706,-2.8552,-2.9035,-2.9013,-2.9013,-2.9,-2.849,-2.8242,-2.8242,-2.7745,-2.749,-2.749,0.0,0.0,-2.749,-2.749,-2.749,-2.749,-2.749,-2.7842,-2.8352,-2.8352,-2.8712,-2.9192,0.0,0.0,0.0,0.0,0.0,0.0,0.0,0.0,0.0,0.0,0.0,0.0,0.0,0.0,0.0,0.0,0.0,0.0,0.0,0.0,0.0,0.0,0.0,0.0,0.0,0.0,0.0,0.0,0.0,0.0,-1.4511,-1.4913,-1.4568,0.0,0.0,0.0,0.0,0.0,0.0,0.0,0.0,0.0,0.0,0.0,0.0,0.0,0.0,0.0,0.0,-1.0711,-1.1027,-1.1417,-1.1417,0.0,0.0,0.0,0.0,0.0,-1.3465,-1.5108,-1.6249,-1.479,-1.4873,-1.5338,0.0,0.0,0.0,0.0,0.0,0.0,0.0,0.0,0.0,0.0,0.0,0.0,0.0,0.0,0.0,0.0,0.0,0.0,0.0,0.0,0.0,0.0,0.0,0.0,0.0,-3.0727,-2.9707,-2.9488,-2.8281,-2.7681,-2.7764,-2.7764,-2.7764,-2.7764,-2.7673,-2.7633,-2.7633,-2.7529,-2.749,-2.749,0.0,-2.749,-2.749,-2.749,-2.749,-2.749,-2.749,-2.7556,-2.7656,-2.7656,-2.7709,-2.7809,0.0,0.0,0.0,0.0,0.0,0.0,0.0,0.0,0.0,0.0,0.0,0.0,0.0,0.0,0.0,0.0,0.0,0.0,0.0,0.0,0.0,0.0,0.0,0.0,0.0,0.0,0.0,0.0,0.0,-1.4556,-1.5028,-1.4529,-1.404,-1.3578,0.0,0.0,0.0,0.0,0.0,-1.2085,0.0,0.0,0.0,0.0,0.0,0.0,0.0,0.0,0.0,0.0,-1.0672,-1.1302,-1.1302,0.0,0.0,0.0,0.0,0.0,-1.3247,-1.4677,-1.5969,-1.5505,-1.6274,-1.7104,0.0,0.0,0.0,0.0,0.0,0.0,0.0,0.0,0.0,0.0,0.0,0.0,0.0,0.0,0.0,0.0,0.0,0.0,0.0,0.0,0.0,0.0,0.0,0.0,0.0,0.0,-3.0419,-3.0042,-2.9079,-2.8403,-2.8039,-2.7689,-2.749,-2.749,-2.749,-2.749,-2.749,-2.749,-2.749,-2.749,0.0,-2.749,-2.749,-2.749,-2.749,-2.749,-2.749,-2.749,-2.749,-2.749,-2.749,-2.749,0.0,0.0,0.0,0.0,0.0,0.0,0.0,0.0,0.0,0.0,0.0,0.0,0.0,0.0,0.0,0.0,0.0,0.0,0.0,0.0,0.0,0.0,0.0,0.0,0.0,0.0,0.0,-1.5019,-1.4944,-1.5031,-1.5291,-1.4271,-1.365,0.0,0.0,0.0,0.0,0.0,0.0,-1.1995,0.0,0.0,0.0,0.0,0.0,0.0,0.0,0.0,0.0,0.0,0.0,0.0,0.0,0.0,0.0,-1.2285,-1.2676,-1.3133,-1.3249,-1.4393,-1.563,0.0,0.0,0.0,0.0,0.0,0.0,0.0,0.0,0.0,0.0,0.0,0.0,0.0,0.0,0.0,0.0,0.0,0.0,0.0,0.0,0.0,0.0,0.0,0.0,0.0,0.0,0.0,0.0,0.0,-3.097,-3.0299,-2.9611,-2.8921,-2.8254,-2.7756,-2.749,-2.749,-2.749,-2.749,-2.749,-2.749,-2.749,-2.749,-2.749,-2.749,-2.749,-2.749,-2.749,-2.749,-2.749,-2.749,-2.749,-2.749,-2.749,-2.749,0.0,0.0,0.0,0.0,0.0,0.0,0.0,0.0,0.0,0.0,0.0,0.0,0.0,0.0,0.0,0.0,0.0,0.0,0.0,0.0,0.0,0.0,0.0,0.0,0.0,-1.4382,-1.4846,-1.536,-1.5049,-1.4759,-1.4485,-1.4395,-1.3843,-1.2946,0.0,0.0,0.0,0.0,0.0,-1.1716,-1.1509,0.0,0.0,0.0,0.0,0.0,0.0,0.0,0.0,0.0,0.0,0.0,0.0,0.0,-1.1897,-1.2626,-1.2533,-1.2523,-1.4055,-1.4977,-1.563,-1.6245,0.0,0.0,0.0,0.0,0.0,0.0,0.0,0.0,0.0,0.0,0.0,0.0,0.0,0.0,0.0,0.0,0.0,0.0,0.0,0.0,0.0,0.0,0.0,0.0,0.0,0.0,0.0,0.0,0.0,-2.9597,-2.8935,-2.8254,-2.759,-2.7523,-2.749,-2.749,-2.749,-2.749,-2.749,-2.749,-2.749,-2.749,-2.749,-2.749,-2.749,-2.749,-2.749,-2.749,-2.749,-2.749,-2.749,-2.749,-2.749,-2.749,0.0,0.0,0.0,0.0,0.0,0.0,0.0,0.0,0.0,0.0,0.0,0.0,0.0,0.0,0.0,0.0,0.0,0.0,0.0,0.0,0.0,0.0,0.0,-1.2781,-1.3514,-1.4781,-1.5704,-1.6204,-1.5553,-1.4926,-1.4395,-1.3762,0.0,0.0,0.0,0.0,0.0,0.0,0.0,0.0,-1.1188,-1.0578,0.0,0.0,0.0,0.0,0.0,0.0,0.0,0.0,-0.993,-1.0429,-1.0522,-1.1209,-1.1966,-1.2058,-1.2102,-1.2316,-1.3291,-1.4493,-1.563,0.0,0.0,0.0,0.0,0.0,0.0,0.0,0.0,0.0,0.0,0.0,0.0,0.0,0.0,0.0,0.0,0.0,0.0,0.0,0.0,0.0,0.0,0.0,0.0,0.0,0.0,0.0,0.0,0.0,-3.0807,-3.0133,-2.9487,-2.8807,-2.8124,-2.7723,-2.749,-2.749,-2.749,-2.749,-2.749,-2.749,-2.749,-2.749,-2.749,-2.749,-2.749,-2.749,-2.749,-2.749,-2.749,-2.749,-2.749,-2.749,-2.749,-2.749,0.0,0.0,0.0,0.0,0.0,0.0,0.0,0.0,0.0,0.0,0.0,0.0,0.0,0.0,0.0,0.0,0.0,0.0,0.0,0.0,0.0,0.0,0.0,-1.2618,-1.3102,-1.4666,-1.5678,-1.6043,-1.5424,-1.4796,-1.4149,0.0,0.0,0.0,0.0,0.0,0.0,0.0,0.0,0.0,-1.0966,-1.0384,0.0,0.0,0.0,0.0,0.0,0.0,0.0,0.0,-0.9885,-1.025,-1.0323,-1.0924,-1.1602,-1.1606,-1.1893,-1.2364,-1.301,-1.4328,-1.5683,0.0,0.0,0.0,0.0,0.0,0.0,0.0,0.0,0.0,0.0,0.0,0.0,0.0,0.0,0.0,0.0,0.0,0.0,0.0,0.0,0.0,0.0,0.0,0.0,0.0,0.0,0.0,0.0,-3.1511,-3.1087,-3.0208,-2.9735,-2.9079,-2.8189,-2.7723,-2.749,-2.749,-2.749,-2.749,-2.749,-2.749,-2.749,-2.749,-2.749,-2.749,-2.749,-2.749,-2.749,-2.749,-2.749,-2.749,-2.749,-2.749,-2.749,-2.749,0.0,0.0,0.0,0.0,0.0,0.0,0.0,0.0,0.0,0.0,0.0,0.0,0.0,0.0,0.0,0.0,0.0,0.0,0.0,0.0,0.0,0.0,0.0,-1.227,-1.2875,-1.4001,-1.4572,-1.4598,-1.4525,-1.422,-1.3705,-1.3401,0.0,0.0,0.0,0.0,0.0,0.0,0.0,0.0,0.0,-1.0368,-0.9957,0.0,0.0,0.0,0.0,0.0,0.0,0.0,-0.9781,-0.9573,-1.0576,-1.0729,-1.0673,-1.1374,-1.2029,-1.2704,-1.3565,-1.4642,0.0,0.0,0.0,0.0,0.0,0.0,0.0,0.0,0.0,0.0,0.0,0.0,0.0,0.0,0.0,0.0,0.0,0.0,0.0,0.0,0.0,0.0,0.0,0.0,0.0,0.0,0.0,0.0,0.0,-3.1481,-3.0852,-2.9521,-2.9459,-2.883,-2.751,-2.7477,-2.7477,-2.7477,-2.7477,-2.749,-2.749,-2.749,-2.749,-2.749,-2.749,-2.749,-2.749,-2.749,-2.749,-2.749,-2.749,-2.749,-2.749,-2.749,-2.749,-2.749,0.0,0.0,0.0,0.0,0.0,0.0,0.0,0.0,0.0,0.0,0.0,0.0,0.0,0.0,0.0,0.0,0.0,0.0,0.0,0.0,0.0,0.0,0.0,0.0,0.0,0.0,-1.3265,-1.4254,-1.3899,-1.3497,0.0,0.0,0.0,-1.3498,0.0,0.0,0.0,0.0,0.0,0.0,0.0,-1.0109,-0.997,0.0,0.0,0.0,0.0,0.0,0.0,0.0,0.0,0.0,-0.998,-1.0946,-1.1895,-1.145,-1.2173,-1.3238,-1.3685,0.0,0.0,0.0,0.0,0.0,0.0,0.0,0.0,0.0,0.0,0.0,0.0,0.0,0.0,0.0,0.0,0.0,0.0,0.0,0.0,0.0,0.0,0.0,0.0,0.0,0.0,0.0,0.0,0.0,0.0,-2.9517,-2.8944,-2.7641,-2.7611,-2.7178,-2.6321,-2.6289,-2.6289,-2.6289,-2.6289,-2.672,-2.749,-2.749,-2.749,-2.7477,-2.7105,-2.6935,-2.6935,-2.6935,-2.6935,-2.6961,-2.7333,-2.749,-2.749,-2.749,-2.749,-2.749,0.0,0.0,0.0,0.0,0.0,0.0,0.0,0.0,0.0,0.0,0.0,0.0,0.0,0.0,0.0,0.0,0.0,0.0,0.0,0.0,0.0,0.0,0.0,0.0,0.0,-1.1735,-1.2308,0.0,0.0,0.0,0.0,0.0,0.0,-1.3882,0.0,0.0,0.0,0.0,0.0,0.0,0.0,-1.0059,-1.0097,0.0,0.0,0.0,0.0,0.0,0.0,0.0,0.0,0.0,-0.9689,0.0,0.0,-1.1498,-1.2494,-1.368,-1.4302,0.0,0.0,0.0,0.0,0.0,0.0,0.0,0.0,0.0,0.0,0.0,0.0,0.0,0.0,0.0,0.0,0.0,0.0,0.0,0.0,0.0,0.0,0.0,0.0,0.0,0.0,0.0,0.0,0.0,0.0,-2.8325,-2.7881,-2.6849,-2.6818,-2.6468,-2.5824,-2.5793,-2.5793,-2.5793,-2.5793,-2.6145,-2.6824,-2.6824,-2.6824,-2.6798,-2.6491,-2.6334,-2.6334,-2.6334,-2.6334,-2.636,-2.6681,-2.6824,-2.6824,-2.6824,-2.6824,-2.6824,0.0,0.0,-0.6878,-0.6878,0.0,0.0,0.0,0.0,0.0,0.0,0.0,-0.9106,0.0,0.0,0.0,-0.9697,0.0,0.0,0.0,0.0,0.0,0.0,0.0,0.0,0.0,0.0,0.0,0.0,0.0,0.0,0.0,0.0,-1.3205,-1.4493,0.0,-1.37,0.0,0.0,0.0,0.0,-1.0328,-1.0135,-1.0274,-1.0033,0.0,0.0,0.0,0.0,0.0,0.0,0.0,0.0,-0.9645,-0.9758,-1.0124,-1.145,-1.2805,-1.4092,0.0,0.0,0.0,0.0,0.0,0.0,0.0,0.0,0.0,0.0,0.0,0.0,0.0,0.0,0.0,0.0,0.0,0.0,0.0,0.0,0.0,0.0,0.0,0.0,0.0,0.0,0.0,0.0,0.0,0.0,0.0,-2.7538,-2.7247,-2.6579,-2.6535,-2.626,-2.5636,-2.5636,-2.5636,-2.5636,-2.5636,-2.5636,-2.5636,-2.5741,-2.5767,-2.5715,-2.5715,-2.5688,-2.5636,-2.5688,-2.5715,-2.5715,-2.5767,-2.5793,-2.5793,-2.5793,-2.5793,-2.5793,0.0,0.0,-0.7427,-0.7427,0.0,0.0,0.0,0.0,0.0,-0.9048,-0.9106,-0.9106,-0.9106,-0.9326,0.0,-0.9684,-0.9918,0.0,0.0,0.0,0.0,0.0,0.0,0.0,0.0,0.0,0.0,0.0,0.0,0.0,0.0,0.0,0.0,-1.3948,0.0,-1.2834,0.0,0.0,0.0,0.0,-1.0314,-1.0262,-1.0248,-0.9792,-0.9896,0.0,0.0,0.0,0.0,0.0,0.0,0.0,-0.9645,-1.0302,-1.0999,-1.0741,-1.2453,0.0,0.0,0.0,0.0,0.0,0.0,0.0,0.0,0.0,0.0,0.0,0.0,0.0,0.0,0.0,0.0,0.0,0.0,0.0,0.0,0.0,0.0,0.0,0.0,0.0,0.0,0.0,0.0,0.0,0.0,0.0,-2.5628,-2.56,-2.5314,-2.4701,-2.4672,-2.4613,-2.4461,-2.4461,-2.4461,0.0,-2.4461,-2.4461,-2.4488,-2.5375,-2.5576,-2.5188,-2.5188,-2.4896,-2.4488,-2.4975,-2.5188,-2.5197,-2.5641,-2.5793,-2.5793,-2.5793,-2.5793,-2.5793,0.0,0.0,0.0,0.0,0.0,0.0,0.0,0.0,-0.8784,-0.906,-0.9106,-0.9106,-0.9106,-0.9049,0.0,0.0,-0.9617,-0.9803,0.0,0.0,0.0,0.0,0.0,0.0,0.0,0.0,0.0,0.0,0.0,0.0,0.0,0.0,0.0,-1.4158,0.0,-1.2991,0.0,0.0,0.0,-1.0286,-1.0025,-0.9919,-0.988,-0.9616,-0.9488,-0.9491,-0.95,0.0,0.0,0.0,0.0,0.0,0.0,0.0,-1.0774,-1.1039,-1.2374,-1.3909,0.0,0.0,0.0,0.0,0.0,0.0,0.0,0.0,0.0,0.0,0.0,0.0,0.0,0.0,0.0,0.0,0.0,0.0,0.0,0.0,0.0,0.0,0.0,0.0,0.0,0.0,0.0,0.0,0.0,-2.485,-2.4578,-2.4563,-2.4419,-2.4112,-2.4083,-2.4083,-2.4083,-2.4083,-2.4083,-2.4083,-2.4083,-2.4083,-2.4109,-2.4709,-2.4844,-2.4557,-2.4557,-2.4387,-2.4109,-2.4439,-2.4557,-2.4596,-2.4883,-2.4984,-2.4984,-2.4984,-2.4984,-2.4984,0.0,0.0,0.0,0.0,0.0,0.0,0.0,0.0,0.0,-0.9083,-0.9106,-0.9106,-0.9106,-0.8765,-0.875,0.0,0.0,0.0,-0.9691,0.0,0.0,0.0,0.0,0.0,0.0,0.0,0.0,0.0,0.0,0.0,0.0,0.0,0.0,-1.4589,0.0,0.0,0.0,0.0,0.0,-1.0104,-0.9565,-0.9354,-0.9341,-0.9225,-0.8939,-0.8657,-0.9055,-0.9328,-0.9529,-0.9791,0.0,0.0,0.0,0.0,-1.0212,-1.1378,-1.2205,-1.3056,0.0,0.0,0.0,0.0,0.0,0.0,0.0,0.0,0.0,0.0,0.0,0.0,0.0,0.0,0.0,0.0,0.0,0.0,0.0,0.0,0.0,0.0,0.0,0.0,0.0,0.0,0.0,0.0,0.0,-2.4083,-2.4083,-2.4083,-2.4083,-2.4083,-2.4083,-2.4083,-2.4083,-2.4083,-2.4083,-2.4083,-2.4083,-2.4083,-2.4083,-2.4083,-2.4083,-2.4083,-2.4083,-2.4083,-2.4083,-2.4083,-2.4083,-2.4083,-2.4083,-2.4083,-2.4083,-2.4083,-2.4083,-2.4083,0.0,0.0,0.0,0.0,0.0,0.0,0.0,0.0,0.0,0.0,0.0,-0.9106,-0.9106,-0.8649,-0.8448,-0.8679,-0.8425,-0.8368,0.0,0.0,0.0,0.0,0.0,0.0,0.0,0.0,0.0,0.0,0.0,0.0,0.0,0.0,0.0,0.0,0.0,0.0,0.0,0.0,0.0,-0.9552,-0.8954,-0.8722,-0.8657,-0.8135,-0.8213,-0.8539,-0.8096,-0.8612,-0.9488,-0.9357,-0.9628,0.0,0.0,0.0,0.0,0.0,0.0,0.0,0.0,0.0,0.0,0.0,0.0,0.0,0.0,0.0,0.0,0.0,0.0,0.0,0.0,0.0,0.0,0.0,0.0,0.0,0.0,0.0,0.0,0.0,0.0,0.0,0.0,0.0,0.0,0.0,-2.4141,-2.4083,-2.4083,-2.4083,-2.4083,-2.4083,-2.4083,-2.4083,-2.4083,-2.4083,-2.4083,-2.4083,-2.4083,-2.4083,-2.4083,-2.4083,-2.4083,-2.4083,-2.4083,-2.4083,-2.4083,-2.4083,-2.4083,-2.4083,-2.4083,-2.4083,-2.4083,-2.4083,-2.4083,-2.4083,0.0,0.0,0.0,0.0,0.0,0.0,0.0,0.0,0.0,0.0,0.0,-0.9106,-0.9106,-0.8382,-0.805,-0.8402,-0.7946,0.0,0.0,0.0,0.0,0.0,0.0,0.0,0.0,0.0,0.0,0.0,0.0,0.0,0.0,-1.3059,-1.387,0.0,0.0,0.0,0.0,0.0,0.0,-0.9419,-0.8471,-0.8683,-0.9426,0.0,-0.8289,-0.8978,0.0,0.0,0.0,-0.9279,-0.9722,-1.0122,-0.9824,0.0,0.0,0.0,0.0,0.0,0.0,0.0,0.0,0.0,0.0,0.0,0.0,0.0,0.0,0.0,0.0,0.0,0.0,0.0,0.0,0.0,0.0,0.0,0.0,0.0,0.0,0.0,0.0,0.0,0.0,0.0,0.0,0.0,-2.4083,-2.4083,-2.4083,-2.4083,-2.4083,-2.4083,-2.4083,-2.4083,-2.4083,-2.4083,-2.4083,-2.4083,-2.4083,-2.4083,-2.4083,-2.4083,-2.4083,-2.4083,-2.4083,-2.4083,-2.4083,-2.4083,-2.4083,-2.4083,-2.4083,-2.4083,-2.4083,-2.4083,-2.4083,-2.4083,0.0,0.0,0.0,0.0,0.0,0.0,0.0,0.0,0.0,0.0,0.0,-0.8899,-0.8899,0.0,0.0,0.0,-0.741,0.0,0.0,0.0,0.0,0.0,0.0,0.0,0.0,0.0,0.0,0.0,0.0,0.0,-1.3569,-1.3268,-1.438,0.0,-1.5513,0.0,0.0,0.0,0.0,-0.9839,-0.8785,-0.9141,-1.0183,-0.9167,-0.9346,-0.9984,0.0,0.0,0.0,0.0,0.0,0.0,0.0,0.0,0.0,0.0,0.0,0.0,0.0,0.0,0.0,0.0,0.0,0.0,0.0,0.0,0.0,0.0,0.0,0.0,0.0,0.0,0.0,0.0,0.0,0.0,0.0,0.0,0.0,0.0,0.0,0.0,0.0,0.0,0.0,0.0,-2.3861,-2.3861,-2.3861,-2.4005,-2.4083,-2.4083,-2.4083,-2.4083,-2.4083,-2.4083,-2.4083,-2.4083,-2.4083,-2.4083,-2.4083,-2.4083,-2.4083,-2.4083,-2.4083,-2.4083,-2.4083,-2.4083,-2.4083,-2.4083,-2.4083,-2.4083,-2.4083,-2.4083,-2.4083,-2.4083,0.0,0.0,0.0,0.0,0.0,0.0,0.0,0.0,0.0,0.0,0.0,-0.8347,-0.8347,-0.7899,-0.7404,-0.6924,-0.6672,0.0,0.0,0.0,0.0,0.0,0.0,0.0,0.0,0.0,0.0,0.0,0.0,0.0,-1.2967,-1.3503,-1.4964,-1.7133,-1.6558,-1.5061,-1.2902,0.0,0.0,0.0,-1.0429,-1.0221,-1.0417,-1.1408,-1.1825,-1.172,0.0,0.0,0.0,0.0,0.0,0.0,0.0,0.0,0.0,0.0,0.0,0.0,0.0,0.0,0.0,0.0,0.0,0.0,0.0,0.0,0.0,0.0,0.0,0.0,0.0,0.0,0.0,0.0,0.0,0.0,0.0,0.0,0.0,0.0,0.0,0.0,0.0,0.0,0.0,0.0,-2.3263,-2.3263,-2.3263,-2.3799,-2.4083,-2.4083,-2.4083,-2.4083,-2.4083,-2.4083,-2.4083,-2.4083,-2.4083,-2.4083,-2.4083,-2.4083,-2.4083,-2.4083,-2.4083,-2.4083,-2.4083,-2.4083,-2.4083,-2.4083,-2.4083,-2.4083,-2.4083,-2.4083,-2.4083,-2.4083,0.0,0.0,0.0,0.0,0.0,0.0,0.0,0.0,0.0,0.0,0.0,0.0,0.0,-0.8095,-0.7564,-0.7454,-0.6934,0.0,0.0,0.0,0.0,0.0,0.0,0.0,0.0,0.0,0.0,0.0,0.0,-0.8976,-1.1816,-1.2025,-1.2954,-1.4485,-1.5408,-1.5375,-1.4472,-1.2724,0.0,0.0,0.0,0.0,0.0,0.0,-1.2685,-1.3458,0.0,0.0,0.0,0.0,0.0,0.0,0.0,0.0,-0.8743,0.0,0.0,0.0,0.0,0.0,0.0,0.0,0.0,0.0,0.0,0.0,0.0,0.0,0.0,0.0,0.0,0.0,0.0,0.0,0.0,0.0,0.0,0.0,0.0,0.0,0.0,0.0,0.0,0.0,0.0,0.0,0.0,-2.2675,-2.2701,-2.2882,-2.3014,-2.3016,-2.3016,-2.3016,-2.3016,-2.3016,-2.3001,-2.3027,-2.3027,-2.3197,-2.3509,-2.3509,-2.3717,-2.4083,-2.4083,-2.4083,-2.4083,-2.4083,-2.4083,-2.4083,-2.4083,-2.4083,-2.4083,-2.4083,-2.4083,-2.4083,0.0,0.0,0.0,-0.8673,0.0,-0.7677,-0.7807,-0.7692,0.0,0.0,0.0,0.0,0.0,0.0,-0.7875,-0.7714,0.0,0.0,0.0,0.0,0.0,0.0,0.0,0.0,0.0,0.0,0.0,0.0,0.0,0.0,0.0,0.0,-1.1802,-1.2941,-1.3905,0.0,0.0,0.0,0.0,-1.2857,0.0,0.0,-1.4337,0.0,0.0,0.0,0.0,0.0,0.0,0.0,0.0,0.0,0.0,-0.9253,-0.8109,-0.7166,0.0,0.0,0.0,0.0,0.0,0.0,0.0,0.0,0.0,0.0,0.0,0.0,0.0,0.0,0.0,0.0,0.0,0.0,0.0,0.0,0.0,0.0,0.0,0.0,0.0,0.0,0.0,0.0,0.0,0.0,0.0,0.0,-2.2113,-2.2296,-2.2414,-2.2388,-2.2401,-2.2401,-2.2401,-2.2388,-2.2401,-2.24,-2.24,-2.2596,-2.2921,-2.2936,-2.3158,-2.355,-2.3704,-2.39,-2.4083,-2.4083,-2.4083,-2.4083,-2.4083,-2.4083,-2.4083,-2.4083,-2.4083,-2.4083,-0.6915,-0.7229,-0.7613,-0.795,-0.7844,-0.7836,-0.8239,-0.7922,-0.7784,-0.8232,0.0,0.0,0.0,0.0,0.0,0.0,0.0,0.0,0.0,0.0,0.0,0.0,0.0,0.0,0.0,0.0,0.0,0.0,0.0,0.0,0.0,0.0,-1.1724,0.0,-1.2216,-1.2635,-1.3804,0.0,-1.5087,-1.4699,0.0,-1.5505,-1.5754,0.0,0.0,0.0,-1.665,-1.6094,0.0,0.0,0.0,0.0,0.0,0.0,-0.764,-0.7101,0.0,0.0,0.0,0.0,0.0,0.0,0.0,0.0,0.0,0.0,0.0,0.0,0.0,0.0,0.0,0.0,0.0,0.0,0.0,0.0,0.0,0.0,0.0,0.0,0.0,0.0,0.0,0.0,0.0,0.0,-2.1485,-2.1485,-2.1485,-2.2035,-2.2363,-2.2363,-2.2348,-2.2361,-2.2361,-2.2362,-2.2363,-2.2363,-2.2363,-2.2362,-2.2387,-2.2375,-2.2388,-2.2439,-2.2934,-2.3537,-2.4057,-2.4083,-2.4083,-2.4083,-2.4083,-2.4083,-2.4083,-2.4083,-2.4083,-2.4083,-0.7172,-0.7437,-0.7797,-0.8277,-0.7991,-0.7836,-0.8239,-0.8186,-0.8152,0.0,0.0,0.0,0.0,0.0,0.0,0.0,0.0,0.0,0.0,-0.7114,-0.6908,-0.6908,-0.6908,0.0,0.0,0.0,0.0,0.0,0.0,0.0,0.0,0.0,0.0,0.0,-1.1135,-1.1606,-1.1933,-1.226,0.0,0.0,-1.4751,-1.5422,0.0,0.0,0.0,0.0,0.0,-1.7852,0.0,0.0,-1.5591,-1.4367,0.0,0.0,0.0,-0.8312,-0.8813,0.0,-0.9305,0.0,0.0,0.0,0.0,0.0,0.0,0.0,0.0,0.0,0.0,0.0,0.0,0.0,0.0,0.0,0.0,0.0,0.0,0.0,0.0,0.0,0.0,0.0,0.0,0.0,0.0,0.0,-2.0923,-2.0923,-2.0923,-2.1092,-2.1184,-2.1184,-2.1158,-2.1171,-2.1171,-2.1184,-2.1184,-2.1184,-2.1184,-2.138,-2.176,-2.1747,-2.1995,-2.2426,-2.2544,-2.2936,-2.3469,-2.3913,-2.4083,-2.4083,-2.4083,-2.4083,-2.4083,-2.4083,-2.4083,-2.4083,-0.7121,-0.7403,-0.7827,-0.8507,-0.8474,-0.8563,-0.9163,-0.9058,-0.9,0.0,0.0,0.0,0.0,0.0,0.0,0.0,0.0,0.0,-0.7731,-0.741,-0.714,-0.6908,-0.6908,-0.7004,0.0,0.0,0.0,0.0,0.0,0.0,0.0,0.0,0.0,0.0,0.0,-1.0215,-1.0989,0.0,0.0,0.0,-1.5336,0.0,0.0,-1.8161,-1.8545,0.0,0.0,0.0,-1.8388,-1.8022,-1.7003,0.0,0.0,0.0,-1.0703,-0.9621,0.0,0.0,0.0,0.0,0.0,0.0,0.0,0.0,0.0,0.0,0.0,0.0,0.0,0.0,0.0,0.0,0.0,0.0,0.0,0.0,0.0,0.0,0.0,0.0,0.0,0.0,0.0,-2.0699,-2.0699,-2.0699,-2.0699,-2.0699,-2.0699,-2.0699,-2.0699,-2.0699,-2.0699,-2.0699,-2.0699,-2.0699,-2.0699,-2.0699,-2.0699,-2.0857,-2.1184,-2.1184,-2.1355,-2.1694,-2.1943,-2.2191,-2.2557,-2.313,-2.3652,-2.4083,-2.4083,-2.4083,-2.4083,-2.4083,-2.4083,-2.4083,0.0,-0.7184,-0.7733,-0.8597,-0.9034,-0.9559,-1.0432,-1.0179,-1.0068,0.0,0.0,0.0,0.0,0.0,0.0,0.0,0.0,0.0,-0.7966,-0.7783,-0.7453,-0.6921,-0.6908,-0.7127,-0.7601,0.0,0.0,0.0,0.0,0.0,0.0,0.0,0.0,0.0,-0.7614,-0.8715,-1.0484,-0.9364,0.0,-1.4349,-1.6124,-1.7268,0.0,0.0,-1.946,0.0,-1.9708,-1.9564,-1.9094,-1.9028,-1.7931,0.0,0.0,-1.3242,-1.286,-1.1186,-1.1447,0.0,0.0,0.0,0.0,0.0,0.0,0.0,-1.4559,-1.3905,0.0,0.0,0.0,0.0,0.0,0.0,0.0,0.0,0.0,0.0,0.0,0.0,0.0,0.0,0.0,0.0,0.0,-2.0607,-2.0608,-2.0624,-2.0624,-2.0649,-2.0699,-2.0699,-2.0699,-2.0699,-2.0699,-2.0699,-2.0699,-2.0699,-2.0699,-2.0699,-2.0699,-2.0699,-2.0699,-2.0699,-2.0699,-2.0738,-2.1198,-2.1446,-2.1525,-2.2086,-2.296,-2.3992,-2.3992,-2.4031,-2.4083,-2.4083,-2.4083,-2.4083,-0.6826,-0.7014,-0.7453,-0.8324,-0.8798,-0.9352,-1.023,-1.0405,-1.0493,0.0,0.0,0.0,0.0,0.0,0.0,0.0,0.0,0.0,0.0,-0.8236,-0.7453,-0.6921,-0.6908,-0.6952,-0.7048,-0.6952,0.0,0.0,0.0,0.0,0.0,0.0,0.0,0.0,-0.7048,-0.7787,-0.9107,0.0,0.0,-1.3622,-1.4228,0.0,-1.9224,-1.911,-1.9614,-2.036,-2.0478,-2.0438,-2.0268,0.0,-1.8806,-1.7525,0.0,0.0,0.0,0.0,0.0,-1.3971,-1.3438,-1.367,-1.3931,0.0,0.0,0.0,0.0,-1.2411,0.0,0.0,0.0,0.0,0.0,0.0,0.0,0.0,0.0,0.0,0.0,0.0,0.0,0.0,0.0,0.0,0.0,-1.9969,-2.003,-2.0131,-2.0131,-2.0296,-2.0674,-2.0699,-2.0699,-2.0699,-2.0699,-2.0699,-2.0699,-2.0699,-2.0699,-2.0699,-2.0699,-2.0699,-2.0699,-2.0699,-2.0699,-2.0712,-2.0805,-2.1106,-2.1525,-2.1642,-2.2334,-2.3365,-2.3365,-2.3652,-2.4083,-2.4083,-2.4083,-2.4083,-0.6796,-0.702,-0.7524,-0.8561,-0.909,-0.9724,-1.0866,-1.0906,0.0,0.0,0.0,0.0,0.0,0.0,0.0,0.0,0.0,0.0,0.0,0.0,-0.7888,-0.7319,-0.7043,-0.7175,-0.7737,-0.7201,0.0,0.0,0.0,0.0,0.0,0.0,0.0,0.0,0.0,0.0,0.0,0.0,-1.2006,-1.4103,-1.5417,0.0,-1.9153,-1.9611,-2.0164,-2.0699,-2.0699,-2.0699,-2.0543,-1.9656,-1.8976,0.0,0.0,-1.6794,-1.6571,0.0,-1.5492,-1.5709,0.0,0.0,-1.4912,-1.4337,0.0,0.0,0.0,0.0,-1.2779,0.0,0.0,0.0,0.0,0.0,0.0,0.0,0.0,0.0,0.0,0.0,0.0,0.0,0.0,0.0,0.0,-1.9238,-1.9307,-1.9215,-1.9044,-1.9157,-1.9635,-1.9648,-1.9787,-2.0029,-2.0258,-2.0346,-2.0346,-2.0586,-2.0699,-2.0699,-2.0699,-2.0699,-2.0699,-2.0699,-2.0699,-2.0699,-2.0699,-2.0844,-2.1106,-2.1106,-2.159,-2.2399,-2.296,-2.3378,-2.3678,-2.3979,-2.4083,-2.4083,-0.6857,-0.7116,-0.7689,-0.8796,-0.9394,-1.0131,-1.1361,-1.1329,0.0,0.0,0.0,0.0,0.0,0.0,0.0,0.0,0.0,0.0,0.0,0.0,0.0,-0.8226,-0.7567,-0.7655,-0.8578,-0.7589,-0.7458,0.0,0.0,0.0,0.0,0.0,0.0,0.0,0.0,0.0,0.0,0.0,0.0,-1.5102,0.0,-1.824,-1.8652,-2.0022,-2.0517,-2.053,-2.0673,-2.0699,-2.0517,-1.9433,0.0,-1.8872,-1.7735,-1.7708,0.0,0.0,0.0,0.0,0.0,0.0,0.0,0.0,0.0,-1.4415,0.0,0.0,0.0,-1.4693,0.0,0.0,0.0,0.0,0.0,0.0,0.0,0.0,0.0,0.0,0.0,0.0,0.0,0.0,0.0,-1.8111,-1.8206,-1.8224,-1.7743,-1.7737,-1.8437,-1.8561,-1.8807,-1.9236,-1.9671,-1.9875,-1.9875,-2.0258,-2.0498,-2.0574,-2.0574,-2.0624,-2.0699,-2.0699,-2.0699,-2.0699,-2.0699,-2.0699,-2.0699,-2.0699,-2.0962,-2.1446,-2.2479,-2.2934,-2.3091,-2.3574,-2.3757,-2.3799,-0.7029,-0.7288,-0.7707,-0.8444,-0.9247,-0.9978,-1.0563,-1.1245,0.0,0.0,0.0,0.0,0.0,0.0,0.0,0.0,0.0,0.0,-1.3451,0.0,0.0,-1.0039,-0.8983,-0.8461,-0.8605,-0.7953,-0.7449,0.0,0.0,0.0,0.0,0.0,-0.8005,-0.8735,-0.9551,0.0,0.0,0.0,-1.4301,0.0,-1.7424,-1.8009,0.0,-1.947,-1.9904,-1.9969,-2.0504,-2.0699,-2.0607,0.0,-1.9708,-1.9499,0.0,-1.8048,0.0,0.0,0.0,0.0,0.0,0.0,0.0,0.0,-1.6114,0.0,0.0,0.0,-1.3575,-1.312,0.0,0.0,0.0,0.0,0.0,0.0,0.0,0.0,0.0,0.0,0.0,0.0,0.0,0.0,0.0,-1.5972,-1.6182,-1.7508,-1.6476,-1.6415,-1.7907,-1.8363,-1.8622,-1.8683,-1.9202,-1.9473,-1.9473,-1.9525,-1.972,-2.0067,-2.0067,-2.0296,-2.0699,-2.0699,-2.0699,-2.0699,-2.0699,-2.0699,-2.0699,-2.0699,-2.0738,-2.0844,-2.1459,-2.2034,-2.2505,-2.2583,-2.2583,-2.2663,-0.708,-0.7184,-0.7523,-0.8359,-0.8809,-0.9371,-1.0351,-1.22,0.0,0.0,0.0,0.0,0.0,0.0,0.0,0.0,0.0,-1.4872,0.0,0.0,0.0,-1.1787,-1.0378,-0.9752,-1.0102,-0.8876,-0.8109,-0.7881,-0.7184,0.0,0.0,0.0,-0.8513,-1.0067,-1.0431,0.0,-1.3822,0.0,0.0,0.0,0.0,0.0,0.0,-1.9497,-2.0211,-2.0212,-2.0357,-2.041,-2.0332,0.0,-1.9398,0.0,0.0,0.0,0.0,0.0,0.0,0.0,0.0,0.0,0.0,0.0,0.0,0.0,-1.417,0.0,-1.367,0.0,0.0,0.0,0.0,0.0,0.0,0.0,0.0,0.0,0.0,0.0,0.0,0.0,0.0,0.0,0.0,0.0,0.0,0.0,-1.4931,-1.4942,-1.6419,-1.6846,-1.7285,-1.7889,-1.8346,-1.8726,-1.9064,-1.9289,-1.9486,-1.9656,-1.9656,-1.9888,-2.0296,-2.0296,-2.0422,-2.0699,-2.0699,-2.0699,-2.0699,-2.0699,-2.0699,-2.0725,-2.0949,-2.1368,-2.193,-2.2256,-2.2414,-2.2426,-0.7378,0.0,0.0,0.0,-0.8615,-0.9299,-1.0848,-1.2994,-1.4584,0.0,0.0,0.0,-1.7863,-1.7609,0.0,0.0,0.0,-1.6081,0.0,0.0,-1.3249,-1.3526,-1.2058,0.0,0.0,-1.0038,-0.9074,-0.8605,-0.7706,0.0,0.0,0.0,0.0,-1.0845,0.0,-1.2809,-1.4929,0.0,0.0,-1.6135,-1.6905,-1.7415,-1.792,-1.9573,-2.0294,-2.041,-2.0233,-2.0207,-2.0118,-1.9579,-1.9166,0.0,-1.9103,0.0,0.0,0.0,0.0,0.0,-1.7111,0.0,0.0,0.0,0.0,0.0,0.0,0.0,0.0,0.0,0.0,0.0,0.0,0.0,0.0,0.0,0.0,0.0,0.0,0.0,0.0,0.0,0.0,0.0,0.0,0.0,0.0,0.0,0.0,-1.3546,-1.5191,-1.5594,-1.6148,-1.6945,-1.7529,-1.8012,-1.8413,-1.8847,-1.9158,-1.9394,-1.9394,-1.9694,-2.0182,-2.0182,-2.0372,-2.0699,-2.0699,-2.0699,-2.0699,-2.0699,-2.0699,-2.0699,-2.0699,-2.0936,-2.1328,-2.1773,-2.193,-2.1956,-0.8112,-0.7962,0.0,0.0,0.0,-1.0158,-1.2214,-1.3256,-1.4121,0.0,0.0,0.0,0.0,0.0,0.0,0.0,0.0,-1.8231,-1.7808,0.0,-1.5711,0.0,-1.4193,-1.3128,0.0,-1.1368,-1.0285,-0.8605,-0.8498,-0.8438,0.0,0.0,0.0,0.0,0.0,-1.3601,-1.4339,-1.5944,-1.7264,-1.8302,-1.827,-1.8903,-1.9877,0.0,-1.9759,-2.0207,-2.0207,0.0,0.0,-1.9579,-1.9398,0.0,0.0,0.0,0.0,0.0,0.0,0.0,0.0,0.0,0.0,-1.572,0.0,0.0,0.0,0.0,-1.512,0.0,0.0,0.0,0.0,0.0,0.0,0.0,0.0,0.0,0.0,0.0,0.0,0.0,0.0,0.0,0.0,0.0,0.0,0.0,0.0,0.0,-1.4596,-1.5224,-1.5649,-1.5933,-1.6901,-1.7445,-1.7456,-1.7924,-1.8572,-1.9394,-1.9394,-1.9862,-2.0687,-2.0687,-2.0687,-2.0699,-2.0699,-2.0699,-2.0699,-2.0699,-2.0699,-2.0699,-2.0699,-2.0712,-2.0738,-2.0751,-2.0751,-2.0818,0.0,0.0,0.0,0.0,0.0,0.0,-1.1646,-1.3611,-1.5039,0.0,0.0,0.0,0.0,0.0,-2.0142,0.0,0.0,-1.9414,-1.8911,-1.7501,0.0,0.0,0.0,-1.4821,0.0,0.0,-1.1724,-1.0648,-0.9522,-0.9177,0.0,0.0,0.0,0.0,0.0,-1.3569,0.0,0.0,0.0,0.0,0.0,-1.8893,-1.985,0.0,0.0,-2.0067,-1.9965,-1.9939,0.0,-1.9725,-1.9496,-1.9279,-1.9333,-1.8951,-1.8499,-1.8548,-1.8496,0.0,0.0,0.0,-1.8518,-1.6519,0.0,0.0,0.0,0.0,0.0,0.0,0.0,0.0,0.0,0.0,0.0,0.0,0.0,0.0,0.0,0.0,0.0,0.0,0.0,0.0,0.0,0.0,0.0,0.0,-1.1915,0.0,0.0,-1.4584,-1.5028,-1.5626,-1.5954,-1.6553,-1.7396,-1.7553,-1.7939,-1.8545,-1.8839,-1.9289,-1.9862,-2.0118,-2.041,-2.0699,-2.0699,-2.0699,-2.0699,-2.0699,-2.0699,-2.0699,-2.0699,-2.0699,-2.0699,-2.0699,-2.0699,-2.0791,-0.924,0.0,0.0,0.0,0.0,0.0,0.0,0.0,0.0,0.0,-1.7787,0.0,-1.9882,0.0,-2.1022,0.0,-2.092,-2.0283,-1.9392,-1.8533,0.0,-1.8098,-1.7119,0.0,0.0,0.0,-1.3317,-1.2022,-1.0909,-1.0363,0.0,0.0,0.0,0.0,0.0,0.0,0.0,0.0,-1.7256,0.0,0.0,-1.9183,0.0,0.0,-1.9862,-1.9926,0.0,-1.9798,-1.9798,-1.9798,-1.9623,-1.9447,-1.9723,-1.9422,-1.8964,-1.8994,-1.8943,-1.8802,-1.8328,-1.8654,0.0,-1.7222,-1.6888,0.0,-1.5023,0.0,0.0,0.0,0.0,0.0,0.0,0.0,0.0,0.0,0.0,0.0,0.0,0.0,0.0,0.0,0.0,0.0,0.0,0.0,-1.0402,-1.1509,0.0,0.0,0.0,0.0,-1.4667,-1.5213,-1.5499,-1.5992,-1.6729,-1.7171,-1.7621,-1.8077,-1.8703,-1.9225,-1.963,-2.0055,-2.0397,-2.0699,-2.0699,-2.0699,-2.0699,-2.0699,-2.0699,-2.0699,-2.0699,-2.0699,-2.0699,-2.0699,-2.0699,-2.0751,0.0,0.0,0.0,0.0,-1.0764,0.0,0.0,0.0,-1.5388,0.0,-1.7594,-1.883,-1.9884,-2.0548,-2.1194,-2.1905,-2.1696,0.0,-1.9459,-1.9788,0.0,0.0,-1.8187,-1.7724,-1.5997,0.0,0.0,0.0,-1.2596,0.0,0.0,0.0,0.0,0.0,-1.2472,0.0,-1.4168,-1.6334,-1.7629,-1.8306,-1.9334,-1.9773,-1.9798,-1.9798,-1.9798,-1.9798,-1.9798,-1.9798,-1.9798,-1.9798,-1.9798,-1.9798,-1.9798,-1.9798,-1.971,-1.9183,-1.9384,-1.9585,-1.8555,-1.8644,-1.8782,-1.7727,0.0,0.0,0.0,0.0,-1.725,0.0,0.0,0.0,0.0,0.0,0.0,0.0,0.0,0.0,0.0,0.0,0.0,0.0,0.0,0.0,0.0,0.0,-0.9207,-1.1301,-1.0714,0.0,0.0,0.0,-1.4422,-1.4674,-1.5437,-1.5722,-1.5506,-1.6717,-1.7557,-1.8003,-1.8906,-1.9579,-2.0016,-2.0485,-2.0699,-2.0699,-2.0699,-2.0699,-2.0699,-2.0699,-2.0699,-2.0699,-2.0699,-2.0699,-2.0699,-2.0699,-2.0699,-2.0699,-1.0325,-1.1095,-1.1737,0.0,-1.2078,-1.2339,0.0,0.0,0.0,0.0,-1.8765,-2.0342,-2.1404,-2.2132,-2.259,-2.277,-2.2363,0.0,0.0,0.0,0.0,-1.9862,-1.9407,-1.8859,-1.8202,-1.6701,0.0,-1.5495,0.0,0.0,-1.2567,0.0,0.0,0.0,0.0,0.0,-1.3077,-1.569,-1.7352,-1.8325,-1.8944,-1.9448,0.0,0.0,-1.9798,-1.9798,-1.9798,-1.9798,-1.9798,-1.9798,-1.9798,-1.9798,-1.9798,-1.9798,-1.9773,-1.9648,-1.9698,-1.9748,-1.9459,-1.9497,-1.9447,-1.8769,-1.8292,-1.7802,0.0,0.0,0.0,0.0,0.0,0.0,0.0,0.0,0.0,0.0,0.0,0.0,0.0,0.0,0.0,0.0,0.0,0.0,0.0,-0.9278,-1.0039,-0.9622,-1.0617,0.0,0.0,0.0,0.0,-1.4444,-1.4691,-1.51,-1.5793,-1.6128,-1.687,-1.8003,-1.8543,-1.922,-2.0016,-2.0485,-2.0699,-2.0699,-2.0699,-2.0699,-2.0699,-2.0699,-2.0699,-2.0699,-2.0699,-2.0699,-2.0699,-2.0699,-2.0699,-2.0699,-1.0677,0.0,0.0,-1.3194,0.0,0.0,-1.3859,0.0,0.0,-1.712,-1.9159,0.0,-2.1338,-2.2418,-2.3108,-2.3108,-2.2819,0.0,0.0,0.0,0.0,-2.0717,-2.0231,-1.9762,-1.9346,-1.7735,0.0,-1.6158,0.0,0.0,-1.2475,0.0,0.0,0.0,0.0,-1.3397,0.0,-1.5534,-1.7082,-1.7936,-1.8692,0.0,0.0,-1.9695,-1.9798,-1.9798,-1.9798,-1.9798,-1.9798,-1.9798,-1.9798,-1.9798,-1.9798,-1.9798,-1.9798,-1.9798,-1.9798,-1.9798,-1.9798,-1.9798,-1.9736,-1.9447,-1.9133,-1.8756,-1.8229,-1.8318,-1.8287,0.0,0.0,0.0,0.0,0.0,0.0,0.0,0.0,0.0,0.0,0.0,0.0,0.0,0.0,0.0,0.0,-0.8689,-0.9557,-0.9185,-1.0112,0.0,0.0,0.0,0.0,-1.3886,-1.431,-1.4772,-1.525,-1.5666,-1.6369,-1.7324,-1.7946,-1.8734,-1.9686,-2.0097,-2.0438,-2.0699,-2.0699,-2.0699,-2.0699,-2.0699,-2.0699,-2.0699,-2.0699,-2.0699,-2.0699,-2.0699,-2.0699,-2.0699,0.0,0.0,0.0,0.0,0.0,0.0,0.0,-1.5653,0.0,-1.7328,0.0,-2.0633,-2.0808,-2.2194,-2.3108,-2.3108,0.0,-2.2694,-2.1769,-2.2159,-2.1958,-2.0955,-2.0905,-2.0603,-1.9924,-1.8794,0.0,0.0,0.0,0.0,0.0,0.0,0.0,0.0,0.0,0.0,0.0,-1.5567,-1.6698,0.0,-1.8337,-1.8827,-1.8922,-1.941,-1.9592,-1.9592,-1.9592,-1.9669,-1.9798,-1.9798,-1.9798,-1.9798,-1.9798,-1.9798,-1.9798,-1.9798,-1.9798,-1.9798,-1.9798,-1.9798,-1.9798,-1.9798,-1.9798,-1.9685,-1.9208,-1.9108,-1.8921,-1.824,-1.7729,-1.7178,0.0,0.0,0.0,0.0,0.0,0.0,0.0,0.0,0.0,0.0,0.0,0.0,0.0,-0.8135,-0.8606,-0.92,-0.9303,0.0,0.0,0.0,0.0,-1.337,-1.4188,-1.4535,-1.4443,0.0,-1.5962,-1.642,-1.7277,-1.8237,-1.9242,-1.9631,-2.0137,-2.0699,-2.0699,-2.0699,-2.0699,-2.0699,-2.0699,-2.0699,-2.0699,-2.0699,-2.0699,-2.0699,-2.0699,-2.0699,0.0,0.0,0.0,0.0,0.0,-1.6011,-1.6562,-1.7035,-1.7835,-1.9158,-2.03,-2.1431,-2.2508,-2.2935,-2.3108,-2.3108,-2.3108,0.0,0.0,0.0,0.0,-2.2046,-2.202,-2.1556,-2.0566,-1.8995,-1.784,0.0,-1.4601,-1.2977,0.0,0.0,0.0,0.0,0.0,0.0,-1.4664,-1.5081,0.0,-1.6691,-1.729,-1.7809,-1.8267,-1.8363,-1.839,-1.839,-1.839,-1.9004,-1.9798,-1.9798,-1.9798,-1.9798,-1.9798,-1.9798,-1.9798,-1.9798,-1.9798,-1.9798,-1.9798,-1.9798,-1.9798,-1.9798,-1.9798,-1.9773,-1.9685,-1.966,-1.9352,-1.8315,-1.8032,-1.7414,-1.5595,0.0,0.0,0.0,0.0,0.0,0.0,0.0,0.0,0.0,0.0,0.0,0.0,0.0,0.0,0.0,0.0,0.0,0.0,0.0,0.0,0.0,-1.4048,0.0,0.0,0.0,-1.5452,-1.6501,-1.6933,-1.7886,-1.9302,-1.9631,-2.0137,-2.0699,-2.0699,-2.0699,-2.0699,-2.0699,-2.0699,-2.0699,-2.0699,-2.0699,-2.0699,-2.0699,-2.0699,-2.0699,0.0,0.0,0.0,0.0,0.0,0.0,0.0,-1.8153,0.0,-1.9586,-2.0326,-2.117,-2.2168,-2.2757,-2.3108,-2.3108,-2.3108,-2.3108,-2.3108,-2.3108,-2.2982,-2.2719,-2.2443,0.0,-2.1531,-1.9886,-1.8631,-1.7802,-1.5304,-1.3509,0.0,0.0,0.0,0.0,0.0,-1.3804,0.0,0.0,0.0,-1.6488,-1.6988,-1.7368,-1.7672,-1.7984,-1.8093,-1.8093,-1.8093,-1.8444,-1.8924,-1.8924,-1.8924,-1.8924,-1.8924,-1.8924,-1.8924,-1.8924,-1.8924,-1.8924,-1.8924,-1.8924,-1.8924,-1.8924,-1.9148,-1.9317,-1.8977,-1.9174,-1.9042,-1.7863,-1.7617,-1.7163,-1.5641,-1.4591,0.0,0.0,0.0,0.0,0.0,0.0,0.0,0.0,0.0,0.0,0.0,0.0,0.0,0.0,0.0,0.0,0.0,0.0,0.0,0.0,0.0,0.0,0.0,0.0,0.0,-1.5878,-1.6163,-1.7156,-1.8845,-1.9001,-1.9657,-2.0699,-2.0699,-2.0699,-2.0699,-2.0699,-2.0699,-2.0699,-2.0699,-2.0699,-2.0699,-2.0699,-2.0699,-2.0699,0.0,-1.6059,0.0,0.0,-1.7913,0.0,-1.8152,-1.9124,-1.9942,-1.9988,-2.0405,-2.098,-2.1733,-2.2548,-2.3008,-2.2896,-2.3005,-2.3108,-2.3108,-2.3108,-2.3108,-2.3108,-2.2694,-2.2406,-2.2309,-2.0642,-1.9245,0.0,-1.5935,0.0,0.0,0.0,-1.169,-1.1302,0.0,0.0,0.0,0.0,-1.5762,-1.6573,-1.7108,-1.732,-1.7348,-1.7829,-1.7997,-1.7997,-1.7997,-1.7997,-1.7997,-1.7997,-1.8056,-1.8093,-1.8093,-1.8093,-1.8093,-1.8093,-1.8093,-1.8093,-1.8093,-1.8093,-1.8093,-1.8093,-1.8456,-1.8682,-1.8213,-1.8483,-1.8486,-1.7291,-1.6814,-1.6337,-1.5562,-1.4758,0.0,0.0,0.0,0.0,0.0,0.0,0.0,0.0,0.0,0.0,0.0,0.0,0.0,0.0,0.0,0.0,0.0,0.0,0.0,0.0,0.0,-1.3791,-1.3848,0.0,-1.4743,-1.5108,-1.54,-1.6479,-1.8213,-1.8344,-1.9254,-2.0699,-2.0699,-2.0699,-2.0699,-2.0699,-2.0699,-2.0699,-2.0699,-2.0699,-2.0699,-2.0699,-2.0699,-2.0699,0.0,0.0,0.0,0.0,0.0,0.0,-1.9342,-1.9922,-2.0666,-2.1578,-2.1531,-2.1789,-2.2763,-2.285,-2.2674,-2.2242,-2.275,-2.3108,-2.3108,-2.3108,-2.3108,-2.3108,-2.3058,-2.2794,-2.2322,-2.0667,-1.9083,0.0,0.0,-1.4261,0.0,0.0,-1.3046,-1.3104,0.0,0.0,0.0,-1.5909,-1.6537,-1.6983,-1.748,-1.7656,-1.7656,-1.7718,-1.7748,-1.7748,-1.7748,-1.7748,-1.7748,-1.7748,-1.7897,-1.8093,-1.8093,-1.8093,-1.8093,-1.8093,-1.8093,-1.8093,-1.8093,-1.8093,-1.8093,-1.8093,-1.8147,-1.8174,-1.812,-1.8147,-1.7885,-1.6801,-1.5503,-1.4545,-1.4462,-1.4035,-1.3647,0.0,0.0,0.0,0.0,0.0,0.0,0.0,0.0,0.0,0.0,0.0,0.0,0.0,0.0,0.0,0.0,0.0,0.0,-1.2832,0.0,-1.3113,-1.3349,-1.382,-1.4197,-1.4489,-1.5062,-1.6112,-1.7605,-1.8143,-1.9254,-2.0699,-2.0699,-2.0699,-2.0699,-2.0699,-2.0699,-2.0699,-2.0699,-2.0699,-2.0699,-2.0699,-2.0699,-2.0749,0.0,0.0,0.0,0.0,0.0,0.0,0.0,-2.0123,-2.0798,-2.1669,-2.1627,-2.1818,-2.2608,-2.264,-2.2525,-2.236,-2.2327,-2.248,-2.2889,-2.2647,-2.2494,-2.2494,-2.2494,-2.2213,-2.1599,-2.0617,-1.9499,0.0,0.0,0.0,0.0,-1.3746,-1.3877,-1.416,0.0,-1.5074,-1.5658,-1.6358,-1.6947,-1.7451,-1.7626,-1.7699,-1.7699,-1.7699,-1.7699,-1.7699,-1.7699,-1.7699,-1.7699,-1.7699,-1.7775,-1.7819,-1.7528,-1.7431,-1.7377,-1.7164,-1.7078,-1.7078,-1.7078,-1.7078,-1.7078,-1.7078,-1.7307,-1.749,-1.7162,-1.7335,-1.7263,-1.6228,-1.5102,-1.4304,-1.4304,-1.3931,-1.3597,0.0,0.0,0.0,0.0,0.0,0.0,0.0,0.0,0.0,0.0,0.0,0.0,0.0,0.0,-0.8394,-1.0108,0.0,0.0,-1.2482,0.0,-1.323,-1.3073,-1.3683,-1.4197,-1.4582,-1.4987,-1.6102,-1.781,-1.8044,-1.8983,-2.0423,-2.0524,-2.0587,-2.0587,-2.0687,-2.0699,-2.0699,-2.0699,-2.0699,-2.0724,-2.1008,-2.1106,-2.118,-1.6869,0.0,-1.8303,0.0,-1.9753,-1.9753,-2.0072,-2.0456,-2.091,-2.1475,-2.1459,-2.1671,-2.227,-2.2351,-2.233,-2.2229,-2.2071,-2.2199,-2.268,-2.2261,-2.1997,-2.1997,-2.1886,0.0,-2.1092,-2.0412,-1.961,-1.8752,-1.7463,0.0,0.0,-1.4832,-1.5001,0.0,-1.5461,-1.5772,-1.6261,-1.686,-1.7379,-1.7842,-1.7976,-1.8059,-1.8091,-1.8091,-1.8091,-1.8091,-1.8091,-1.8091,-1.8091,-1.8091,-1.8091,-1.8019,-1.7399,-1.7213,-1.713,-1.6705,-1.657,-1.655,-1.6444,-1.6413,-1.6413,-1.6413,-1.6684,-1.687,-1.6488,-1.6684,-1.6699,-1.5717,-1.4749,-1.4082,-1.4082,-1.3814,-1.3597,-1.3597,0.0,0.0,0.0,0.0,0.0,0.0,0.0,-1.183,0.0,0.0,0.0,0.0,0.0,-0.9532,-1.0745,0.0,0.0,0.0,0.0,0.0,0.0,-1.3556,-1.414,-1.4605,-1.5045,-1.6191,-1.793,-1.8424,-1.9231,-2.0207,-2.0347,-2.041,-2.0423,-2.0498,-2.0549,-2.0549,-2.0549,-2.0549,-2.0599,-2.0934,-2.1142,-2.1348,-1.723,-1.8092,-1.8999,-2.0353,-2.076,-2.0886,-2.0896,-2.1051,-2.1195,-2.1195,-2.1195,-2.1394,-2.1951,-2.2078,-2.1955,-2.1557,-2.2104,-2.2502,-2.2502,-2.2045,-2.1783,0.0,0.0,-2.1092,-2.1092,-1.9994,-1.9197,-1.8693,0.0,0.0,-1.675,-1.6553,-1.6564,-1.6765,-1.6563,-1.6487,-1.6548,-1.7481,-1.7973,-1.8133,-1.8614,-1.8921,-1.9088,-1.9088,-1.9088,-1.9088,-1.9088,-1.9088,-1.9088,-1.9088,-1.9088,-1.8932,-1.7977,-1.7699,-1.7606,-1.7141,-1.6977,-1.6913,-1.6498,-1.6413,-1.6413,-1.6413,-1.6413,-1.6402,-1.6413,-1.6413,-1.6143,-1.5194,-1.4273,-1.3597,-1.3597,-1.3597,-1.3597,-1.3597,0.0,0.0,0.0,0.0,0.0,0.0,-1.213,-1.1591,-1.1581,0.0,0.0,0.0,0.0,-1.1292,-1.2214,0.0,0.0,-1.2843,-1.2905,0.0,-1.2905,-1.3359,-1.3881,-1.4407,-1.5212,-1.6324,-1.7762,-1.9421,-2.0169,-2.0207,-2.0207,-2.0207,-2.0207,-2.0207,-2.0207,-2.0207,-2.0207,-2.0207,-2.0207,-2.0207,-2.0535,-2.1091,-1.7513,-1.8016,-1.8694,-2.0304,-2.0644,-2.0693,-2.0693,-2.077,-2.0799,-2.0799,-2.0896,-2.1039,-2.1232,-2.1401,-2.1415,0.0,-2.1319,-2.1553,0.0,-2.1616,-2.1388,-2.1388,-2.0794,-2.0276,-1.9802,-1.9152,-1.8597,-1.8143,0.0,0.0,0.0,-1.6455,-1.6577,-1.6931,-1.7052,-1.7145,-1.7302,-1.7922,-1.8238,-1.8381,-1.8556,-1.8717,-1.8908,-1.8908,-1.8908,-1.8908,-1.9031,-1.9008,-1.8908,-1.9031,-1.9108,-1.9056,-1.8733,-1.8423,-1.8092,-1.7606,-1.7254,-1.6986,-1.6841,-1.6612,-1.6413,-1.6413,-1.6413,-1.6413,-1.6413,-1.6164,-1.5759,-1.5121,-1.4511,-1.3969,-1.3648,-1.3597,-1.3597,-1.3597,-1.3597,0.0,0.0,0.0,0.0,0.0,0.0,-1.2492,0.0,-1.1395,0.0,0.0,0.0,0.0,0.0,0.0,0.0,0.0,-1.3072,0.0,-1.2905,-1.3359,-1.4035,-1.4891,-1.5521,-1.6793,-1.8623,-1.952,-1.9939,-1.9939,-2.0029,-2.0067,-2.0067,-2.0156,-2.0207,-2.0233,-2.061,-2.0759,-2.0845,-2.1633,-2.2011,-2.2235,-1.7229,-1.7796,-1.8439,-1.9844,-2.0372,-2.0605,-2.0605,-2.0605,-2.0605,-2.0605,-2.0693,-2.078,-2.078,-2.0886,0.0,-2.1167,-2.1057,-2.1111,-2.1548,-2.1157,-2.0942,-2.0942,-2.0365,-1.9846,-1.9429,-1.9148,0.0,-1.8398,-1.7881,-1.7488,-1.7249,-1.705,-1.7135,-1.7509,-1.7589,-1.7674,-1.7783,-1.8059,-1.8269,-1.8414,-1.8414,-1.8539,-1.8684,-1.8684,-1.8684,-1.8707,-1.8841,-1.8808,-1.8707,-1.8841,-1.8875,-1.8875,-1.8875,-1.868,-1.8395,-1.8049,-1.7709,-1.7349,-1.7009,-1.6692,-1.6417,-1.6243,-1.6202,-1.6202,-1.6202,-1.5854,-1.5444,-1.513,-1.462,-1.4146,-1.3834,-1.3676,-1.3597,-1.3597,-1.3597,-1.3597,-1.3597,0.0,0.0,0.0,0.0,0.0,0.0,-1.2058,-1.1882,0.0,0.0,0.0,0.0,0.0,0.0,-1.2773,-1.332,0.0,-1.3163,-1.3617,-1.4387,-1.5406,-1.6528,-1.784,-1.9317,-1.9643,-1.9798,-1.9798,-1.9901,-1.9926,-1.9926,-2.0029,-2.0042,-2.0093,-2.0421,-2.0547,-2.0671,-2.1585,-2.2035,-2.2305,-1.6535,-1.735,-1.8198,0.0,-1.9971,0.0,-2.0605,-2.0605,-2.0605,-2.0605,-2.0605,-2.0605,-2.0605,-2.0605,-2.076,-2.1128,0.0,0.0,0.0,-2.0775,-2.0544,-2.0544,-2.0076,-1.9799,-1.9799,-1.9769,-1.9595,-1.9194,-1.8606,-1.8387,-1.8488,-1.8163,-1.811,-1.8269,-1.8076,-1.8008,-1.8008,-1.8008,-1.8129,-1.8319,-1.8319,-1.8407,-1.8572,-1.8532,-1.8522,-1.8522,-1.8526,-1.8482,-1.8482,-1.8516,-1.8516,-1.8516,-1.8516,-1.8516,-1.8502,-1.8428,-1.8252,-1.7919,-1.7083,-1.6698,-1.6407,-1.6036,-1.5915,-1.5885,-1.5885,-1.5564,-1.5225,-1.5195,-1.4655,-1.4175,-1.4103,-1.3854,-1.3628,-1.3597,-1.3597,-1.3597,-1.3597,0.0,0.0,0.0,0.0,0.0,0.0,-1.273,-1.2936,0.0,0.0,0.0,0.0,0.0,-1.2286,-1.3545,-1.3597,-1.3621,-1.3668,-1.4125,-1.4933,-1.6101,-1.8069,-1.9271,-1.9798,-1.9798,-1.9798,-1.9798,-1.9798,-1.9798,-1.9798,-1.9798,-1.9798,-1.9798,-1.9875,-1.9901,-1.9978,-2.0547,-2.1091,-2.1599,0.0,0.0,-1.7504,-1.9015,-1.946,-1.9814,-2.0489,-2.0605,-2.0605,-2.0605,-2.0605,-2.0605,-2.0605,-2.0605,-2.0644,-2.0722,-2.0896,-2.0984,-2.0984,-2.0884,-2.0824,-2.0824,-2.0189,-1.9878,-1.9878,-1.9563,-1.9383,-1.9285,-1.8772,-1.8556,-1.8591,-1.8189,-1.8042,-1.8076,-1.8008,-1.8008,-1.8008,-1.8008,-1.8193,-1.8521,-1.8521,-1.8832,-1.9286,-1.8929,-1.88,-1.8785,-1.8558,-1.8438,-1.8371,-1.8482,-1.8516,-1.8516,-1.8516,-1.8516,-1.8496,-1.8485,-1.8223,-1.792,-1.7708,-1.7081,-1.6477,-1.6377,-1.6136,-1.5885,-1.5885,-1.5805,-1.5634,-1.5265,-1.5052,-1.477,-1.42,-1.4036,-1.3902,-1.3648,-1.3597,-1.3597,-1.3597,-1.3597,0.0,0.0,-1.3431,-1.3414,-1.331,-1.3369,-1.3287,0.0,0.0,0.0,0.0,-1.276,-1.2894,-1.3576,-1.3597,-1.381,-1.421,-1.4733,-1.5914,-1.7734,-1.8586,-1.9271,-1.9798,-1.9798,-1.9798,-1.9798,-1.9798,-1.9798,-1.9798,-1.9798,-1.9798,-1.9875,-2.0708,-2.1028,-2.1151,-2.2133,-2.2601,-2.2715,-1.6023,-1.6419,-1.6984,-1.7957,-1.8767,-1.946,-1.9932,-2.0323,-2.0605,-2.0605,-2.0605,-2.0605,-2.0605,-2.0605,-2.0605,-2.0605,-2.0693,-2.078,-2.078,-2.078,-2.078,-2.078,-2.0419,-2.0215,-2.0215,-2.0028,-1.9775,-1.957,-1.9141,-1.8936,-1.8926,-1.8701,-1.8594,-1.8594,-1.8594,-1.8594,-1.8594,-1.8594,-1.873,-1.8936,-1.8936,-1.9154,-1.9423,-1.9167,-1.9069,-1.9075,-1.8918,-1.8804,-1.873,-1.8602,-1.8532,-1.8503,-1.8339,-1.8279,-1.8279,-1.8279,-1.8178,-1.8048,-1.7815,-1.7352,-1.6822,-1.6416,-1.5989,-1.5662,-1.5662,-1.5662,-1.5603,-1.5327,-1.5175,-1.4919,-1.4298,-1.4094,-1.3911,-1.3563,-1.3515,-1.3515,-1.3586,-1.3597,0.0,-1.3597,-1.3597,-1.3597,-1.3597,-1.3597,-1.3483,-1.3235,-1.3214,0.0,-1.3214,-1.3214,-1.3338,-1.3586,-1.3597,-1.3987,-1.4748,-1.6005,-1.7287,-1.8632,-1.9131,-1.9522,-1.9798,-1.9798,-1.9798,-1.9798,-1.9798,-1.9798,-1.9798,-1.9798,-1.9798,-1.985,-2.0434,-2.0807,-2.114,-2.2002,-2.2486,-2.2729,-1.5389,-1.5982,-1.6535,-1.6698,-1.7917,-1.8935,-1.9094,-1.9854,-2.0411,-2.0411,-2.0527,-2.0605,-2.0605,-2.0605,-2.0605,-2.0605,-2.0605,-2.0605,-2.0605,-2.0605,-2.0605,-2.0605,-2.0605,-2.0605,-2.0605,-2.0605,-2.0381,-2.0019,-1.959,-1.9385,-1.9375,-1.9316,-1.9287,-1.9287,-1.9287,-1.9287,-1.9287,-1.9287,-1.9326,-1.9385,-1.9385,-1.9424,-1.9473,-1.9404,-1.9385,-1.9375,-1.9307,-1.9287,-1.9228,-1.8822,-1.8656,-1.8539,-1.8213,-1.8057,-1.8008,-1.8008,-1.811,-1.8156,-1.778,-1.7511,-1.72,-1.632,-1.5811,-1.5498,-1.543,-1.541,-1.541,-1.541,-1.5222,-1.4923,-1.4478,-1.4158,-1.3847,-1.3531,-1.3412,-1.342,-1.3515,0.0,-1.3549,-1.3573,-1.3573,-1.3586,-1.3597,-1.3597,-1.3597,-1.3597,-1.3597,-1.3597,-1.3597,-1.3597,-1.3597,-1.3597,-1.3597,-1.4206,-1.5401,-1.7402,-1.8638,-1.9119,-1.9578,-1.9798,-1.9798,-1.9798,-1.9798,-1.9798,-1.9798,-1.9798,-1.9798,-1.9798,-1.9798,-1.9798,-1.9901,-2.0258,-2.0784,-2.1334,-2.1851,-2.237,-1.5389,-1.5506,-1.5824,-1.6576,-1.6903,-1.735,-1.8078,-1.8935,-1.9499,-1.9499,-2.0128,-2.0605,-2.0605,-2.0605,-2.0605,-2.0605,-2.0605,-2.0605,-2.0605,-2.0605,-2.0605,-2.0605,-2.0605,-2.0605,-2.0605,-2.0605,-2.0566,-2.0507,-2.0029,-1.9814,-1.9814,-1.9453,-1.9287,-1.9287,-1.9287,-1.9287,-1.9287,-1.9287,-1.9492,-1.9814,-1.9814,-2.0039,-2.0361,-1.9961,-1.9814,-1.9775,-1.9414,-1.9287,-1.9277,-1.9209,-1.8945,-1.8588,-1.8529,-1.8256,-1.8008,-1.8008,-1.8008,-1.8022,-1.7964,-1.768,-1.72,-1.632,-1.6046,-1.5899,-1.5498,-1.541,-1.541,-1.541,-1.5361,-1.5243,-1.4943,-1.4525,-1.4142,-1.3867,-1.3479,-1.3242,-1.3266,0.0,-1.329,-1.342,-1.3433,-1.3491,-1.3597,-1.3597,-1.3597,-1.3597,-1.3597,-1.3597,-1.3597,-1.3597,-1.3597,-1.3597,-1.3597,-1.4513,-1.644,-1.808,-1.9158,-1.9682,-1.9747,-1.9798,-1.9798,-1.9798,-1.9798,-1.9798,-1.9798,-1.9798,-1.9798,-1.9798,-1.9798,-1.985,-2.0308,-2.0795,-2.1358,-2.1874,-2.2394,-2.2797,-1.5615,-1.5506,-1.5548,-1.594,-1.5982,-1.6304,-1.7188,-1.8037,-1.8607,-1.8607,-1.8957,-1.9362,-1.9854,-1.9893,-2.0089,-2.0566,-2.0605,-2.0605,-2.0605,-2.0605,-2.0605,-2.0605,-2.0605,-2.0605,-2.0605,-2.0605,-2.0605,-2.0605,-2.0361,-2.0264,-2.0264,-2.0106,-2.0008,-2.0008,-2.0008,-2.0008,-2.0008,-2.0008,-2.0126,-2.0264,-2.0264,-2.0429,-2.0586,-2.038,-2.0264,-2.0244,-2.0087,-2.0008,-1.9979,-1.9707,-1.9492,-1.9212,-1.8744,-1.8471,-1.8266,-1.8076,-1.8008,-1.8008,-1.8008,-1.7705,-1.7285,-1.6907,-1.6447,-1.6036,-1.584,-1.5586,-1.541,-1.541,-1.541,-1.5283,-1.4957,-1.4712,-1.4481,-1.4162,-1.374,0.0,0.0,-1.3355,-1.3308,-1.3619,-1.35,-1.3511,-1.384,-1.3707,-1.3597,-1.3597,-1.3597,-1.3597,-1.3597,-1.3597,-1.3734,-1.3983,-1.4815,-1.6013,-1.7547,-1.8795,-1.956,-1.9798,-1.9798,-1.9798,-1.9798,-1.9798,-1.9798,-1.9798,-1.9798,-1.9798,-1.9798,-1.9798,-1.9798,-1.985,-2.0384,-2.0919,-2.1465,-2.1992,-2.2486,-2.2888,-1.5791,-1.5666,-1.5476,-1.5396,-1.5389,-1.5631,-1.6304,-1.7147,-1.7715,-1.7715,-1.7876,-1.8238,-1.8935,-1.9015,-1.9253,-1.9923,-2.0001,-2.0001,-2.0001,-2.0001,-2.0167,-2.0566,-2.0605,-2.0605,-2.0605,-2.0605,-2.0605,-2.0605,-2.0605,-2.0605,-2.0605,-2.0605,-2.0605,-2.0605,-2.0605,-2.0605,-2.0605,-2.0605,-2.0605,-2.0605,-2.0605,-2.0605,-2.0605,-2.0605,-2.0605,-2.0605,-2.0605,-2.0605,-2.0546,-2.0176,-2.0,-1.9795,-1.9104,-1.8831,-1.8666,-1.8247,-1.8086,-1.8008,-1.8008,-1.7773,-1.75,-1.7402,-1.6907,-1.6349,-1.6144,-1.5831,-1.5537,-1.543,-1.541,-1.5312,-1.499,-1.4853,-1.4705,-1.4454,0.0,0.0,0.0,-1.3636,-1.3561,-1.3956,-1.3761,-1.377,-1.415,-1.3897,-1.3728,-1.3728,-1.3625,-1.3597,-1.3597,-1.3597,-1.3928,-1.465,-1.6098,-1.7274,-1.808,-1.9242,-1.9798,-1.9798,-1.9798,-1.9798,-1.9798,-1.9798,-1.9798,-1.9798,-1.9798,-1.9798,-1.9798,-1.9798,-1.9798,-1.985,-2.0384,-2.0919,-2.1465,-2.1992,-2.2486,-2.2888,-1.5605,-1.5712,-1.5789,-1.544,-1.5389,-1.5431,-1.5506,-1.6221,-1.678,-1.678,-1.7513,-1.8037,-1.8078,-1.8078,-1.8118,-1.8198,-1.8198,-1.8198,-1.8198,-1.8198,-1.8917,-2.0527,-2.0605,-2.0605,-2.0605,-2.0605,-2.0605,-2.0605,-2.0605,-2.0605,-2.0605,-2.0605,-2.0605,-2.0605,-2.0605,-2.0605,-2.0605,-2.0605,-2.0605,-2.0605,-2.0605,-2.0605,-2.0605,-2.0605,-2.0605,-2.0605,-2.0605,-2.0605,-2.0595,-2.0566,-2.0244,-1.9902,-1.9834,-1.9551,-1.915,-1.8685,-1.8286,-1.8008,-1.8008,-1.7988,-1.7871,-1.748,-1.7367,-1.7103,-1.6281,-1.6065,-1.5938,-1.5498,-1.541,-1.54,-1.5371,-1.5049,-1.4803,-1.4774,0.0,0.0,-1.4082,-1.4062,-1.4106,-1.4251,-1.4248,-1.4301,-1.4463,-1.4216,-1.4067,-1.4067,-1.3786,-1.3597,-1.3597,-1.3597,-1.4268,-1.5738,-1.6794,-1.7393,-1.7465,-1.9024,-1.9798,-1.9798,-1.9798,-1.9798,-1.9798,-1.9798,-1.9798,-1.9798,-1.9798,-1.9798,-1.9798,-1.9798,-1.9798,-1.985,-2.0384,-2.0919,-2.1465,-2.1992,-2.2486,-2.2888,-1.5711,-1.5789,-1.5634,-1.5319,-1.5255,-1.5212,-1.5216,-1.5492,-1.5733,-1.5865,-1.6064,-1.646,-1.7107,-1.7074,-1.7277,-1.7957,-1.7997,-1.7997,-1.7997,-1.7997,-1.8519,-1.9736,-1.9775,-2.005,-2.0605,-2.0605,-2.0605,-2.0605,-2.0605,-2.0605,-2.0605,-2.0605,-2.0605,-2.0605,-2.0605,-2.0605,-2.0605,-2.0605,-2.0605,-2.0605,-2.0605,-2.0605,-2.0605,-2.0605,-2.0605,-2.0605,-2.0605,-2.0605,-2.0605,-2.0605,-2.0488,-2.0273,-2.0,-1.9805,-1.9541,-1.8802,-1.8305,-1.8008,-1.8008,-1.8008,-1.7969,-1.7812,-1.7578,-1.7227,-1.6611,-1.629,-1.5968,-1.5498,-1.541,-1.541,-1.541,-1.5283,-1.5176,-1.5176,0.0,-1.4531,-1.4531,-1.428,-1.4238,-1.4557,-1.4442,-1.4436,-1.4768,-1.4523,-1.423,-1.3983,-1.3861,-1.3834,-1.3922,-1.4532,-1.5164,-1.5759,-1.6742,-1.7634,-1.8374,-1.901,-1.9474,-1.9798,-1.9798,-1.9798,-1.9798,-1.9798,-1.9798,-1.9798,-1.9798,-1.9798,-1.9798,-1.9798,-2.0003,-2.0359,-2.0894,-2.1431,-2.1945,-2.2463,-2.2752,-2.2888,-1.5351,-1.5652,-1.5678,-1.5371,-1.5274,-1.5241,-1.512,-1.5148,-1.519,-1.5324,-1.5147,-1.5278,-1.6152,-1.5993,-1.6173,-1.6895,-1.6976,-1.6976,-1.6976,-1.6976,-1.7553,-1.8856,-1.8895,-1.9173,-1.9766,-1.9766,-1.9766,-1.9766,-1.9766,-1.9766,-1.9766,-1.9766,-1.9766,-1.9766,-1.9766,-1.9766,-1.9805,-2.0089,-2.0206,-2.0216,-2.0489,-2.0605,-2.0605,-2.0605,-2.0605,-2.0605,-2.0605,-2.0605,-2.0605,-2.0605,-2.0605,-2.0546,-2.0215,-2.0029,-1.9775,-1.9017,-1.85,-1.8174,-1.8047,-1.8008,-1.8008,-1.8008,-1.7793,-1.7471,-1.7031,-1.6592,-1.6143,-1.5703,-1.5508,-1.541,-1.541,-1.541,-1.541,-1.541,-1.5176,-1.498,-1.498,-1.4727,-1.4621,-1.4951,-1.4782,-1.4769,-1.5102,-1.4847,-1.4523,-1.426,-1.4162,-1.4149,-1.4307,-1.5203,-1.5691,-1.5691,-1.6669,-1.7699,-1.8709,-1.8907,-1.9172,-1.9552,-1.9721,-1.9798,-1.9798,-1.9798,-1.9798,-1.9798,-1.9798,-1.9798,-1.9798,-1.9798,-2.0029,-2.0409,-2.0944,-2.1382,-2.1779,-2.244,-2.2684,-2.2706,-1.4257,-1.5233,-1.5976,-1.5669,-1.5613,-1.5508,-1.5252,-1.5203,-1.5203,-1.5203,-1.4887,-1.481,-1.5168,-1.488,-1.4692,-1.4699,-1.4692,-1.4692,-1.4692,-1.4692,-1.567,-1.7876,-1.7997,-1.7997,-1.7997,-1.7997,-1.7997,-1.7997,-1.7997,-1.7997,-1.7997,-1.7997,-1.7997,-1.7997,-1.7997,-1.7997,-1.8078,-1.8935,-1.9301,-1.9381,-2.0245,-2.0566,-2.0566,-2.0605,-2.0605,-2.0605,-2.0605,-2.0605,-2.0605,-2.0605,-2.0605,-2.0605,-2.0605,-2.0264,-1.9834,-1.9414,-1.8984,-1.851,-1.8091,-1.8008,-1.8008,-1.8008,-1.8008,-1.79,-1.748,-1.7051,-1.658,-1.6183,-1.5723,-1.5391,-1.5381,-1.541,-1.541,-1.5381,-1.541,-1.541,-1.541,-1.541,-1.541,-1.541,-1.541,-1.541,-1.541,-1.5153,-1.499,-1.499,-1.4693,-1.4602,-1.4787,-1.5388,-1.5728,-1.5728,-1.6669,-1.7479,-1.8093,-1.8682,-1.8987,-1.9013,-1.9552,-1.9798,-1.9798,-1.9798,-1.9798,-1.9798,-1.9798,-1.9798,-1.9798,-1.9798,-1.9798,-1.985,-2.0409,-2.061,-2.0734,-2.1803,-2.2208,-2.2278,-1.3987,-1.4599,-1.4989,-1.5402,-1.544,-1.5436,-1.5277,-1.5273,-1.5242,-1.5187,-1.5004,-1.494,-1.5189,-1.4788,-1.4656,-1.4999,-1.4824,-1.4692,-1.4692,-1.4692,-1.4977,-1.5677,-1.6281,-1.6895,-1.7504,-1.7504,-1.7585,-1.7787,-1.7787,-1.7868,-1.7997,-1.7997,-1.7997,-1.7997,-1.7997,-1.7997,-1.8037,-1.8278,-1.8407,-1.8407,-1.8678,-1.8798,-1.8838,-1.945,-1.9696,-1.9775,-2.0372,-2.0605,-2.0605,-2.0605,-2.0605,-2.0605,-2.0605,-2.0264,-1.9893,-1.9766,-1.9173,-1.8568,-1.8451,-1.8198,-1.8008,-1.8008,-1.8008,-1.79,-1.748,-1.7285,-1.6973,-1.6251,-1.5987,-1.5652,-1.491,-1.5118,-1.5264,-1.4854,-1.5118,-1.541,-1.541,-1.541,-1.541,-1.541,-1.541,-1.541,-1.541,-1.5332,-1.5164,-1.4888,-1.4972,-1.5138,-1.5284,-1.5863,-1.6205,-1.6205,-1.6489,-1.6722,-1.692,-1.8306,-1.9198,-1.9552,-1.9721,-1.9798,-1.9798,-1.9798,-1.9798,-1.9798,-1.9798,-1.9798,-1.9798,-1.9798,-2.0029,-2.0409,-2.0944,-2.1382,-2.1803,-2.2463,-2.2684,-2.2706,-1.2829,-1.3757,-1.4435,-1.4888,-1.5284,-1.5517,-1.5359,-1.5364,-1.53,-1.5126,-1.5004,-1.5011,-1.5129,-1.4834,-1.4749,-1.5108,-1.4957,-1.4811,-1.4811,-1.4811,-1.4811,-1.4811,-1.5312,-1.5819,-1.6247,-1.6281,-1.6363,-1.6519,-1.6617,-1.6739,-1.687,-1.6911,-1.6952,-1.6952,-1.6952,-1.6952,-1.6992,-1.735,-1.7472,-1.7513,-1.7876,-1.7997,-1.8078,-1.8607,-1.8776,-1.8847,-1.9362,-1.9805,-2.0089,-2.0089,-2.0323,-2.0605,-2.0605,-2.0419,-2.0137,-1.9961,-1.9514,-1.9026,-1.8695,-1.8203,-1.7764,-1.7592,-1.7794,-1.7939,-1.7686,-1.7258,-1.6881,-1.6658,-1.6218,-1.5742,-1.5243,-1.5427,-1.5497,-1.4941,-1.5147,-1.541,-1.541,-1.541,-1.541,-1.541,-1.541,-1.541,-1.541,-1.541,-1.5312,-1.5049,-1.5294,-1.5501,-1.5558,-1.5963,-1.6202,-1.6202,-1.6477,-1.6637,-1.6637,-1.8197,-1.9028,-1.9135,-1.9579,-1.9798,-1.9798,-1.9798,-1.9798,-1.9798,-1.9798,-1.9798,-1.9798,-1.9798,-2.0131,-2.0635,-2.0968,-2.1407,-2.1945,-2.244,-2.2615,-2.2661,-1.1175,-1.2732,-1.4052,-1.4148,-1.4914,-1.5448,-1.5192,-1.5153,-1.5094,-1.4902,-1.4907,-1.4907,-1.5048,-1.5022,-1.5022,-1.5042,-1.5022,-1.5008,-1.5008,-1.5008,-1.5008,-1.5008,-1.5008,-1.4923,-1.4747,-1.4733,-1.4719,-1.4741,-1.4958,-1.5076,-1.509,-1.5257,-1.5347,-1.5347,-1.5347,-1.5347,-1.5382,-1.6221,-1.6576,-1.6617,-1.7513,-1.7876,-1.7917,-1.8037,-1.8037,-1.7997,-1.8118,-1.8567,-1.9134,-1.9134,-1.9648,-2.0323,-2.0401,-2.0401,-2.0362,-2.0012,-1.9904,-1.9699,-1.8844,-1.8131,-1.7501,-1.7112,-1.751,-1.7974,-1.7828,-1.7004,-1.6479,-1.7143,-1.6491,-1.5821,-1.6038,-1.6084,-1.5928,-1.5449,-1.5381,-1.541,-1.541,-1.541,-1.541,-1.541,-1.541,-1.541,-1.541,-1.541,-1.541,-1.5439,-1.5604,-1.5711,-1.5711,-1.5827,-1.5885,-1.5885,-1.657,-1.6955,-1.7011,-1.8267,-1.8682,-1.8174,-1.9267,-1.9798,-1.9798,-1.9798,-1.9798,-1.9798,-1.9798,-1.9798,-1.9798,-1.9798,-2.008,-2.0535,-2.0585,-2.0919,-2.1465,-2.1992,-2.2231,-2.2324,-1.1028,-1.156,-1.2096,-1.2926,-1.3216,-1.3343,-1.3287,-1.3276,-1.3471,-1.4007,-1.4069,-1.4398,-1.5206,-1.5149,-1.5102,-1.5284,-1.5142,-1.5008,-1.5008,-1.5008,-1.5008,-1.5008,-1.5008,-1.4993,-1.4947,-1.494,-1.4919,-1.4867,-1.491,-1.4907,-1.4783,-1.4824,-1.4866,-1.4866,-1.4866,-1.4866,-1.4866,-1.5284,-1.545,-1.5533,-1.6576,-1.6984,-1.7107,-1.8318,-1.835,-1.7908,-1.9085,-1.8718,-1.7747,-1.7747,-1.7868,-1.8141,-1.8838,-1.9036,-1.9146,-1.974,-1.9803,-1.9552,-1.9041,-1.8646,-1.8254,-1.7865,-1.7862,-1.7691,-1.6481,-1.6487,-1.6676,-1.6498,-1.6751,-1.6766,-1.6008,-1.6002,-1.5904,-1.5282,-1.5299,-1.541,-1.541,-1.541,-1.541,-1.541,-1.541,-1.541,-1.541,-1.541,-1.5478,-1.5614,-1.5672,-1.574,-1.5856,-1.5885,-1.5885,-1.5885,-1.6153,-1.6531,-1.7011,-1.7847,-1.8456,-1.8815,-1.9462,-1.9798,-1.9798,-1.9798,-1.9798,-1.9798,-1.9798,-1.9798,-1.9798,-1.9798,-1.9875,-2.0029,-2.0434,-2.0919,-2.1465,-2.1992,-2.2417,-2.2752,-1.035,-1.0837,-1.1365,-1.1901,-1.2387,-1.2678,-1.2678,-1.2678,-1.279,-1.3063,-1.3178,-1.3449,-1.3853,-1.3922,-1.3971,-1.411,-1.3995,-1.3916,-1.3916,-1.4393,-1.4678,-1.4678,-1.5147,-1.5378,-1.5378,-1.5378,-1.5261,-1.4964,-1.5052,-1.5051,-1.4973,-1.5088,-1.5131,-1.5131,-1.5131,-1.5131,-1.5131,-1.5268,-1.5354,-1.5383,-1.5814,-1.5992,-1.6061,-1.6713,-1.6683,-1.6445,-1.7666,-1.8037,-1.8037,-1.8399,-1.8559,-1.8638,-1.9085,-1.9204,-1.9292,-1.9784,-1.9907,-1.9841,-1.9418,-1.8572,-1.7805,-1.7779,-1.6808,-1.6035,-1.6664,-1.6837,-1.6911,-1.7047,-1.6806,-1.6474,-1.6061,-1.578,-1.5387,-1.4693,-1.4677,-1.468,-1.4517,-1.449,-1.449,-1.449,-1.449,-1.4608,-1.4942,-1.4971,-1.5118,-1.5546,-1.5546,-1.5604,-1.5662,-1.5662,-1.5662,-1.5662,-1.5807,-1.6228,-1.6888,-1.7655,-1.8336,-1.9013,-1.954,-1.9798,-1.9798,-1.9798,-1.9798,-1.9798,-1.9798,-1.9798,-1.9798,-1.9798,-2.0093,-2.0584,-2.0856,-2.1455,-2.2156,-2.244,-2.2684,-2.2888,-0.9579,-1.0306,-1.0935,-1.0935,-1.1614,-1.215,-1.215,-1.215,-1.218,-1.2131,-1.232,-1.2416,-1.2368,-1.2566,-1.2678,-1.2678,-1.2678,-1.2678,-1.2678,-1.3511,-1.4052,-1.4052,-1.4819,-1.5296,-1.5296,-1.5296,-1.5184,-1.5082,-1.5224,-1.5286,-1.5232,-1.5442,-1.5479,-1.5479,-1.5479,-1.5479,-1.5479,-1.5524,-1.5569,-1.5548,-1.5509,-1.5461,-1.5383,-1.524,-1.5062,-1.4977,-1.5884,-1.7025,-1.8207,-1.8727,-1.8926,-1.8926,-1.9085,-1.9134,-1.9173,-1.9292,-1.9529,-1.9642,-1.9191,-1.8004,-1.7,-1.7152,-1.5501,-1.4516,-1.6959,-1.701,-1.6689,-1.7295,-1.6481,-1.5782,-1.6042,-1.5571,-1.4891,-1.4303,-1.4117,-1.3979,-1.3626,-1.3574,-1.361,-1.367,-1.3773,-1.4043,-1.4588,-1.4647,-1.4854,-1.5352,-1.541,-1.541,-1.541,-1.541,-1.541,-1.541,-1.5604,-1.6028,-1.6736,-1.7396,-1.8054,-1.8762,-1.9214,-1.9553,-1.9798,-1.9798,-1.9798,-1.9798,-1.9798,-1.9798,-1.9798,-1.9798,-2.0321,-2.1126,-2.1126,-2.1694,-2.2532,-2.2706,-2.282,-2.2888,-0.9579,-0.9723,-0.9821,-0.9821,-0.9916,-1.0015,-1.0015,-1.0015,-1.0346,-1.1234,-1.14,-1.1697,-1.2539,-1.2662,-1.2678,-1.2678,-1.2678,-1.2678,-1.2678,-1.2829,-1.2926,-1.2926,-1.3071,-1.3119,-1.3119,-1.3119,-1.3844,-1.5337,-1.5383,-1.5256,-1.5053,-1.5053,-1.5098,-1.5098,-1.5098,-1.5098,-1.5098,-1.5277,-1.5322,-1.5404,-1.6301,-1.6545,-1.6375,-1.6907,-1.6487,-1.5662,-1.637,-1.6288,-1.576,-1.511,-1.4859,-1.5026,-1.576,-1.6008,-1.6165,-1.6903,-1.7293,-1.7372,-1.6928,-1.6787,-1.6619,-1.6013,-1.5593,-1.5361,-1.5557,-1.5234,-1.4958,-1.5029,-1.5384,-1.5728,-1.5747,-1.5403,-1.5061,-1.4959,-1.4679,-1.4306,-1.3987,-1.3936,-1.4034,-1.4327,-1.4824,-1.5177,-1.5264,-1.5264,-1.5323,-1.5381,-1.541,-1.541,-1.541,-1.541,-1.541,-1.541,-1.5604,-1.598,-1.6549,-1.6821,-1.723,-1.7797,-1.7841,-1.8581,-1.9798,-1.9798,-1.9798,-1.9798,-1.9798,-1.9798,-1.9798,-1.9798,-1.9901,-2.0029,-2.0029,-2.0371,-2.1031,-2.1959,-2.2555,-2.2888,-0.9579,-0.9579,-0.9579,-0.9579,-0.9579,-0.9579,-0.9579,-0.9579,-0.9772,-1.0256,-1.0306,-1.0498,-1.0939,-1.0984,-1.0984,-1.0984,-1.0984,-1.0984,-1.0984,-1.1517,-1.1853,-1.1853,-1.2387,-1.2678,-1.2678,-1.2678,-1.3112,-1.3915,-1.4496,-1.5003,-1.5444,-1.5444,-1.5444,-1.5444,-1.5444,-1.5444,-1.5444,-1.5544,-1.559,-1.5616,-1.5934,-1.6005,-1.5887,-1.5836,-1.5483,-1.5128,-1.5744,-1.6041,-1.609,-1.5677,-1.556,-1.5643,-1.6008,-1.6124,-1.6206,-1.6576,-1.6854,-1.6968,-1.6766,-1.6429,-1.6078,-1.597,-1.514,-1.4364,-1.4501,-1.407,-1.3934,-1.4887,-1.5357,-1.5604,-1.5675,-1.5539,-1.5221,-1.4633,-1.4401,-1.4012,-1.327,-1.3157,-1.3154,-1.3113,-1.3492,-1.3936,-1.4312,-1.4677,-1.503,-1.5381,-1.541,-1.541,-1.541,-1.541,-1.541,-1.541,-1.5478,-1.5845,-1.6482,-1.6606,-1.695,-1.7605,-1.7934,-1.8432,-1.9083,-1.9083,-1.9253,-1.9591,-1.9591,-1.9591,-1.9591,-1.9656,-1.9824,-2.0067,-2.0446,-2.1066,-2.1779,-2.224,-2.2555,-2.2729]}]]